﻿<?xml version="1.0" encoding="UTF-8" standalone="no" ?>
<gpx xmlns="http://www.topografix.com/GPX/1/1" creator="CompeGPS" version="1.1" xmlns:xsi="http://www.w3.org/2001/XMLSchema-instance" xsi:schemaLocation="http://www.topografix.com/GPX/1/1 http://www.topografix.com/GPX/1/1/gpx.xsd http://www.garmin.com/xmlschemas/GpxExtensions/v3 http://www.garmin.com/xmlschemas/GpxExtensionsv3.xsd http://www.garmin.com/xmlschemas/TrackPointExtension/v1 http://www.garmin.com/xmlschemas/TrackPointExtensionv1.xsd" xmlns:gpxtpx="http://www.garmin.com/xmlschemas/TrackPointExtension/v1">
  <metadata>
    <link href="http://www.compegps.com">
      <text>CompeGPS TEAM, SL</text>
    </link>
    <time>2013-04-05T14:20:12Z</time>
    <bounds maxlat="42.899017" maxlon="1.542357" minlat="42.808968" minlon="1.439213"/>
  </metadata>
<wpt lat="42.899017" lon="1.452742">
  <ele>1250</ele>
  <name>Col de Port</name>
</wpt>
<wpt lat="42.887999" lon="1.445109">
  <ele>1663</ele>
  <name>Pic d Estibat</name>
</wpt>
<wpt lat="42.859193" lon="1.451262">
  <ele>1945</ele>
  <name>Pic de la journalade</name>
</wpt>
<wpt lat="42.846375" lon="1.439374">
  <ele>1828</ele>
  <name>Pic de Goulurs</name>
</wpt>
<wpt lat="42.830506" lon="1.440081">
  <ele>2198</ele>
  <name>Pic des 3 Seigneurs</name>
</wpt>
<wpt lat="42.822478" lon="1.452958">
  <ele>2165</ele>
  <name>Pic de Peyroutet</name>
</wpt>
<wpt lat="42.815523" lon="1.492786">
  <ele>2114</ele>
  <name>Pic de Bassibie</name>
</wpt>
<wpt lat="42.810578" lon="1.513861">
  <ele>1906</ele>
  <name>Pla de Madame</name>
</wpt>
<wpt lat="42.818459" lon="1.542313">
  <ele>1427</ele>
  <name>Col de Lastris</name>
</wpt>
<wpt lat="42.834368" lon="1.532945">
  <ele>909</ele>
  <name>Piste de Gourbit</name>
</wpt>
  <trk>
    <name>Trois seigneurs</name>
    <trkseg>
      <trkpt lat="42.899017" lon="1.452742">
        <ele>1246.5</ele>
        <time>2013-04-03T05:56:39Z</time>
        <name>Col de Port</name>
      </trkpt>
      <trkpt lat="42.898975" lon="1.452704">
        <ele>1247.0</ele>
        <time>2013-04-03T05:58:27Z</time>
      </trkpt>
      <trkpt lat="42.898899" lon="1.452654">
        <ele>1247.0</ele>
        <time>2013-04-03T05:58:38Z</time>
      </trkpt>
      <trkpt lat="42.898808" lon="1.452601">
        <ele>1247.9</ele>
        <time>2013-04-03T05:58:48Z</time>
      </trkpt>
      <trkpt lat="42.898729" lon="1.452554">
        <ele>1248.4</ele>
        <time>2013-04-03T05:58:57Z</time>
      </trkpt>
      <trkpt lat="42.898632" lon="1.452588">
        <ele>1250.8</ele>
        <time>2013-04-03T05:59:14Z</time>
      </trkpt>
      <trkpt lat="42.898548" lon="1.452557">
        <ele>1252.2</ele>
        <time>2013-04-03T05:59:27Z</time>
      </trkpt>
      <trkpt lat="42.898457" lon="1.452535">
        <ele>1255.6</ele>
        <time>2013-04-03T05:59:40Z</time>
      </trkpt>
      <trkpt lat="42.898365" lon="1.452541">
        <ele>1256.6</ele>
        <time>2013-04-03T05:59:53Z</time>
      </trkpt>
      <trkpt lat="42.898279" lon="1.452519">
        <ele>1259.9</ele>
        <time>2013-04-03T06:00:07Z</time>
      </trkpt>
      <trkpt lat="42.898210" lon="1.452452">
        <ele>1262.8</ele>
        <time>2013-04-03T06:00:22Z</time>
      </trkpt>
      <trkpt lat="42.898125" lon="1.452497">
        <ele>1264.8</ele>
        <time>2013-04-03T06:00:37Z</time>
      </trkpt>
      <trkpt lat="42.898041" lon="1.452522">
        <ele>1268.6</ele>
        <time>2013-04-03T06:00:54Z</time>
      </trkpt>
      <trkpt lat="42.897953" lon="1.452452">
        <ele>1273.4</ele>
        <time>2013-04-03T06:01:15Z</time>
      </trkpt>
      <trkpt lat="42.897868" lon="1.452483">
        <ele>1275.8</ele>
        <time>2013-04-03T06:01:32Z</time>
      </trkpt>
      <trkpt lat="42.897783" lon="1.452472">
        <ele>1279.7</ele>
        <time>2013-04-03T06:01:48Z</time>
      </trkpt>
      <trkpt lat="42.897699" lon="1.452457">
        <ele>1283.0</ele>
        <time>2013-04-03T06:02:09Z</time>
      </trkpt>
      <trkpt lat="42.897607" lon="1.452518">
        <ele>1285.9</ele>
        <time>2013-04-03T06:02:26Z</time>
      </trkpt>
      <trkpt lat="42.897536" lon="1.452439">
        <ele>1288.8</ele>
        <time>2013-04-03T06:02:42Z</time>
      </trkpt>
      <trkpt lat="42.897448" lon="1.452433">
        <ele>1292.2</ele>
        <time>2013-04-03T06:02:56Z</time>
      </trkpt>
      <trkpt lat="42.897375" lon="1.452398">
        <ele>1294.1</ele>
        <time>2013-04-03T06:03:19Z</time>
      </trkpt>
      <trkpt lat="42.897283" lon="1.452408">
        <ele>1297.0</ele>
        <time>2013-04-03T06:03:41Z</time>
      </trkpt>
      <trkpt lat="42.897198" lon="1.452437">
        <ele>1299.4</ele>
        <time>2013-04-03T06:03:56Z</time>
      </trkpt>
      <trkpt lat="42.897115" lon="1.452424">
        <ele>1302.7</ele>
        <time>2013-04-03T06:04:13Z</time>
      </trkpt>
      <trkpt lat="42.897032" lon="1.452349">
        <ele>1306.6</ele>
        <time>2013-04-03T06:04:30Z</time>
      </trkpt>
      <trkpt lat="42.896930" lon="1.452341">
        <ele>1309.0</ele>
        <time>2013-04-03T06:04:46Z</time>
      </trkpt>
      <trkpt lat="42.896842" lon="1.452368">
        <ele>1312.8</ele>
        <time>2013-04-03T06:05:00Z</time>
      </trkpt>
      <trkpt lat="42.896752" lon="1.452451">
        <ele>1315.2</ele>
        <time>2013-04-03T06:05:14Z</time>
      </trkpt>
      <trkpt lat="42.896686" lon="1.452387">
        <ele>1318.6</ele>
        <time>2013-04-03T06:05:29Z</time>
      </trkpt>
      <trkpt lat="42.896629" lon="1.452406">
        <ele>1321.0</ele>
        <time>2013-04-03T06:09:23Z</time>
      </trkpt>
      <trkpt lat="42.896577" lon="1.452343">
        <ele>1323.4</ele>
        <time>2013-04-03T06:11:04Z</time>
      </trkpt>
      <trkpt lat="42.896484" lon="1.452299">
        <ele>1327.2</ele>
        <time>2013-04-03T06:11:21Z</time>
      </trkpt>
      <trkpt lat="42.896401" lon="1.452232">
        <ele>1330.6</ele>
        <time>2013-04-03T06:11:38Z</time>
      </trkpt>
      <trkpt lat="42.896324" lon="1.452179">
        <ele>1333.5</ele>
        <time>2013-04-03T06:11:54Z</time>
      </trkpt>
      <trkpt lat="42.896232" lon="1.452129">
        <ele>1336.8</ele>
        <time>2013-04-03T06:12:12Z</time>
      </trkpt>
      <trkpt lat="42.896157" lon="1.452052">
        <ele>1340.7</ele>
        <time>2013-04-03T06:12:30Z</time>
      </trkpt>
      <trkpt lat="42.896080" lon="1.451986">
        <ele>1343.6</ele>
        <time>2013-04-03T06:12:47Z</time>
      </trkpt>
      <trkpt lat="42.896003" lon="1.451931">
        <ele>1347.4</ele>
        <time>2013-04-03T06:13:04Z</time>
      </trkpt>
      <trkpt lat="42.895916" lon="1.451891">
        <ele>1351.3</ele>
        <time>2013-04-03T06:13:21Z</time>
      </trkpt>
      <trkpt lat="42.895847" lon="1.451815">
        <ele>1353.7</ele>
        <time>2013-04-03T06:13:37Z</time>
      </trkpt>
      <trkpt lat="42.895771" lon="1.451747">
        <ele>1357.5</ele>
        <time>2013-04-03T06:13:53Z</time>
      </trkpt>
      <trkpt lat="42.895696" lon="1.451682">
        <ele>1360.9</ele>
        <time>2013-04-03T06:14:10Z</time>
      </trkpt>
      <trkpt lat="42.895617" lon="1.451618">
        <ele>1363.8</ele>
        <time>2013-04-03T06:14:26Z</time>
      </trkpt>
      <trkpt lat="42.895545" lon="1.451565">
        <ele>1367.1</ele>
        <time>2013-04-03T06:14:43Z</time>
      </trkpt>
      <trkpt lat="42.895467" lon="1.451507">
        <ele>1371.0</ele>
        <time>2013-04-03T06:14:59Z</time>
      </trkpt>
      <trkpt lat="42.895400" lon="1.451440">
        <ele>1374.3</ele>
        <time>2013-04-03T06:15:16Z</time>
      </trkpt>
      <trkpt lat="42.895323" lon="1.451359">
        <ele>1378.2</ele>
        <time>2013-04-03T06:15:35Z</time>
      </trkpt>
      <trkpt lat="42.895245" lon="1.451339">
        <ele>1382.0</ele>
        <time>2013-04-03T06:15:51Z</time>
      </trkpt>
      <trkpt lat="42.895183" lon="1.451255">
        <ele>1384.9</ele>
        <time>2013-04-03T06:16:09Z</time>
      </trkpt>
      <trkpt lat="42.895116" lon="1.451198">
        <ele>1388.8</ele>
        <time>2013-04-03T06:16:24Z</time>
      </trkpt>
      <trkpt lat="42.895053" lon="1.451143">
        <ele>1392.1</ele>
        <time>2013-04-03T06:16:47Z</time>
      </trkpt>
      <trkpt lat="42.894986" lon="1.451118">
        <ele>1395.0</ele>
        <time>2013-04-03T06:17:04Z</time>
      </trkpt>
      <trkpt lat="42.894894" lon="1.451088">
        <ele>1397.4</ele>
        <time>2013-04-03T06:17:22Z</time>
      </trkpt>
      <trkpt lat="42.894810" lon="1.451072">
        <ele>1399.8</ele>
        <time>2013-04-03T06:17:36Z</time>
      </trkpt>
      <trkpt lat="42.894716" lon="1.451044">
        <ele>1402.7</ele>
        <time>2013-04-03T06:17:50Z</time>
      </trkpt>
      <trkpt lat="42.894626" lon="1.451009">
        <ele>1405.1</ele>
        <time>2013-04-03T06:18:04Z</time>
      </trkpt>
      <trkpt lat="42.894535" lon="1.450991">
        <ele>1407.5</ele>
        <time>2013-04-03T06:18:18Z</time>
      </trkpt>
      <trkpt lat="42.894447" lon="1.450967">
        <ele>1408.9</ele>
        <time>2013-04-03T06:18:31Z</time>
      </trkpt>
      <trkpt lat="42.894356" lon="1.450970">
        <ele>1409.9</ele>
        <time>2013-04-03T06:18:42Z</time>
      </trkpt>
      <trkpt lat="42.894296" lon="1.450991">
        <ele>1410.4</ele>
        <time>2013-04-03T06:19:19Z</time>
      </trkpt>
      <trkpt lat="42.894263" lon="1.450996">
        <ele>1410.4</ele>
        <time>2013-04-03T06:20:40Z</time>
      </trkpt>
      <trkpt lat="42.894209" lon="1.451040">
        <ele>1410.9</ele>
        <time>2013-04-03T06:21:50Z</time>
      </trkpt>
      <trkpt lat="42.894117" lon="1.451058">
        <ele>1411.3</ele>
        <time>2013-04-03T06:22:00Z</time>
      </trkpt>
      <trkpt lat="42.894024" lon="1.451061">
        <ele>1411.8</ele>
        <time>2013-04-03T06:22:09Z</time>
      </trkpt>
      <trkpt lat="42.893918" lon="1.451082">
        <ele>1411.3</ele>
        <time>2013-04-03T06:22:19Z</time>
      </trkpt>
      <trkpt lat="42.893818" lon="1.451103">
        <ele>1410.9</ele>
        <time>2013-04-03T06:22:28Z</time>
      </trkpt>
      <trkpt lat="42.893715" lon="1.451110">
        <ele>1410.4</ele>
        <time>2013-04-03T06:22:38Z</time>
      </trkpt>
      <trkpt lat="42.893631" lon="1.451148">
        <ele>1411.3</ele>
        <time>2013-04-03T06:22:48Z</time>
      </trkpt>
      <trkpt lat="42.893548" lon="1.451103">
        <ele>1412.8</ele>
        <time>2013-04-03T06:22:59Z</time>
      </trkpt>
      <trkpt lat="42.893465" lon="1.451041">
        <ele>1414.2</ele>
        <time>2013-04-03T06:23:08Z</time>
      </trkpt>
      <trkpt lat="42.893383" lon="1.450965">
        <ele>1415.2</ele>
        <time>2013-04-03T06:23:19Z</time>
      </trkpt>
      <trkpt lat="42.893313" lon="1.450895">
        <ele>1417.1</ele>
        <time>2013-04-03T06:23:29Z</time>
      </trkpt>
      <trkpt lat="42.893227" lon="1.450846">
        <ele>1418.6</ele>
        <time>2013-04-03T06:23:41Z</time>
      </trkpt>
      <trkpt lat="42.893142" lon="1.450808">
        <ele>1420.5</ele>
        <time>2013-04-03T06:23:53Z</time>
      </trkpt>
      <trkpt lat="42.893044" lon="1.450764">
        <ele>1422.4</ele>
        <time>2013-04-03T06:24:05Z</time>
      </trkpt>
      <trkpt lat="42.892950" lon="1.450714">
        <ele>1425.3</ele>
        <time>2013-04-03T06:24:18Z</time>
      </trkpt>
      <trkpt lat="42.892868" lon="1.450657">
        <ele>1428.2</ele>
        <time>2013-04-03T06:24:32Z</time>
      </trkpt>
      <trkpt lat="42.892782" lon="1.450586">
        <ele>1431.1</ele>
        <time>2013-04-03T06:24:48Z</time>
      </trkpt>
      <trkpt lat="42.892716" lon="1.450533">
        <ele>1433.9</ele>
        <time>2013-04-03T06:25:03Z</time>
      </trkpt>
      <trkpt lat="42.892643" lon="1.450459">
        <ele>1437.3</ele>
        <time>2013-04-03T06:25:20Z</time>
      </trkpt>
      <trkpt lat="42.892564" lon="1.450405">
        <ele>1440.7</ele>
        <time>2013-04-03T06:25:37Z</time>
      </trkpt>
      <trkpt lat="42.892491" lon="1.450328">
        <ele>1442.6</ele>
        <time>2013-04-03T06:25:52Z</time>
      </trkpt>
      <trkpt lat="42.892424" lon="1.450259">
        <ele>1446.4</ele>
        <time>2013-04-03T06:26:07Z</time>
      </trkpt>
      <trkpt lat="42.892369" lon="1.450143">
        <ele>1448.8</ele>
        <time>2013-04-03T06:26:22Z</time>
      </trkpt>
      <trkpt lat="42.892296" lon="1.450112">
        <ele>1451.7</ele>
        <time>2013-04-03T06:26:37Z</time>
      </trkpt>
      <trkpt lat="42.892216" lon="1.450025">
        <ele>1454.1</ele>
        <time>2013-04-03T06:26:56Z</time>
      </trkpt>
      <trkpt lat="42.892149" lon="1.449976">
        <ele>1456.1</ele>
        <time>2013-04-03T06:27:08Z</time>
      </trkpt>
      <trkpt lat="42.892074" lon="1.449922">
        <ele>1458.9</ele>
        <time>2013-04-03T06:27:25Z</time>
      </trkpt>
      <trkpt lat="42.891986" lon="1.449898">
        <ele>1462.3</ele>
        <time>2013-04-03T06:27:44Z</time>
      </trkpt>
      <trkpt lat="42.891901" lon="1.449873">
        <ele>1466.2</ele>
        <time>2013-04-03T06:28:04Z</time>
      </trkpt>
      <trkpt lat="42.891813" lon="1.449838">
        <ele>1470.0</ele>
        <time>2013-04-03T06:28:21Z</time>
      </trkpt>
      <trkpt lat="42.891724" lon="1.449788">
        <ele>1473.4</ele>
        <time>2013-04-03T06:28:38Z</time>
      </trkpt>
      <trkpt lat="42.891639" lon="1.449733">
        <ele>1476.7</ele>
        <time>2013-04-03T06:28:57Z</time>
      </trkpt>
      <trkpt lat="42.891560" lon="1.449683">
        <ele>1480.6</ele>
        <time>2013-04-03T06:29:15Z</time>
      </trkpt>
      <trkpt lat="42.891475" lon="1.449633">
        <ele>1483.4</ele>
        <time>2013-04-03T06:29:33Z</time>
      </trkpt>
      <trkpt lat="42.891392" lon="1.449576">
        <ele>1487.8</ele>
        <time>2013-04-03T06:29:50Z</time>
      </trkpt>
      <trkpt lat="42.891312" lon="1.449547">
        <ele>1491.1</ele>
        <time>2013-04-03T06:30:08Z</time>
      </trkpt>
      <trkpt lat="42.891237" lon="1.449518">
        <ele>1493.6</ele>
        <time>2013-04-03T06:30:30Z</time>
      </trkpt>
      <trkpt lat="42.891146" lon="1.449480">
        <ele>1497.4</ele>
        <time>2013-04-03T06:30:52Z</time>
      </trkpt>
      <trkpt lat="42.891065" lon="1.449441">
        <ele>1502.2</ele>
        <time>2013-04-03T06:31:16Z</time>
      </trkpt>
      <trkpt lat="42.890981" lon="1.449375">
        <ele>1505.1</ele>
        <time>2013-04-03T06:31:39Z</time>
      </trkpt>
      <trkpt lat="42.890890" lon="1.449324">
        <ele>1508.9</ele>
        <time>2013-04-03T06:32:01Z</time>
      </trkpt>
      <trkpt lat="42.890815" lon="1.449269">
        <ele>1512.8</ele>
        <time>2013-04-03T06:32:21Z</time>
      </trkpt>
      <trkpt lat="42.890724" lon="1.449226">
        <ele>1516.1</ele>
        <time>2013-04-03T06:32:47Z</time>
      </trkpt>
      <trkpt lat="42.890655" lon="1.449169">
        <ele>1519.5</ele>
        <time>2013-04-03T06:33:08Z</time>
      </trkpt>
      <trkpt lat="42.890588" lon="1.449110">
        <ele>1523.3</ele>
        <time>2013-04-03T06:33:30Z</time>
      </trkpt>
      <trkpt lat="42.890508" lon="1.449052">
        <ele>1526.7</ele>
        <time>2013-04-03T06:33:50Z</time>
      </trkpt>
      <trkpt lat="42.890426" lon="1.448956">
        <ele>1531.5</ele>
        <time>2013-04-03T06:34:17Z</time>
      </trkpt>
      <trkpt lat="42.890351" lon="1.448883">
        <ele>1534.9</ele>
        <time>2013-04-03T06:34:39Z</time>
      </trkpt>
      <trkpt lat="42.890269" lon="1.448805">
        <ele>1538.7</ele>
        <time>2013-04-03T06:35:01Z</time>
      </trkpt>
      <trkpt lat="42.890227" lon="1.448695">
        <ele>1542.1</ele>
        <time>2013-04-03T06:35:19Z</time>
      </trkpt>
      <trkpt lat="42.890153" lon="1.448612">
        <ele>1545.9</ele>
        <time>2013-04-03T06:35:42Z</time>
      </trkpt>
      <trkpt lat="42.890089" lon="1.448535">
        <ele>1548.8</ele>
        <time>2013-04-03T06:36:02Z</time>
      </trkpt>
      <trkpt lat="42.890031" lon="1.448440">
        <ele>1551.7</ele>
        <time>2013-04-03T06:36:25Z</time>
      </trkpt>
      <trkpt lat="42.890009" lon="1.448324">
        <ele>1552.2</ele>
        <time>2013-04-03T06:36:43Z</time>
      </trkpt>
      <trkpt lat="42.889969" lon="1.448220">
        <ele>1555.1</ele>
        <time>2013-04-03T06:36:59Z</time>
      </trkpt>
      <trkpt lat="42.889936" lon="1.448104">
        <ele>1556.5</ele>
        <time>2013-04-03T06:37:14Z</time>
      </trkpt>
      <trkpt lat="42.889890" lon="1.448030">
        <ele>1559.4</ele>
        <time>2013-04-03T06:37:33Z</time>
      </trkpt>
      <trkpt lat="42.889847" lon="1.447924">
        <ele>1561.8</ele>
        <time>2013-04-03T06:37:50Z</time>
      </trkpt>
      <trkpt lat="42.889793" lon="1.447810">
        <ele>1565.2</ele>
        <time>2013-04-03T06:38:08Z</time>
      </trkpt>
      <trkpt lat="42.889756" lon="1.447701">
        <ele>1568.1</ele>
        <time>2013-04-03T06:38:27Z</time>
      </trkpt>
      <trkpt lat="42.889710" lon="1.447575">
        <ele>1570.9</ele>
        <time>2013-04-03T06:38:44Z</time>
      </trkpt>
      <trkpt lat="42.889679" lon="1.447457">
        <ele>1573.3</ele>
        <time>2013-04-03T06:39:03Z</time>
      </trkpt>
      <trkpt lat="42.889621" lon="1.447342">
        <ele>1577.2</ele>
        <time>2013-04-03T06:39:34Z</time>
      </trkpt>
      <trkpt lat="42.889601" lon="1.447211">
        <ele>1578.6</ele>
        <time>2013-04-03T06:39:49Z</time>
      </trkpt>
      <trkpt lat="42.889594" lon="1.447097">
        <ele>1579.6</ele>
        <time>2013-04-03T06:40:04Z</time>
      </trkpt>
      <trkpt lat="42.889541" lon="1.447007">
        <ele>1582.5</ele>
        <time>2013-04-03T06:40:30Z</time>
      </trkpt>
      <trkpt lat="42.889494" lon="1.446901">
        <ele>1585.8</ele>
        <time>2013-04-03T06:40:47Z</time>
      </trkpt>
      <trkpt lat="42.889453" lon="1.446801">
        <ele>1588.2</ele>
        <time>2013-04-03T06:41:05Z</time>
      </trkpt>
      <trkpt lat="42.889430" lon="1.446679">
        <ele>1590.2</ele>
        <time>2013-04-03T06:41:22Z</time>
      </trkpt>
      <trkpt lat="42.889372" lon="1.446607">
        <ele>1593.5</ele>
        <time>2013-04-03T06:41:44Z</time>
      </trkpt>
      <trkpt lat="42.889315" lon="1.446546">
        <ele>1597.4</ele>
        <time>2013-04-03T06:42:02Z</time>
      </trkpt>
      <trkpt lat="42.889247" lon="1.446526">
        <ele>1601.2</ele>
        <time>2013-04-03T06:42:23Z</time>
      </trkpt>
      <trkpt lat="42.889219" lon="1.446384">
        <ele>1603.6</ele>
        <time>2013-04-03T06:42:40Z</time>
      </trkpt>
      <trkpt lat="42.889174" lon="1.446277">
        <ele>1606.0</ele>
        <time>2013-04-03T06:42:56Z</time>
      </trkpt>
      <trkpt lat="42.889089" lon="1.446257">
        <ele>1610.8</ele>
        <time>2013-04-03T06:43:18Z</time>
      </trkpt>
      <trkpt lat="42.889028" lon="1.446241">
        <ele>1614.7</ele>
        <time>2013-04-03T06:43:36Z</time>
      </trkpt>
      <trkpt lat="42.889004" lon="1.446105">
        <ele>1616.1</ele>
        <time>2013-04-03T06:43:50Z</time>
      </trkpt>
      <trkpt lat="42.888962" lon="1.446002">
        <ele>1619.5</ele>
        <time>2013-04-03T06:44:13Z</time>
      </trkpt>
      <trkpt lat="42.888922" lon="1.445899">
        <ele>1621.9</ele>
        <time>2013-04-03T06:44:28Z</time>
      </trkpt>
      <trkpt lat="42.888832" lon="1.445916">
        <ele>1626.2</ele>
        <time>2013-04-03T06:44:49Z</time>
      </trkpt>
      <trkpt lat="42.888788" lon="1.445774">
        <ele>1627.2</ele>
        <time>2013-04-03T06:45:57Z</time>
      </trkpt>
      <trkpt lat="42.888730" lon="1.445715">
        <ele>1631.5</ele>
        <time>2013-04-03T06:46:13Z</time>
      </trkpt>
      <trkpt lat="42.888650" lon="1.445679">
        <ele>1635.3</ele>
        <time>2013-04-03T06:46:35Z</time>
      </trkpt>
      <trkpt lat="42.888561" lon="1.445629">
        <ele>1638.7</ele>
        <time>2013-04-03T06:47:01Z</time>
      </trkpt>
      <trkpt lat="42.888456" lon="1.445597">
        <ele>1643.5</ele>
        <time>2013-04-03T06:47:25Z</time>
      </trkpt>
      <trkpt lat="42.888402" lon="1.445559">
        <ele>1645.4</ele>
        <time>2013-04-03T06:48:22Z</time>
      </trkpt>
      <trkpt lat="42.888318" lon="1.445517">
        <ele>1649.3</ele>
        <time>2013-04-03T06:48:35Z</time>
      </trkpt>
      <trkpt lat="42.888254" lon="1.445467">
        <ele>1651.2</ele>
        <time>2013-04-03T06:48:51Z</time>
      </trkpt>
      <trkpt lat="42.888200" lon="1.445357">
        <ele>1654.1</ele>
        <time>2013-04-03T06:49:05Z</time>
      </trkpt>
      <trkpt lat="42.888131" lon="1.445267">
        <ele>1657.4</ele>
        <time>2013-04-03T06:49:21Z</time>
      </trkpt>
      <trkpt lat="42.888071" lon="1.445169">
        <ele>1659.4</ele>
        <time>2013-04-03T06:49:33Z</time>
      </trkpt>
      <trkpt lat="42.887999" lon="1.445109">
        <ele>1661.3</ele>
        <time>2013-04-03T06:49:49Z</time>
        <name>Pic d Estibat</name>
      </trkpt>
      <trkpt lat="42.887942" lon="1.445081">
        <ele>1661.8</ele>
        <time>2013-04-03T06:51:41Z</time>
      </trkpt>
      <trkpt lat="42.887925" lon="1.445075">
        <ele>1661.3</ele>
        <time>2013-04-03T06:55:56Z</time>
      </trkpt>
      <trkpt lat="42.887924" lon="1.445094">
        <ele>1661.8</ele>
        <time>2013-04-03T06:57:56Z</time>
      </trkpt>
      <trkpt lat="42.887904" lon="1.445115">
        <ele>1662.3</ele>
        <time>2013-04-03T07:01:29Z</time>
      </trkpt>
      <trkpt lat="42.887854" lon="1.445186">
        <ele>1663.2</ele>
        <time>2013-04-03T07:03:41Z</time>
      </trkpt>
      <trkpt lat="42.887811" lon="1.445279">
        <ele>1664.2</ele>
        <time>2013-04-03T07:04:08Z</time>
      </trkpt>
      <trkpt lat="42.887747" lon="1.445384">
        <ele>1664.7</ele>
        <time>2013-04-03T07:04:20Z</time>
      </trkpt>
      <trkpt lat="42.887676" lon="1.445484">
        <ele>1665.1</ele>
        <time>2013-04-03T07:04:28Z</time>
      </trkpt>
      <trkpt lat="42.887620" lon="1.445593">
        <ele>1664.2</ele>
        <time>2013-04-03T07:04:38Z</time>
      </trkpt>
      <trkpt lat="42.887564" lon="1.445712">
        <ele>1662.7</ele>
        <time>2013-04-03T07:04:49Z</time>
      </trkpt>
      <trkpt lat="42.887521" lon="1.445821">
        <ele>1662.3</ele>
        <time>2013-04-03T07:04:57Z</time>
      </trkpt>
      <trkpt lat="42.887483" lon="1.445937">
        <ele>1659.4</ele>
        <time>2013-04-03T07:05:05Z</time>
      </trkpt>
      <trkpt lat="42.887443" lon="1.446051">
        <ele>1657.0</ele>
        <time>2013-04-03T07:05:14Z</time>
      </trkpt>
      <trkpt lat="42.887390" lon="1.446158">
        <ele>1654.6</ele>
        <time>2013-04-03T07:05:22Z</time>
      </trkpt>
      <trkpt lat="42.887318" lon="1.446251">
        <ele>1652.2</ele>
        <time>2013-04-03T07:05:30Z</time>
      </trkpt>
      <trkpt lat="42.887241" lon="1.446318">
        <ele>1650.2</ele>
        <time>2013-04-03T07:05:39Z</time>
      </trkpt>
      <trkpt lat="42.887177" lon="1.446384">
        <ele>1647.8</ele>
        <time>2013-04-03T07:05:48Z</time>
      </trkpt>
      <trkpt lat="42.887107" lon="1.446469">
        <ele>1644.5</ele>
        <time>2013-04-03T07:05:57Z</time>
      </trkpt>
      <trkpt lat="42.887048" lon="1.446585">
        <ele>1642.1</ele>
        <time>2013-04-03T07:06:05Z</time>
      </trkpt>
      <trkpt lat="42.886994" lon="1.446698">
        <ele>1640.2</ele>
        <time>2013-04-03T07:06:13Z</time>
      </trkpt>
      <trkpt lat="42.886924" lon="1.446787">
        <ele>1637.7</ele>
        <time>2013-04-03T07:06:20Z</time>
      </trkpt>
      <trkpt lat="42.886870" lon="1.446888">
        <ele>1635.3</ele>
        <time>2013-04-03T07:06:27Z</time>
      </trkpt>
      <trkpt lat="42.886813" lon="1.446985">
        <ele>1633.9</ele>
        <time>2013-04-03T07:06:34Z</time>
      </trkpt>
      <trkpt lat="42.886733" lon="1.447065">
        <ele>1631.5</ele>
        <time>2013-04-03T07:06:41Z</time>
      </trkpt>
      <trkpt lat="42.886644" lon="1.447140">
        <ele>1629.6</ele>
        <time>2013-04-03T07:06:50Z</time>
      </trkpt>
      <trkpt lat="42.886573" lon="1.447209">
        <ele>1628.6</ele>
        <time>2013-04-03T07:08:08Z</time>
      </trkpt>
      <trkpt lat="42.886506" lon="1.447316">
        <ele>1628.1</ele>
        <time>2013-04-03T07:08:15Z</time>
      </trkpt>
      <trkpt lat="42.886448" lon="1.447417">
        <ele>1625.7</ele>
        <time>2013-04-03T07:08:21Z</time>
      </trkpt>
      <trkpt lat="42.886399" lon="1.447526">
        <ele>1624.3</ele>
        <time>2013-04-03T07:08:28Z</time>
      </trkpt>
      <trkpt lat="42.886329" lon="1.447627">
        <ele>1621.9</ele>
        <time>2013-04-03T07:08:35Z</time>
      </trkpt>
      <trkpt lat="42.886266" lon="1.447736">
        <ele>1619.0</ele>
        <time>2013-04-03T07:08:42Z</time>
      </trkpt>
      <trkpt lat="42.886198" lon="1.447836">
        <ele>1617.1</ele>
        <time>2013-04-03T07:08:50Z</time>
      </trkpt>
      <trkpt lat="42.886121" lon="1.447923">
        <ele>1614.7</ele>
        <time>2013-04-03T07:08:57Z</time>
      </trkpt>
      <trkpt lat="42.886042" lon="1.448018">
        <ele>1613.2</ele>
        <time>2013-04-03T07:09:04Z</time>
      </trkpt>
      <trkpt lat="42.885967" lon="1.448106">
        <ele>1610.8</ele>
        <time>2013-04-03T07:09:11Z</time>
      </trkpt>
      <trkpt lat="42.885877" lon="1.448194">
        <ele>1608.4</ele>
        <time>2013-04-03T07:09:18Z</time>
      </trkpt>
      <trkpt lat="42.885790" lon="1.448259">
        <ele>1606.5</ele>
        <time>2013-04-03T07:09:25Z</time>
      </trkpt>
      <trkpt lat="42.885700" lon="1.448307">
        <ele>1604.6</ele>
        <time>2013-04-03T07:09:32Z</time>
      </trkpt>
      <trkpt lat="42.885611" lon="1.448363">
        <ele>1602.7</ele>
        <time>2013-04-03T07:09:38Z</time>
      </trkpt>
      <trkpt lat="42.885531" lon="1.448438">
        <ele>1601.2</ele>
        <time>2013-04-03T07:09:44Z</time>
      </trkpt>
      <trkpt lat="42.885443" lon="1.448493">
        <ele>1599.8</ele>
        <time>2013-04-03T07:09:50Z</time>
      </trkpt>
      <trkpt lat="42.885350" lon="1.448569">
        <ele>1599.3</ele>
        <time>2013-04-03T07:09:57Z</time>
      </trkpt>
      <trkpt lat="42.885272" lon="1.448645">
        <ele>1597.4</ele>
        <time>2013-04-03T07:10:03Z</time>
      </trkpt>
      <trkpt lat="42.885187" lon="1.448712">
        <ele>1596.4</ele>
        <time>2013-04-03T07:10:09Z</time>
      </trkpt>
      <trkpt lat="42.885119" lon="1.448787">
        <ele>1595.9</ele>
        <time>2013-04-03T07:10:15Z</time>
      </trkpt>
      <trkpt lat="42.885030" lon="1.448835">
        <ele>1595.9</ele>
        <time>2013-04-03T07:10:21Z</time>
      </trkpt>
      <trkpt lat="42.884931" lon="1.448883">
        <ele>1594.0</ele>
        <time>2013-04-03T07:10:28Z</time>
      </trkpt>
      <trkpt lat="42.884841" lon="1.448938">
        <ele>1593.0</ele>
        <time>2013-04-03T07:10:35Z</time>
      </trkpt>
      <trkpt lat="42.884754" lon="1.449001">
        <ele>1590.2</ele>
        <time>2013-04-03T07:10:43Z</time>
      </trkpt>
      <trkpt lat="42.884676" lon="1.449083">
        <ele>1587.8</ele>
        <time>2013-04-03T07:10:51Z</time>
      </trkpt>
      <trkpt lat="42.884590" lon="1.449155">
        <ele>1584.9</ele>
        <time>2013-04-03T07:11:00Z</time>
      </trkpt>
      <trkpt lat="42.884508" lon="1.449231">
        <ele>1582.0</ele>
        <time>2013-04-03T07:11:09Z</time>
      </trkpt>
      <trkpt lat="42.884424" lon="1.449314">
        <ele>1579.6</ele>
        <time>2013-04-03T07:11:17Z</time>
      </trkpt>
      <trkpt lat="42.884351" lon="1.449408">
        <ele>1578.1</ele>
        <time>2013-04-03T07:11:25Z</time>
      </trkpt>
      <trkpt lat="42.884285" lon="1.449508">
        <ele>1576.2</ele>
        <time>2013-04-03T07:11:34Z</time>
      </trkpt>
      <trkpt lat="42.884207" lon="1.449616">
        <ele>1574.8</ele>
        <time>2013-04-03T07:11:42Z</time>
      </trkpt>
      <trkpt lat="42.884133" lon="1.449708">
        <ele>1574.3</ele>
        <time>2013-04-03T07:11:50Z</time>
      </trkpt>
      <trkpt lat="42.884065" lon="1.449809">
        <ele>1573.8</ele>
        <time>2013-04-03T07:11:59Z</time>
      </trkpt>
      <trkpt lat="42.884002" lon="1.449916">
        <ele>1573.3</ele>
        <time>2013-04-03T07:12:07Z</time>
      </trkpt>
      <trkpt lat="42.883939" lon="1.450023">
        <ele>1572.8</ele>
        <time>2013-04-03T07:12:14Z</time>
      </trkpt>
      <trkpt lat="42.883898" lon="1.450141">
        <ele>1572.8</ele>
        <time>2013-04-03T07:12:21Z</time>
      </trkpt>
      <trkpt lat="42.883853" lon="1.450249">
        <ele>1573.3</ele>
        <time>2013-04-03T07:12:29Z</time>
      </trkpt>
      <trkpt lat="42.883807" lon="1.450355">
        <ele>1574.3</ele>
        <time>2013-04-03T07:12:38Z</time>
      </trkpt>
      <trkpt lat="42.883742" lon="1.450463">
        <ele>1575.3</ele>
        <time>2013-04-03T07:12:48Z</time>
      </trkpt>
      <trkpt lat="42.883691" lon="1.450570">
        <ele>1574.8</ele>
        <time>2013-04-03T07:12:57Z</time>
      </trkpt>
      <trkpt lat="42.883645" lon="1.450689">
        <ele>1575.3</ele>
        <time>2013-04-03T07:13:06Z</time>
      </trkpt>
      <trkpt lat="42.883600" lon="1.450800">
        <ele>1575.3</ele>
        <time>2013-04-03T07:13:14Z</time>
      </trkpt>
      <trkpt lat="42.883551" lon="1.450918">
        <ele>1575.3</ele>
        <time>2013-04-03T07:13:22Z</time>
      </trkpt>
      <trkpt lat="42.883499" lon="1.451041">
        <ele>1574.8</ele>
        <time>2013-04-03T07:13:30Z</time>
      </trkpt>
      <trkpt lat="42.883445" lon="1.451157">
        <ele>1574.3</ele>
        <time>2013-04-03T07:13:38Z</time>
      </trkpt>
      <trkpt lat="42.883403" lon="1.451265">
        <ele>1574.3</ele>
        <time>2013-04-03T07:13:46Z</time>
      </trkpt>
      <trkpt lat="42.883337" lon="1.451380">
        <ele>1573.8</ele>
        <time>2013-04-03T07:13:55Z</time>
      </trkpt>
      <trkpt lat="42.883265" lon="1.451468">
        <ele>1573.3</ele>
        <time>2013-04-03T07:14:02Z</time>
      </trkpt>
      <trkpt lat="42.883189" lon="1.451547">
        <ele>1572.8</ele>
        <time>2013-04-03T07:14:09Z</time>
      </trkpt>
      <trkpt lat="42.883111" lon="1.451629">
        <ele>1573.3</ele>
        <time>2013-04-03T07:14:17Z</time>
      </trkpt>
      <trkpt lat="42.883038" lon="1.451696">
        <ele>1573.3</ele>
        <time>2013-04-03T07:14:24Z</time>
      </trkpt>
      <trkpt lat="42.882968" lon="1.451774">
        <ele>1572.8</ele>
        <time>2013-04-03T07:14:31Z</time>
      </trkpt>
      <trkpt lat="42.882895" lon="1.451855">
        <ele>1573.3</ele>
        <time>2013-04-03T07:14:39Z</time>
      </trkpt>
      <trkpt lat="42.882811" lon="1.451927">
        <ele>1574.3</ele>
        <time>2013-04-03T07:14:47Z</time>
      </trkpt>
      <trkpt lat="42.882727" lon="1.451984">
        <ele>1574.3</ele>
        <time>2013-04-03T07:14:55Z</time>
      </trkpt>
      <trkpt lat="42.882644" lon="1.452031">
        <ele>1575.3</ele>
        <time>2013-04-03T07:15:03Z</time>
      </trkpt>
      <trkpt lat="42.882553" lon="1.452078">
        <ele>1576.2</ele>
        <time>2013-04-03T07:15:12Z</time>
      </trkpt>
      <trkpt lat="42.882454" lon="1.452127">
        <ele>1577.2</ele>
        <time>2013-04-03T07:15:21Z</time>
      </trkpt>
      <trkpt lat="42.882361" lon="1.452168">
        <ele>1578.1</ele>
        <time>2013-04-03T07:15:29Z</time>
      </trkpt>
      <trkpt lat="42.882275" lon="1.452201">
        <ele>1579.1</ele>
        <time>2013-04-03T07:15:37Z</time>
      </trkpt>
      <trkpt lat="42.882186" lon="1.452225">
        <ele>1579.6</ele>
        <time>2013-04-03T07:15:45Z</time>
      </trkpt>
      <trkpt lat="42.882091" lon="1.452266">
        <ele>1580.1</ele>
        <time>2013-04-03T07:15:54Z</time>
      </trkpt>
      <trkpt lat="42.881999" lon="1.452296">
        <ele>1581.0</ele>
        <time>2013-04-03T07:16:03Z</time>
      </trkpt>
      <trkpt lat="42.881908" lon="1.452334">
        <ele>1581.5</ele>
        <time>2013-04-03T07:16:13Z</time>
      </trkpt>
      <trkpt lat="42.881810" lon="1.452350">
        <ele>1582.5</ele>
        <time>2013-04-03T07:16:23Z</time>
      </trkpt>
      <trkpt lat="42.881718" lon="1.452368">
        <ele>1583.4</ele>
        <time>2013-04-03T07:16:32Z</time>
      </trkpt>
      <trkpt lat="42.881620" lon="1.452397">
        <ele>1584.4</ele>
        <time>2013-04-03T07:16:41Z</time>
      </trkpt>
      <trkpt lat="42.881531" lon="1.452423">
        <ele>1584.4</ele>
        <time>2013-04-03T07:16:50Z</time>
      </trkpt>
      <trkpt lat="42.881435" lon="1.452455">
        <ele>1585.8</ele>
        <time>2013-04-03T07:17:00Z</time>
      </trkpt>
      <trkpt lat="42.881342" lon="1.452475">
        <ele>1586.8</ele>
        <time>2013-04-03T07:17:10Z</time>
      </trkpt>
      <trkpt lat="42.881241" lon="1.452483">
        <ele>1586.8</ele>
        <time>2013-04-03T07:17:20Z</time>
      </trkpt>
      <trkpt lat="42.881142" lon="1.452499">
        <ele>1587.3</ele>
        <time>2013-04-03T07:17:29Z</time>
      </trkpt>
      <trkpt lat="42.881045" lon="1.452518">
        <ele>1587.3</ele>
        <time>2013-04-03T07:17:38Z</time>
      </trkpt>
      <trkpt lat="42.880945" lon="1.452534">
        <ele>1587.3</ele>
        <time>2013-04-03T07:17:47Z</time>
      </trkpt>
      <trkpt lat="42.880854" lon="1.452542">
        <ele>1587.3</ele>
        <time>2013-04-03T07:17:55Z</time>
      </trkpt>
      <trkpt lat="42.880765" lon="1.452560">
        <ele>1587.8</ele>
        <time>2013-04-03T07:18:04Z</time>
      </trkpt>
      <trkpt lat="42.880675" lon="1.452591">
        <ele>1588.2</ele>
        <time>2013-04-03T07:18:13Z</time>
      </trkpt>
      <trkpt lat="42.880582" lon="1.452625">
        <ele>1588.7</ele>
        <time>2013-04-03T07:18:23Z</time>
      </trkpt>
      <trkpt lat="42.880475" lon="1.452621">
        <ele>1589.2</ele>
        <time>2013-04-03T07:18:33Z</time>
      </trkpt>
      <trkpt lat="42.880387" lon="1.452621">
        <ele>1589.7</ele>
        <time>2013-04-03T07:18:42Z</time>
      </trkpt>
      <trkpt lat="42.880299" lon="1.452640">
        <ele>1590.6</ele>
        <time>2013-04-03T07:18:52Z</time>
      </trkpt>
      <trkpt lat="42.880206" lon="1.452643">
        <ele>1590.6</ele>
        <time>2013-04-03T07:19:02Z</time>
      </trkpt>
      <trkpt lat="42.880103" lon="1.452655">
        <ele>1590.2</ele>
        <time>2013-04-03T07:19:13Z</time>
      </trkpt>
      <trkpt lat="42.880003" lon="1.452663">
        <ele>1590.6</ele>
        <time>2013-04-03T07:19:23Z</time>
      </trkpt>
      <trkpt lat="42.879905" lon="1.452671">
        <ele>1591.1</ele>
        <time>2013-04-03T07:19:33Z</time>
      </trkpt>
      <trkpt lat="42.879817" lon="1.452702">
        <ele>1591.6</ele>
        <time>2013-04-03T07:19:43Z</time>
      </trkpt>
      <trkpt lat="42.879724" lon="1.452717">
        <ele>1592.1</ele>
        <time>2013-04-03T07:20:00Z</time>
      </trkpt>
      <trkpt lat="42.879645" lon="1.452757">
        <ele>1592.6</ele>
        <time>2013-04-03T07:20:10Z</time>
      </trkpt>
      <trkpt lat="42.879548" lon="1.452775">
        <ele>1593.5</ele>
        <time>2013-04-03T07:20:20Z</time>
      </trkpt>
      <trkpt lat="42.879452" lon="1.452797">
        <ele>1593.5</ele>
        <time>2013-04-03T07:20:30Z</time>
      </trkpt>
      <trkpt lat="42.879359" lon="1.452818">
        <ele>1594.0</ele>
        <time>2013-04-03T07:20:39Z</time>
      </trkpt>
      <trkpt lat="42.879268" lon="1.452827">
        <ele>1594.5</ele>
        <time>2013-04-03T07:20:49Z</time>
      </trkpt>
      <trkpt lat="42.879187" lon="1.452856">
        <ele>1595.4</ele>
        <time>2013-04-03T07:21:01Z</time>
      </trkpt>
      <trkpt lat="42.879093" lon="1.452876">
        <ele>1595.9</ele>
        <time>2013-04-03T07:21:13Z</time>
      </trkpt>
      <trkpt lat="42.878995" lon="1.452883">
        <ele>1596.4</ele>
        <time>2013-04-03T07:21:23Z</time>
      </trkpt>
      <trkpt lat="42.878896" lon="1.452907">
        <ele>1597.4</ele>
        <time>2013-04-03T07:21:34Z</time>
      </trkpt>
      <trkpt lat="42.878809" lon="1.452937">
        <ele>1597.8</ele>
        <time>2013-04-03T07:21:45Z</time>
      </trkpt>
      <trkpt lat="42.878711" lon="1.452950">
        <ele>1598.3</ele>
        <time>2013-04-03T07:21:54Z</time>
      </trkpt>
      <trkpt lat="42.878615" lon="1.452953">
        <ele>1598.3</ele>
        <time>2013-04-03T07:22:03Z</time>
      </trkpt>
      <trkpt lat="42.878521" lon="1.452951">
        <ele>1598.3</ele>
        <time>2013-04-03T07:22:11Z</time>
      </trkpt>
      <trkpt lat="42.878423" lon="1.452956">
        <ele>1598.8</ele>
        <time>2013-04-03T07:22:21Z</time>
      </trkpt>
      <trkpt lat="42.878322" lon="1.452942">
        <ele>1599.3</ele>
        <time>2013-04-03T07:22:30Z</time>
      </trkpt>
      <trkpt lat="42.878231" lon="1.452916">
        <ele>1597.8</ele>
        <time>2013-04-03T07:22:38Z</time>
      </trkpt>
      <trkpt lat="42.878134" lon="1.452911">
        <ele>1597.8</ele>
        <time>2013-04-03T07:22:47Z</time>
      </trkpt>
      <trkpt lat="42.878044" lon="1.452897">
        <ele>1598.3</ele>
        <time>2013-04-03T07:22:55Z</time>
      </trkpt>
      <trkpt lat="42.877945" lon="1.452896">
        <ele>1598.8</ele>
        <time>2013-04-03T07:23:04Z</time>
      </trkpt>
      <trkpt lat="42.877847" lon="1.452904">
        <ele>1599.3</ele>
        <time>2013-04-03T07:23:13Z</time>
      </trkpt>
      <trkpt lat="42.877756" lon="1.452912">
        <ele>1599.8</ele>
        <time>2013-04-03T07:23:23Z</time>
      </trkpt>
      <trkpt lat="42.877659" lon="1.452882">
        <ele>1600.2</ele>
        <time>2013-04-03T07:23:32Z</time>
      </trkpt>
      <trkpt lat="42.877565" lon="1.452851">
        <ele>1600.7</ele>
        <time>2013-04-03T07:23:41Z</time>
      </trkpt>
      <trkpt lat="42.877473" lon="1.452834">
        <ele>1600.7</ele>
        <time>2013-04-03T07:23:50Z</time>
      </trkpt>
      <trkpt lat="42.877384" lon="1.452803">
        <ele>1601.2</ele>
        <time>2013-04-03T07:23:59Z</time>
      </trkpt>
      <trkpt lat="42.877291" lon="1.452775">
        <ele>1601.7</ele>
        <time>2013-04-03T07:24:08Z</time>
      </trkpt>
      <trkpt lat="42.877191" lon="1.452738">
        <ele>1602.2</ele>
        <time>2013-04-03T07:24:17Z</time>
      </trkpt>
      <trkpt lat="42.877100" lon="1.452708">
        <ele>1602.2</ele>
        <time>2013-04-03T07:24:25Z</time>
      </trkpt>
      <trkpt lat="42.877017" lon="1.452663">
        <ele>1602.2</ele>
        <time>2013-04-03T07:24:33Z</time>
      </trkpt>
      <trkpt lat="42.876927" lon="1.452637">
        <ele>1602.2</ele>
        <time>2013-04-03T07:24:41Z</time>
      </trkpt>
      <trkpt lat="42.876842" lon="1.452597">
        <ele>1602.2</ele>
        <time>2013-04-03T07:24:50Z</time>
      </trkpt>
      <trkpt lat="42.876756" lon="1.452556">
        <ele>1602.2</ele>
        <time>2013-04-03T07:24:59Z</time>
      </trkpt>
      <trkpt lat="42.876658" lon="1.452513">
        <ele>1602.2</ele>
        <time>2013-04-03T07:25:08Z</time>
      </trkpt>
      <trkpt lat="42.876567" lon="1.452471">
        <ele>1602.7</ele>
        <time>2013-04-03T07:25:17Z</time>
      </trkpt>
      <trkpt lat="42.876478" lon="1.452430">
        <ele>1603.6</ele>
        <time>2013-04-03T07:25:26Z</time>
      </trkpt>
      <trkpt lat="42.876379" lon="1.452412">
        <ele>1604.1</ele>
        <time>2013-04-03T07:25:36Z</time>
      </trkpt>
      <trkpt lat="42.876281" lon="1.452385">
        <ele>1603.6</ele>
        <time>2013-04-03T07:25:46Z</time>
      </trkpt>
      <trkpt lat="42.876182" lon="1.452369">
        <ele>1604.6</ele>
        <time>2013-04-03T07:25:56Z</time>
      </trkpt>
      <trkpt lat="42.876081" lon="1.452353">
        <ele>1605.5</ele>
        <time>2013-04-03T07:26:06Z</time>
      </trkpt>
      <trkpt lat="42.875982" lon="1.452338">
        <ele>1606.5</ele>
        <time>2013-04-03T07:26:16Z</time>
      </trkpt>
      <trkpt lat="42.875890" lon="1.452318">
        <ele>1607.0</ele>
        <time>2013-04-03T07:26:26Z</time>
      </trkpt>
      <trkpt lat="42.875803" lon="1.452316">
        <ele>1607.9</ele>
        <time>2013-04-03T07:26:37Z</time>
      </trkpt>
      <trkpt lat="42.875703" lon="1.452303">
        <ele>1608.4</ele>
        <time>2013-04-03T07:26:46Z</time>
      </trkpt>
      <trkpt lat="42.875609" lon="1.452262">
        <ele>1612.3</ele>
        <time>2013-04-03T07:26:55Z</time>
      </trkpt>
      <trkpt lat="42.875518" lon="1.452224">
        <ele>1607.9</ele>
        <time>2013-04-03T07:27:04Z</time>
      </trkpt>
      <trkpt lat="42.875434" lon="1.452207">
        <ele>1609.4</ele>
        <time>2013-04-03T07:27:14Z</time>
      </trkpt>
      <trkpt lat="42.875335" lon="1.452185">
        <ele>1609.4</ele>
        <time>2013-04-03T07:27:23Z</time>
      </trkpt>
      <trkpt lat="42.875229" lon="1.452154">
        <ele>1609.9</ele>
        <time>2013-04-03T07:27:32Z</time>
      </trkpt>
      <trkpt lat="42.875140" lon="1.452135">
        <ele>1610.3</ele>
        <time>2013-04-03T07:27:42Z</time>
      </trkpt>
      <trkpt lat="42.875057" lon="1.452111">
        <ele>1610.3</ele>
        <time>2013-04-03T07:29:09Z</time>
      </trkpt>
      <trkpt lat="42.874963" lon="1.452101">
        <ele>1610.8</ele>
        <time>2013-04-03T07:29:19Z</time>
      </trkpt>
      <trkpt lat="42.874867" lon="1.452100">
        <ele>1610.8</ele>
        <time>2013-04-03T07:29:28Z</time>
      </trkpt>
      <trkpt lat="42.874769" lon="1.452105">
        <ele>1610.8</ele>
        <time>2013-04-03T07:29:37Z</time>
      </trkpt>
      <trkpt lat="42.874677" lon="1.452114">
        <ele>1611.3</ele>
        <time>2013-04-03T07:29:46Z</time>
      </trkpt>
      <trkpt lat="42.874586" lon="1.452111">
        <ele>1610.8</ele>
        <time>2013-04-03T07:29:56Z</time>
      </trkpt>
      <trkpt lat="42.874487" lon="1.452102">
        <ele>1610.3</ele>
        <time>2013-04-03T07:30:05Z</time>
      </trkpt>
      <trkpt lat="42.874386" lon="1.452093">
        <ele>1609.9</ele>
        <time>2013-04-03T07:30:14Z</time>
      </trkpt>
      <trkpt lat="42.874285" lon="1.452092">
        <ele>1608.9</ele>
        <time>2013-04-03T07:30:23Z</time>
      </trkpt>
      <trkpt lat="42.874191" lon="1.452083">
        <ele>1607.9</ele>
        <time>2013-04-03T07:30:31Z</time>
      </trkpt>
      <trkpt lat="42.874095" lon="1.452088">
        <ele>1607.5</ele>
        <time>2013-04-03T07:30:39Z</time>
      </trkpt>
      <trkpt lat="42.873993" lon="1.452087">
        <ele>1606.5</ele>
        <time>2013-04-03T07:30:47Z</time>
      </trkpt>
      <trkpt lat="42.873905" lon="1.452098">
        <ele>1606.5</ele>
        <time>2013-04-03T07:30:54Z</time>
      </trkpt>
      <trkpt lat="42.873810" lon="1.452099">
        <ele>1605.5</ele>
        <time>2013-04-03T07:31:02Z</time>
      </trkpt>
      <trkpt lat="42.873712" lon="1.452088">
        <ele>1605.1</ele>
        <time>2013-04-03T07:31:10Z</time>
      </trkpt>
      <trkpt lat="42.873614" lon="1.452084">
        <ele>1603.1</ele>
        <time>2013-04-03T07:31:18Z</time>
      </trkpt>
      <trkpt lat="42.873513" lon="1.452073">
        <ele>1601.7</ele>
        <time>2013-04-03T07:31:26Z</time>
      </trkpt>
      <trkpt lat="42.873419" lon="1.452052">
        <ele>1601.2</ele>
        <time>2013-04-03T07:31:33Z</time>
      </trkpt>
      <trkpt lat="42.873333" lon="1.452031">
        <ele>1599.8</ele>
        <time>2013-04-03T07:31:40Z</time>
      </trkpt>
      <trkpt lat="42.873237" lon="1.451998">
        <ele>1599.3</ele>
        <time>2013-04-03T07:31:48Z</time>
      </trkpt>
      <trkpt lat="42.873143" lon="1.451973">
        <ele>1598.8</ele>
        <time>2013-04-03T07:31:56Z</time>
      </trkpt>
      <trkpt lat="42.873050" lon="1.451954">
        <ele>1598.3</ele>
        <time>2013-04-03T07:32:04Z</time>
      </trkpt>
      <trkpt lat="42.872952" lon="1.451946">
        <ele>1597.8</ele>
        <time>2013-04-03T07:32:12Z</time>
      </trkpt>
      <trkpt lat="42.872854" lon="1.451930">
        <ele>1597.4</ele>
        <time>2013-04-03T07:32:20Z</time>
      </trkpt>
      <trkpt lat="42.872753" lon="1.451898">
        <ele>1596.4</ele>
        <time>2013-04-03T07:32:28Z</time>
      </trkpt>
      <trkpt lat="42.872667" lon="1.451866">
        <ele>1595.0</ele>
        <time>2013-04-03T07:32:35Z</time>
      </trkpt>
      <trkpt lat="42.872569" lon="1.451849">
        <ele>1594.5</ele>
        <time>2013-04-03T07:32:43Z</time>
      </trkpt>
      <trkpt lat="42.872480" lon="1.451808">
        <ele>1593.5</ele>
        <time>2013-04-03T07:32:50Z</time>
      </trkpt>
      <trkpt lat="42.872397" lon="1.451758">
        <ele>1593.5</ele>
        <time>2013-04-03T07:32:57Z</time>
      </trkpt>
      <trkpt lat="42.872313" lon="1.451697">
        <ele>1594.0</ele>
        <time>2013-04-03T07:33:05Z</time>
      </trkpt>
      <trkpt lat="42.872223" lon="1.451635">
        <ele>1595.0</ele>
        <time>2013-04-03T07:33:13Z</time>
      </trkpt>
      <trkpt lat="42.872138" lon="1.451590">
        <ele>1595.4</ele>
        <time>2013-04-03T07:33:21Z</time>
      </trkpt>
      <trkpt lat="42.872056" lon="1.451532">
        <ele>1596.4</ele>
        <time>2013-04-03T07:33:30Z</time>
      </trkpt>
      <trkpt lat="42.871986" lon="1.451454">
        <ele>1596.9</ele>
        <time>2013-04-03T07:33:38Z</time>
      </trkpt>
      <trkpt lat="42.871899" lon="1.451390">
        <ele>1597.4</ele>
        <time>2013-04-03T07:33:47Z</time>
      </trkpt>
      <trkpt lat="42.871825" lon="1.451319">
        <ele>1598.3</ele>
        <time>2013-04-03T07:33:55Z</time>
      </trkpt>
      <trkpt lat="42.871748" lon="1.451251">
        <ele>1598.3</ele>
        <time>2013-04-03T07:34:04Z</time>
      </trkpt>
      <trkpt lat="42.871661" lon="1.451183">
        <ele>1599.3</ele>
        <time>2013-04-03T07:34:14Z</time>
      </trkpt>
      <trkpt lat="42.871570" lon="1.451118">
        <ele>1599.3</ele>
        <time>2013-04-03T07:34:23Z</time>
      </trkpt>
      <trkpt lat="42.871489" lon="1.451051">
        <ele>1599.8</ele>
        <time>2013-04-03T07:34:32Z</time>
      </trkpt>
      <trkpt lat="42.871401" lon="1.450985">
        <ele>1600.7</ele>
        <time>2013-04-03T07:34:41Z</time>
      </trkpt>
      <trkpt lat="42.871321" lon="1.450907">
        <ele>1600.7</ele>
        <time>2013-04-03T07:34:49Z</time>
      </trkpt>
      <trkpt lat="42.871244" lon="1.450822">
        <ele>1599.8</ele>
        <time>2013-04-03T07:34:57Z</time>
      </trkpt>
      <trkpt lat="42.871178" lon="1.450729">
        <ele>1597.4</ele>
        <time>2013-04-03T07:35:04Z</time>
      </trkpt>
      <trkpt lat="42.871109" lon="1.450641">
        <ele>1595.0</ele>
        <time>2013-04-03T07:35:11Z</time>
      </trkpt>
      <trkpt lat="42.871040" lon="1.450548">
        <ele>1595.0</ele>
        <time>2013-04-03T07:35:19Z</time>
      </trkpt>
      <trkpt lat="42.870950" lon="1.450528">
        <ele>1595.9</ele>
        <time>2013-04-03T07:35:27Z</time>
      </trkpt>
      <trkpt lat="42.870861" lon="1.450504">
        <ele>1595.9</ele>
        <time>2013-04-03T07:35:34Z</time>
      </trkpt>
      <trkpt lat="42.870772" lon="1.450440">
        <ele>1595.0</ele>
        <time>2013-04-03T07:35:41Z</time>
      </trkpt>
      <trkpt lat="42.870679" lon="1.450411">
        <ele>1595.4</ele>
        <time>2013-04-03T07:35:49Z</time>
      </trkpt>
      <trkpt lat="42.870586" lon="1.450387">
        <ele>1596.9</ele>
        <time>2013-04-03T07:35:58Z</time>
      </trkpt>
      <trkpt lat="42.870497" lon="1.450333">
        <ele>1598.8</ele>
        <time>2013-04-03T07:36:09Z</time>
      </trkpt>
      <trkpt lat="42.870413" lon="1.450285">
        <ele>1601.2</ele>
        <time>2013-04-03T07:36:20Z</time>
      </trkpt>
      <trkpt lat="42.870328" lon="1.450236">
        <ele>1604.1</ele>
        <time>2013-04-03T07:36:31Z</time>
      </trkpt>
      <trkpt lat="42.870267" lon="1.450179">
        <ele>1605.1</ele>
        <time>2013-04-03T07:37:01Z</time>
      </trkpt>
      <trkpt lat="42.870176" lon="1.450146">
        <ele>1606.0</ele>
        <time>2013-04-03T07:37:33Z</time>
      </trkpt>
      <trkpt lat="42.870090" lon="1.450111">
        <ele>1607.9</ele>
        <time>2013-04-03T07:37:46Z</time>
      </trkpt>
      <trkpt lat="42.869993" lon="1.450125">
        <ele>1609.9</ele>
        <time>2013-04-03T07:38:00Z</time>
      </trkpt>
      <trkpt lat="42.869905" lon="1.450155">
        <ele>1612.8</ele>
        <time>2013-04-03T07:38:13Z</time>
      </trkpt>
      <trkpt lat="42.869825" lon="1.450169">
        <ele>1614.2</ele>
        <time>2013-04-03T07:38:31Z</time>
      </trkpt>
      <trkpt lat="42.869743" lon="1.450195">
        <ele>1616.6</ele>
        <time>2013-04-03T07:38:44Z</time>
      </trkpt>
      <trkpt lat="42.869655" lon="1.450193">
        <ele>1618.5</ele>
        <time>2013-04-03T07:38:58Z</time>
      </trkpt>
      <trkpt lat="42.869556" lon="1.450196">
        <ele>1620.9</ele>
        <time>2013-04-03T07:39:13Z</time>
      </trkpt>
      <trkpt lat="42.869472" lon="1.450176">
        <ele>1624.3</ele>
        <time>2013-04-03T07:39:30Z</time>
      </trkpt>
      <trkpt lat="42.869374" lon="1.450176">
        <ele>1626.2</ele>
        <time>2013-04-03T07:39:46Z</time>
      </trkpt>
      <trkpt lat="42.869290" lon="1.450174">
        <ele>1629.6</ele>
        <time>2013-04-03T07:40:03Z</time>
      </trkpt>
      <trkpt lat="42.869205" lon="1.450162">
        <ele>1632.5</ele>
        <time>2013-04-03T07:40:21Z</time>
      </trkpt>
      <trkpt lat="42.869120" lon="1.450160">
        <ele>1635.8</ele>
        <time>2013-04-03T07:40:40Z</time>
      </trkpt>
      <trkpt lat="42.869021" lon="1.450148">
        <ele>1639.2</ele>
        <time>2013-04-03T07:40:58Z</time>
      </trkpt>
      <trkpt lat="42.868936" lon="1.450138">
        <ele>1643.0</ele>
        <time>2013-04-03T07:41:20Z</time>
      </trkpt>
      <trkpt lat="42.868860" lon="1.450121">
        <ele>1646.4</ele>
        <time>2013-04-03T07:41:42Z</time>
      </trkpt>
      <trkpt lat="42.868780" lon="1.450101">
        <ele>1649.8</ele>
        <time>2013-04-03T07:42:03Z</time>
      </trkpt>
      <trkpt lat="42.868700" lon="1.450091">
        <ele>1653.6</ele>
        <time>2013-04-03T07:42:23Z</time>
      </trkpt>
      <trkpt lat="42.868620" lon="1.450098">
        <ele>1657.9</ele>
        <time>2013-04-03T07:42:43Z</time>
      </trkpt>
      <trkpt lat="42.868536" lon="1.450116">
        <ele>1660.3</ele>
        <time>2013-04-03T07:42:59Z</time>
      </trkpt>
      <trkpt lat="42.868455" lon="1.450143">
        <ele>1663.2</ele>
        <time>2013-04-03T07:43:14Z</time>
      </trkpt>
      <trkpt lat="42.868367" lon="1.450147">
        <ele>1666.1</ele>
        <time>2013-04-03T07:43:32Z</time>
      </trkpt>
      <trkpt lat="42.868281" lon="1.450165">
        <ele>1669.0</ele>
        <time>2013-04-03T07:43:45Z</time>
      </trkpt>
      <trkpt lat="42.868183" lon="1.450164">
        <ele>1671.4</ele>
        <time>2013-04-03T07:43:58Z</time>
      </trkpt>
      <trkpt lat="42.868088" lon="1.450160">
        <ele>1672.8</ele>
        <time>2013-04-03T07:44:10Z</time>
      </trkpt>
      <trkpt lat="42.867998" lon="1.450140">
        <ele>1674.3</ele>
        <time>2013-04-03T07:44:22Z</time>
      </trkpt>
      <trkpt lat="42.867908" lon="1.450143">
        <ele>1675.7</ele>
        <time>2013-04-03T07:44:35Z</time>
      </trkpt>
      <trkpt lat="42.867824" lon="1.450120">
        <ele>1677.2</ele>
        <time>2013-04-03T07:44:48Z</time>
      </trkpt>
      <trkpt lat="42.867737" lon="1.450146">
        <ele>1678.1</ele>
        <time>2013-04-03T07:44:59Z</time>
      </trkpt>
      <trkpt lat="42.867647" lon="1.450179">
        <ele>1679.6</ele>
        <time>2013-04-03T07:45:10Z</time>
      </trkpt>
      <trkpt lat="42.867568" lon="1.450169">
        <ele>1680.5</ele>
        <time>2013-04-03T07:45:22Z</time>
      </trkpt>
      <trkpt lat="42.867481" lon="1.450182">
        <ele>1682.4</ele>
        <time>2013-04-03T07:45:35Z</time>
      </trkpt>
      <trkpt lat="42.867393" lon="1.450203">
        <ele>1684.4</ele>
        <time>2013-04-03T07:45:48Z</time>
      </trkpt>
      <trkpt lat="42.867308" lon="1.450229">
        <ele>1686.3</ele>
        <time>2013-04-03T07:46:03Z</time>
      </trkpt>
      <trkpt lat="42.867226" lon="1.450237">
        <ele>1689.7</ele>
        <time>2013-04-03T07:46:19Z</time>
      </trkpt>
      <trkpt lat="42.867145" lon="1.450276">
        <ele>1692.5</ele>
        <time>2013-04-03T07:46:34Z</time>
      </trkpt>
      <trkpt lat="42.867060" lon="1.450292">
        <ele>1695.4</ele>
        <time>2013-04-03T07:46:51Z</time>
      </trkpt>
      <trkpt lat="42.866972" lon="1.450309">
        <ele>1698.8</ele>
        <time>2013-04-03T07:47:08Z</time>
      </trkpt>
      <trkpt lat="42.866891" lon="1.450351">
        <ele>1702.2</ele>
        <time>2013-04-03T07:47:24Z</time>
      </trkpt>
      <trkpt lat="42.866813" lon="1.450363">
        <ele>1705.5</ele>
        <time>2013-04-03T07:47:43Z</time>
      </trkpt>
      <trkpt lat="42.866729" lon="1.450375">
        <ele>1709.4</ele>
        <time>2013-04-03T07:48:02Z</time>
      </trkpt>
      <trkpt lat="42.866657" lon="1.450388">
        <ele>1712.2</ele>
        <time>2013-04-03T07:48:21Z</time>
      </trkpt>
      <trkpt lat="42.866570" lon="1.450423">
        <ele>1717.1</ele>
        <time>2013-04-03T07:48:48Z</time>
      </trkpt>
      <trkpt lat="42.866472" lon="1.450430">
        <ele>1721.9</ele>
        <time>2013-04-03T07:49:11Z</time>
      </trkpt>
      <trkpt lat="42.866389" lon="1.450399">
        <ele>1724.3</ele>
        <time>2013-04-03T07:49:31Z</time>
      </trkpt>
      <trkpt lat="42.866317" lon="1.450408">
        <ele>1727.2</ele>
        <time>2013-04-03T07:49:48Z</time>
      </trkpt>
      <trkpt lat="42.866242" lon="1.450365">
        <ele>1731.5</ele>
        <time>2013-04-03T07:50:11Z</time>
      </trkpt>
      <trkpt lat="42.866165" lon="1.450374">
        <ele>1735.3</ele>
        <time>2013-04-03T07:50:28Z</time>
      </trkpt>
      <trkpt lat="42.866095" lon="1.450351">
        <ele>1736.8</ele>
        <time>2013-04-03T07:50:46Z</time>
      </trkpt>
      <trkpt lat="42.866028" lon="1.450303">
        <ele>1740.6</ele>
        <time>2013-04-03T07:51:03Z</time>
      </trkpt>
      <trkpt lat="42.865944" lon="1.450312">
        <ele>1744.4</ele>
        <time>2013-04-03T07:51:24Z</time>
      </trkpt>
      <trkpt lat="42.865863" lon="1.450329">
        <ele>1747.8</ele>
        <time>2013-04-03T07:51:45Z</time>
      </trkpt>
      <trkpt lat="42.865782" lon="1.450294">
        <ele>1750.2</ele>
        <time>2013-04-03T07:52:00Z</time>
      </trkpt>
      <trkpt lat="42.865692" lon="1.450269">
        <ele>1753.6</ele>
        <time>2013-04-03T07:52:15Z</time>
      </trkpt>
      <trkpt lat="42.865616" lon="1.450263">
        <ele>1756.0</ele>
        <time>2013-04-03T07:53:00Z</time>
      </trkpt>
      <trkpt lat="42.865545" lon="1.450266">
        <ele>1759.3</ele>
        <time>2013-04-03T07:53:14Z</time>
      </trkpt>
      <trkpt lat="42.865480" lon="1.450273">
        <ele>1764.6</ele>
        <time>2013-04-03T07:53:31Z</time>
      </trkpt>
      <trkpt lat="42.865407" lon="1.450327">
        <ele>1768.0</ele>
        <time>2013-04-03T07:53:46Z</time>
      </trkpt>
      <trkpt lat="42.865360" lon="1.450397">
        <ele>1772.3</ele>
        <time>2013-04-03T07:54:02Z</time>
      </trkpt>
      <trkpt lat="42.865279" lon="1.450394">
        <ele>1776.2</ele>
        <time>2013-04-03T07:54:19Z</time>
      </trkpt>
      <trkpt lat="42.865201" lon="1.450393">
        <ele>1779.5</ele>
        <time>2013-04-03T07:54:38Z</time>
      </trkpt>
      <trkpt lat="42.865148" lon="1.450484">
        <ele>1784.3</ele>
        <time>2013-04-03T07:55:00Z</time>
      </trkpt>
      <trkpt lat="42.865071" lon="1.450475">
        <ele>1786.3</ele>
        <time>2013-04-03T07:55:16Z</time>
      </trkpt>
      <trkpt lat="42.865000" lon="1.450486">
        <ele>1789.6</ele>
        <time>2013-04-03T07:55:33Z</time>
      </trkpt>
      <trkpt lat="42.864952" lon="1.450564">
        <ele>1792.5</ele>
        <time>2013-04-03T07:55:54Z</time>
      </trkpt>
      <trkpt lat="42.864898" lon="1.450659">
        <ele>1795.9</ele>
        <time>2013-04-03T07:56:10Z</time>
      </trkpt>
      <trkpt lat="42.864810" lon="1.450713">
        <ele>1798.8</ele>
        <time>2013-04-03T07:56:27Z</time>
      </trkpt>
      <trkpt lat="42.864729" lon="1.450756">
        <ele>1801.2</ele>
        <time>2013-04-03T07:56:46Z</time>
      </trkpt>
      <trkpt lat="42.864650" lon="1.450746">
        <ele>1803.1</ele>
        <time>2013-04-03T07:58:03Z</time>
      </trkpt>
      <trkpt lat="42.864581" lon="1.450672">
        <ele>1806.4</ele>
        <time>2013-04-03T07:58:17Z</time>
      </trkpt>
      <trkpt lat="42.864507" lon="1.450675">
        <ele>1808.9</ele>
        <time>2013-04-03T07:58:43Z</time>
      </trkpt>
      <trkpt lat="42.864409" lon="1.450675">
        <ele>1812.2</ele>
        <time>2013-04-03T07:58:59Z</time>
      </trkpt>
      <trkpt lat="42.864318" lon="1.450679">
        <ele>1814.6</ele>
        <time>2013-04-03T07:59:15Z</time>
      </trkpt>
      <trkpt lat="42.864225" lon="1.450679">
        <ele>1817.5</ele>
        <time>2013-04-03T07:59:30Z</time>
      </trkpt>
      <trkpt lat="42.864141" lon="1.450704">
        <ele>1820.9</ele>
        <time>2013-04-03T07:59:43Z</time>
      </trkpt>
      <trkpt lat="42.864049" lon="1.450691">
        <ele>1823.3</ele>
        <time>2013-04-03T07:59:57Z</time>
      </trkpt>
      <trkpt lat="42.864002" lon="1.450638">
        <ele>1824.7</ele>
        <time>2013-04-03T08:01:28Z</time>
      </trkpt>
      <trkpt lat="42.863948" lon="1.450629">
        <ele>1826.2</ele>
        <time>2013-04-03T08:03:02Z</time>
      </trkpt>
      <trkpt lat="42.863901" lon="1.450584">
        <ele>1825.2</ele>
        <time>2013-04-03T08:07:49Z</time>
      </trkpt>
      <trkpt lat="42.863819" lon="1.450503">
        <ele>1822.8</ele>
        <time>2013-04-03T08:07:58Z</time>
      </trkpt>
      <trkpt lat="42.863720" lon="1.450439">
        <ele>1822.3</ele>
        <time>2013-04-03T08:08:08Z</time>
      </trkpt>
      <trkpt lat="42.863627" lon="1.450386">
        <ele>1821.3</ele>
        <time>2013-04-03T08:08:17Z</time>
      </trkpt>
      <trkpt lat="42.863539" lon="1.450323">
        <ele>1820.4</ele>
        <time>2013-04-03T08:08:25Z</time>
      </trkpt>
      <trkpt lat="42.863451" lon="1.450243">
        <ele>1819.9</ele>
        <time>2013-04-03T08:08:34Z</time>
      </trkpt>
      <trkpt lat="42.863375" lon="1.450191">
        <ele>1820.9</ele>
        <time>2013-04-03T08:08:42Z</time>
      </trkpt>
      <trkpt lat="42.863298" lon="1.450130">
        <ele>1820.9</ele>
        <time>2013-04-03T08:08:50Z</time>
      </trkpt>
      <trkpt lat="42.863209" lon="1.450076">
        <ele>1820.9</ele>
        <time>2013-04-03T08:08:59Z</time>
      </trkpt>
      <trkpt lat="42.863140" lon="1.450028">
        <ele>1821.8</ele>
        <time>2013-04-03T08:09:11Z</time>
      </trkpt>
      <trkpt lat="42.863080" lon="1.450002">
        <ele>1822.3</ele>
        <time>2013-04-03T08:11:36Z</time>
      </trkpt>
      <trkpt lat="42.863064" lon="1.450015">
        <ele>1822.8</ele>
        <time>2013-04-03T08:13:06Z</time>
      </trkpt>
      <trkpt lat="42.862979" lon="1.450039">
        <ele>1825.2</ele>
        <time>2013-04-03T08:13:20Z</time>
      </trkpt>
      <trkpt lat="42.862845" lon="1.450070">
        <ele>1827.1</ele>
        <time>2013-04-03T08:13:35Z</time>
      </trkpt>
      <trkpt lat="42.862751" lon="1.450106">
        <ele>1828.6</ele>
        <time>2013-04-03T08:13:52Z</time>
      </trkpt>
      <trkpt lat="42.862676" lon="1.450156">
        <ele>1829.5</ele>
        <time>2013-04-03T08:14:06Z</time>
      </trkpt>
      <trkpt lat="42.862585" lon="1.450180">
        <ele>1831.4</ele>
        <time>2013-04-03T08:14:25Z</time>
      </trkpt>
      <trkpt lat="42.862475" lon="1.450232">
        <ele>1833.4</ele>
        <time>2013-04-03T08:14:45Z</time>
      </trkpt>
      <trkpt lat="42.862339" lon="1.450236">
        <ele>1836.3</ele>
        <time>2013-04-03T08:15:02Z</time>
      </trkpt>
      <trkpt lat="42.862267" lon="1.450222">
        <ele>1838.7</ele>
        <time>2013-04-03T08:15:19Z</time>
      </trkpt>
      <trkpt lat="42.862132" lon="1.450224">
        <ele>1840.6</ele>
        <time>2013-04-03T08:16:15Z</time>
      </trkpt>
      <trkpt lat="42.862115" lon="1.450187">
        <ele>1839.1</ele>
        <time>2013-04-03T08:17:05Z</time>
      </trkpt>
      <trkpt lat="42.862028" lon="1.450114">
        <ele>1838.7</ele>
        <time>2013-04-03T08:17:16Z</time>
      </trkpt>
      <trkpt lat="42.861935" lon="1.450064">
        <ele>1838.7</ele>
        <time>2013-04-03T08:17:33Z</time>
      </trkpt>
      <trkpt lat="42.861817" lon="1.450041">
        <ele>1839.6</ele>
        <time>2013-04-03T08:18:16Z</time>
      </trkpt>
      <trkpt lat="42.861741" lon="1.449943">
        <ele>1840.1</ele>
        <time>2013-04-03T08:20:27Z</time>
      </trkpt>
      <trkpt lat="42.861674" lon="1.449918">
        <ele>1842.0</ele>
        <time>2013-04-03T08:22:04Z</time>
      </trkpt>
      <trkpt lat="42.861620" lon="1.449949">
        <ele>1845.9</ele>
        <time>2013-04-03T08:23:53Z</time>
      </trkpt>
      <trkpt lat="42.861579" lon="1.450035">
        <ele>1851.6</ele>
        <time>2013-04-03T08:24:45Z</time>
      </trkpt>
      <trkpt lat="42.861558" lon="1.450111">
        <ele>1864.1</ele>
        <time>2013-04-03T08:26:50Z</time>
      </trkpt>
      <trkpt lat="42.861539" lon="1.450164">
        <ele>1868.9</ele>
        <time>2013-04-03T08:27:41Z</time>
      </trkpt>
      <trkpt lat="42.861494" lon="1.450266">
        <ele>1874.2</ele>
        <time>2013-04-03T08:28:36Z</time>
      </trkpt>
      <trkpt lat="42.861404" lon="1.450331">
        <ele>1879.0</ele>
        <time>2013-04-03T08:29:55Z</time>
      </trkpt>
      <trkpt lat="42.861319" lon="1.450241">
        <ele>1884.8</ele>
        <time>2013-04-03T08:35:04Z</time>
      </trkpt>
      <trkpt lat="42.861272" lon="1.450185">
        <ele>1890.6</ele>
        <time>2013-04-03T08:35:26Z</time>
      </trkpt>
      <trkpt lat="42.861189" lon="1.450163">
        <ele>1897.3</ele>
        <time>2013-04-03T08:36:10Z</time>
      </trkpt>
      <trkpt lat="42.861187" lon="1.450131">
        <ele>1899.7</ele>
        <time>2013-04-03T08:42:57Z</time>
      </trkpt>
      <trkpt lat="42.861118" lon="1.450179">
        <ele>1894.4</ele>
        <time>2013-04-03T08:44:51Z</time>
      </trkpt>
      <trkpt lat="42.861039" lon="1.450217">
        <ele>1888.7</ele>
        <time>2013-04-03T08:45:18Z</time>
      </trkpt>
      <trkpt lat="42.860973" lon="1.450258">
        <ele>1884.8</ele>
        <time>2013-04-03T08:46:18Z</time>
      </trkpt>
      <trkpt lat="42.860876" lon="1.450269">
        <ele>1879.0</ele>
        <time>2013-04-03T08:46:32Z</time>
      </trkpt>
      <trkpt lat="42.860798" lon="1.450289">
        <ele>1874.2</ele>
        <time>2013-04-03T08:47:01Z</time>
      </trkpt>
      <trkpt lat="42.860699" lon="1.450299">
        <ele>1869.4</ele>
        <time>2013-04-03T08:47:15Z</time>
      </trkpt>
      <trkpt lat="42.860611" lon="1.450269">
        <ele>1867.5</ele>
        <time>2013-04-03T08:47:33Z</time>
      </trkpt>
      <trkpt lat="42.860497" lon="1.450313">
        <ele>1865.1</ele>
        <time>2013-04-03T08:49:10Z</time>
      </trkpt>
      <trkpt lat="42.860415" lon="1.450375">
        <ele>1863.2</ele>
        <time>2013-04-03T08:49:21Z</time>
      </trkpt>
      <trkpt lat="42.860339" lon="1.450389">
        <ele>1865.1</ele>
        <time>2013-04-03T08:49:33Z</time>
      </trkpt>
      <trkpt lat="42.860273" lon="1.450377">
        <ele>1865.6</ele>
        <time>2013-04-03T08:49:56Z</time>
      </trkpt>
      <trkpt lat="42.860166" lon="1.450435">
        <ele>1865.1</ele>
        <time>2013-04-03T08:50:08Z</time>
      </trkpt>
      <trkpt lat="42.860125" lon="1.450462">
        <ele>1865.6</ele>
        <time>2013-04-03T08:53:31Z</time>
      </trkpt>
      <trkpt lat="42.860065" lon="1.450540">
        <ele>1867.5</ele>
        <time>2013-04-03T08:53:47Z</time>
      </trkpt>
      <trkpt lat="42.860035" lon="1.450624">
        <ele>1870.9</ele>
        <time>2013-04-03T08:55:23Z</time>
      </trkpt>
      <trkpt lat="42.859992" lon="1.450744">
        <ele>1874.2</ele>
        <time>2013-04-03T08:55:37Z</time>
      </trkpt>
      <trkpt lat="42.859971" lon="1.450878">
        <ele>1876.2</ele>
        <time>2013-04-03T08:55:50Z</time>
      </trkpt>
      <trkpt lat="42.859895" lon="1.450916">
        <ele>1878.1</ele>
        <time>2013-04-03T08:56:57Z</time>
      </trkpt>
      <trkpt lat="42.859826" lon="1.450948">
        <ele>1885.8</ele>
        <time>2013-04-03T08:57:23Z</time>
      </trkpt>
      <trkpt lat="42.859737" lon="1.450933">
        <ele>1893.9</ele>
        <time>2013-04-03T08:57:51Z</time>
      </trkpt>
      <trkpt lat="42.859649" lon="1.450935">
        <ele>1902.1</ele>
        <time>2013-04-03T08:58:28Z</time>
      </trkpt>
      <trkpt lat="42.859583" lon="1.450955">
        <ele>1908.3</ele>
        <time>2013-04-03T08:59:17Z</time>
      </trkpt>
      <trkpt lat="42.859510" lon="1.450935">
        <ele>1912.2</ele>
        <time>2013-04-03T09:01:06Z</time>
      </trkpt>
      <trkpt lat="42.859440" lon="1.450941">
        <ele>1919.9</ele>
        <time>2013-04-03T09:01:25Z</time>
      </trkpt>
      <trkpt lat="42.859372" lon="1.450923">
        <ele>1924.2</ele>
        <time>2013-04-03T09:02:30Z</time>
      </trkpt>
      <trkpt lat="42.859339" lon="1.450967">
        <ele>1927.1</ele>
        <time>2013-04-03T09:03:20Z</time>
      </trkpt>
      <trkpt lat="42.859305" lon="1.451074">
        <ele>1932.4</ele>
        <time>2013-04-03T09:03:44Z</time>
      </trkpt>
      <trkpt lat="42.859264" lon="1.451189">
        <ele>1937.2</ele>
        <time>2013-04-03T09:04:09Z</time>
      </trkpt>
      <trkpt lat="42.859193" lon="1.451262">
        <ele>1939.6</ele>
        <time>2013-04-03T09:04:38Z</time>
        <name>Pic de la journalade</name>
      </trkpt>
      <trkpt lat="42.859117" lon="1.451341">
        <ele>1942.5</ele>
        <time>2013-04-03T09:04:59Z</time>
      </trkpt>
      <trkpt lat="42.859080" lon="1.451247">
        <ele>1947.3</ele>
        <time>2013-04-03T09:05:18Z</time>
      </trkpt>
      <trkpt lat="42.859032" lon="1.451126">
        <ele>1950.2</ele>
        <time>2013-04-03T09:05:41Z</time>
      </trkpt>
      <trkpt lat="42.859047" lon="1.451117">
        <ele>1950.2</ele>
        <time>2013-04-03T09:11:40Z</time>
      </trkpt>
      <trkpt lat="42.858980" lon="1.451139">
        <ele>1949.2</ele>
        <time>2013-04-03T09:13:12Z</time>
      </trkpt>
      <trkpt lat="42.858909" lon="1.451209">
        <ele>1945.4</ele>
        <time>2013-04-03T09:13:23Z</time>
      </trkpt>
      <trkpt lat="42.858821" lon="1.451204">
        <ele>1942.0</ele>
        <time>2013-04-03T09:13:32Z</time>
      </trkpt>
      <trkpt lat="42.858728" lon="1.451201">
        <ele>1939.6</ele>
        <time>2013-04-03T09:13:43Z</time>
      </trkpt>
      <trkpt lat="42.858654" lon="1.451252">
        <ele>1937.7</ele>
        <time>2013-04-03T09:14:00Z</time>
      </trkpt>
      <trkpt lat="42.858563" lon="1.451265">
        <ele>1933.8</ele>
        <time>2013-04-03T09:14:16Z</time>
      </trkpt>
      <trkpt lat="42.858502" lon="1.451204">
        <ele>1930.5</ele>
        <time>2013-04-03T09:14:35Z</time>
      </trkpt>
      <trkpt lat="42.858407" lon="1.451172">
        <ele>1928.1</ele>
        <time>2013-04-03T09:14:46Z</time>
      </trkpt>
      <trkpt lat="42.858321" lon="1.451146">
        <ele>1926.1</ele>
        <time>2013-04-03T09:14:54Z</time>
      </trkpt>
      <trkpt lat="42.858238" lon="1.451079">
        <ele>1926.1</ele>
        <time>2013-04-03T09:15:04Z</time>
      </trkpt>
      <trkpt lat="42.858150" lon="1.451033">
        <ele>1925.2</ele>
        <time>2013-04-03T09:15:16Z</time>
      </trkpt>
      <trkpt lat="42.858072" lon="1.450951">
        <ele>1923.7</ele>
        <time>2013-04-03T09:15:26Z</time>
      </trkpt>
      <trkpt lat="42.858025" lon="1.450858">
        <ele>1925.7</ele>
        <time>2013-04-03T09:15:54Z</time>
      </trkpt>
      <trkpt lat="42.857950" lon="1.450816">
        <ele>1923.2</ele>
        <time>2013-04-03T09:17:00Z</time>
      </trkpt>
      <trkpt lat="42.857929" lon="1.450773">
        <ele>1923.7</ele>
        <time>2013-04-03T09:17:38Z</time>
      </trkpt>
      <trkpt lat="42.857891" lon="1.450650">
        <ele>1928.1</ele>
        <time>2013-04-03T09:18:07Z</time>
      </trkpt>
      <trkpt lat="42.857840" lon="1.450534">
        <ele>1928.5</ele>
        <time>2013-04-03T09:18:43Z</time>
      </trkpt>
      <trkpt lat="42.857801" lon="1.450441">
        <ele>1930.9</ele>
        <time>2013-04-03T09:20:00Z</time>
      </trkpt>
      <trkpt lat="42.857733" lon="1.450391">
        <ele>1928.5</ele>
        <time>2013-04-03T09:22:10Z</time>
      </trkpt>
      <trkpt lat="42.857662" lon="1.450340">
        <ele>1924.7</ele>
        <time>2013-04-03T09:22:30Z</time>
      </trkpt>
      <trkpt lat="42.857594" lon="1.450279">
        <ele>1923.2</ele>
        <time>2013-04-03T09:23:08Z</time>
      </trkpt>
      <trkpt lat="42.857523" lon="1.450197">
        <ele>1923.2</ele>
        <time>2013-04-03T09:23:18Z</time>
      </trkpt>
      <trkpt lat="42.857451" lon="1.450116">
        <ele>1921.8</ele>
        <time>2013-04-03T09:23:28Z</time>
      </trkpt>
      <trkpt lat="42.857396" lon="1.450035">
        <ele>1919.9</ele>
        <time>2013-04-03T09:24:19Z</time>
      </trkpt>
      <trkpt lat="42.857357" lon="1.449930">
        <ele>1920.8</ele>
        <time>2013-04-03T09:24:43Z</time>
      </trkpt>
      <trkpt lat="42.857335" lon="1.449822">
        <ele>1922.8</ele>
        <time>2013-04-03T09:24:59Z</time>
      </trkpt>
      <trkpt lat="42.857288" lon="1.449794">
        <ele>1921.8</ele>
        <time>2013-04-03T09:25:56Z</time>
      </trkpt>
      <trkpt lat="42.857215" lon="1.449708">
        <ele>1919.4</ele>
        <time>2013-04-03T09:26:07Z</time>
      </trkpt>
      <trkpt lat="42.857139" lon="1.449649">
        <ele>1916.5</ele>
        <time>2013-04-03T09:26:23Z</time>
      </trkpt>
      <trkpt lat="42.857049" lon="1.449618">
        <ele>1912.7</ele>
        <time>2013-04-03T09:26:35Z</time>
      </trkpt>
      <trkpt lat="42.856970" lon="1.449517">
        <ele>1911.2</ele>
        <time>2013-04-03T09:26:47Z</time>
      </trkpt>
      <trkpt lat="42.856886" lon="1.449445">
        <ele>1908.8</ele>
        <time>2013-04-03T09:27:00Z</time>
      </trkpt>
      <trkpt lat="42.856821" lon="1.449372">
        <ele>1904.5</ele>
        <time>2013-04-03T09:27:24Z</time>
      </trkpt>
      <trkpt lat="42.856750" lon="1.449300">
        <ele>1900.2</ele>
        <time>2013-04-03T09:27:38Z</time>
      </trkpt>
      <trkpt lat="42.856676" lon="1.449198">
        <ele>1899.2</ele>
        <time>2013-04-03T09:27:48Z</time>
      </trkpt>
      <trkpt lat="42.856623" lon="1.449119">
        <ele>1903.6</ele>
        <time>2013-04-03T09:29:11Z</time>
      </trkpt>
      <trkpt lat="42.856542" lon="1.449026">
        <ele>1899.2</ele>
        <time>2013-04-03T09:29:21Z</time>
      </trkpt>
      <trkpt lat="42.856464" lon="1.448943">
        <ele>1894.9</ele>
        <time>2013-04-03T09:29:30Z</time>
      </trkpt>
      <trkpt lat="42.856398" lon="1.448872">
        <ele>1892.5</ele>
        <time>2013-04-03T09:29:38Z</time>
      </trkpt>
      <trkpt lat="42.856336" lon="1.448784">
        <ele>1891.5</ele>
        <time>2013-04-03T09:29:47Z</time>
      </trkpt>
      <trkpt lat="42.856282" lon="1.448687">
        <ele>1891.1</ele>
        <time>2013-04-03T09:29:56Z</time>
      </trkpt>
      <trkpt lat="42.856223" lon="1.448575">
        <ele>1891.1</ele>
        <time>2013-04-03T09:30:07Z</time>
      </trkpt>
      <trkpt lat="42.856170" lon="1.448457">
        <ele>1891.1</ele>
        <time>2013-04-03T09:30:18Z</time>
      </trkpt>
      <trkpt lat="42.856119" lon="1.448349">
        <ele>1891.5</ele>
        <time>2013-04-03T09:30:29Z</time>
      </trkpt>
      <trkpt lat="42.856031" lon="1.448282">
        <ele>1890.1</ele>
        <time>2013-04-03T09:30:37Z</time>
      </trkpt>
      <trkpt lat="42.855955" lon="1.448212">
        <ele>1890.1</ele>
        <time>2013-04-03T09:30:45Z</time>
      </trkpt>
      <trkpt lat="42.855877" lon="1.448123">
        <ele>1890.6</ele>
        <time>2013-04-03T09:30:53Z</time>
      </trkpt>
      <trkpt lat="42.855798" lon="1.448051">
        <ele>1891.1</ele>
        <time>2013-04-03T09:31:02Z</time>
      </trkpt>
      <trkpt lat="42.855720" lon="1.447981">
        <ele>1891.5</ele>
        <time>2013-04-03T09:31:11Z</time>
      </trkpt>
      <trkpt lat="42.855638" lon="1.447902">
        <ele>1891.1</ele>
        <time>2013-04-03T09:31:21Z</time>
      </trkpt>
      <trkpt lat="42.855551" lon="1.447847">
        <ele>1891.1</ele>
        <time>2013-04-03T09:31:35Z</time>
      </trkpt>
      <trkpt lat="42.855523" lon="1.447825">
        <ele>1891.5</ele>
        <time>2013-04-03T09:35:40Z</time>
      </trkpt>
      <trkpt lat="42.855547" lon="1.447821">
        <ele>1890.6</ele>
        <time>2013-04-03T09:40:26Z</time>
      </trkpt>
      <trkpt lat="42.855474" lon="1.447723">
        <ele>1889.6</ele>
        <time>2013-04-03T09:40:44Z</time>
      </trkpt>
      <trkpt lat="42.855392" lon="1.447637">
        <ele>1888.7</ele>
        <time>2013-04-03T09:40:53Z</time>
      </trkpt>
      <trkpt lat="42.855309" lon="1.447553">
        <ele>1887.2</ele>
        <time>2013-04-03T09:41:02Z</time>
      </trkpt>
      <trkpt lat="42.855228" lon="1.447477">
        <ele>1887.2</ele>
        <time>2013-04-03T09:41:11Z</time>
      </trkpt>
      <trkpt lat="42.855164" lon="1.447378">
        <ele>1886.7</ele>
        <time>2013-04-03T09:41:19Z</time>
      </trkpt>
      <trkpt lat="42.855098" lon="1.447288">
        <ele>1885.3</ele>
        <time>2013-04-03T09:41:27Z</time>
      </trkpt>
      <trkpt lat="42.855028" lon="1.447204">
        <ele>1884.3</ele>
        <time>2013-04-03T09:41:35Z</time>
      </trkpt>
      <trkpt lat="42.854965" lon="1.447118">
        <ele>1884.3</ele>
        <time>2013-04-03T09:41:43Z</time>
      </trkpt>
      <trkpt lat="42.854902" lon="1.447019">
        <ele>1882.4</ele>
        <time>2013-04-03T09:41:51Z</time>
      </trkpt>
      <trkpt lat="42.854827" lon="1.446927">
        <ele>1881.9</ele>
        <time>2013-04-03T09:41:59Z</time>
      </trkpt>
      <trkpt lat="42.854761" lon="1.446832">
        <ele>1880.5</ele>
        <time>2013-04-03T09:42:07Z</time>
      </trkpt>
      <trkpt lat="42.854696" lon="1.446732">
        <ele>1880.0</ele>
        <time>2013-04-03T09:42:15Z</time>
      </trkpt>
      <trkpt lat="42.854624" lon="1.446637">
        <ele>1879.0</ele>
        <time>2013-04-03T09:42:23Z</time>
      </trkpt>
      <trkpt lat="42.854558" lon="1.446544">
        <ele>1879.0</ele>
        <time>2013-04-03T09:42:31Z</time>
      </trkpt>
      <trkpt lat="42.854491" lon="1.446450">
        <ele>1878.1</ele>
        <time>2013-04-03T09:42:39Z</time>
      </trkpt>
      <trkpt lat="42.854425" lon="1.446336">
        <ele>1877.6</ele>
        <time>2013-04-03T09:42:48Z</time>
      </trkpt>
      <trkpt lat="42.854359" lon="1.446235">
        <ele>1877.1</ele>
        <time>2013-04-03T09:42:57Z</time>
      </trkpt>
      <trkpt lat="42.854301" lon="1.446149">
        <ele>1876.2</ele>
        <time>2013-04-03T09:43:18Z</time>
      </trkpt>
      <trkpt lat="42.854240" lon="1.446039">
        <ele>1875.7</ele>
        <time>2013-04-03T09:43:27Z</time>
      </trkpt>
      <trkpt lat="42.854180" lon="1.445937">
        <ele>1875.7</ele>
        <time>2013-04-03T09:43:38Z</time>
      </trkpt>
      <trkpt lat="42.854125" lon="1.445850">
        <ele>1876.2</ele>
        <time>2013-04-03T09:43:51Z</time>
      </trkpt>
      <trkpt lat="42.854091" lon="1.445772">
        <ele>1875.7</ele>
        <time>2013-04-03T09:44:25Z</time>
      </trkpt>
      <trkpt lat="42.854019" lon="1.445668">
        <ele>1875.7</ele>
        <time>2013-04-03T09:44:35Z</time>
      </trkpt>
      <trkpt lat="42.853956" lon="1.445586">
        <ele>1875.7</ele>
        <time>2013-04-03T09:44:44Z</time>
      </trkpt>
      <trkpt lat="42.853894" lon="1.445499">
        <ele>1875.2</ele>
        <time>2013-04-03T09:44:54Z</time>
      </trkpt>
      <trkpt lat="42.853831" lon="1.445415">
        <ele>1873.8</ele>
        <time>2013-04-03T09:45:17Z</time>
      </trkpt>
      <trkpt lat="42.853754" lon="1.445330">
        <ele>1873.3</ele>
        <time>2013-04-03T09:45:28Z</time>
      </trkpt>
      <trkpt lat="42.853658" lon="1.445276">
        <ele>1872.3</ele>
        <time>2013-04-03T09:45:39Z</time>
      </trkpt>
      <trkpt lat="42.853560" lon="1.445270">
        <ele>1871.3</ele>
        <time>2013-04-03T09:45:49Z</time>
      </trkpt>
      <trkpt lat="42.853469" lon="1.445230">
        <ele>1870.4</ele>
        <time>2013-04-03T09:45:58Z</time>
      </trkpt>
      <trkpt lat="42.853375" lon="1.445195">
        <ele>1869.4</ele>
        <time>2013-04-03T09:46:08Z</time>
      </trkpt>
      <trkpt lat="42.853284" lon="1.445170">
        <ele>1869.4</ele>
        <time>2013-04-03T09:46:18Z</time>
      </trkpt>
      <trkpt lat="42.853200" lon="1.445130">
        <ele>1868.5</ele>
        <time>2013-04-03T09:46:27Z</time>
      </trkpt>
      <trkpt lat="42.853106" lon="1.445091">
        <ele>1868.0</ele>
        <time>2013-04-03T09:46:36Z</time>
      </trkpt>
      <trkpt lat="42.853018" lon="1.445052">
        <ele>1867.0</ele>
        <time>2013-04-03T09:46:44Z</time>
      </trkpt>
      <trkpt lat="42.852934" lon="1.445009">
        <ele>1865.6</ele>
        <time>2013-04-03T09:46:52Z</time>
      </trkpt>
      <trkpt lat="42.852841" lon="1.444965">
        <ele>1864.6</ele>
        <time>2013-04-03T09:47:02Z</time>
      </trkpt>
      <trkpt lat="42.852762" lon="1.444915">
        <ele>1863.2</ele>
        <time>2013-04-03T09:47:11Z</time>
      </trkpt>
      <trkpt lat="42.852679" lon="1.444849">
        <ele>1862.2</ele>
        <time>2013-04-03T09:47:21Z</time>
      </trkpt>
      <trkpt lat="42.852590" lon="1.444788">
        <ele>1860.3</ele>
        <time>2013-04-03T09:47:30Z</time>
      </trkpt>
      <trkpt lat="42.852516" lon="1.444702">
        <ele>1858.8</ele>
        <time>2013-04-03T09:47:39Z</time>
      </trkpt>
      <trkpt lat="42.852438" lon="1.444620">
        <ele>1856.9</ele>
        <time>2013-04-03T09:47:47Z</time>
      </trkpt>
      <trkpt lat="42.852364" lon="1.444543">
        <ele>1855.5</ele>
        <time>2013-04-03T09:47:55Z</time>
      </trkpt>
      <trkpt lat="42.852293" lon="1.444461">
        <ele>1853.6</ele>
        <time>2013-04-03T09:48:03Z</time>
      </trkpt>
      <trkpt lat="42.852218" lon="1.444389">
        <ele>1852.1</ele>
        <time>2013-04-03T09:48:11Z</time>
      </trkpt>
      <trkpt lat="42.852144" lon="1.444322">
        <ele>1850.7</ele>
        <time>2013-04-03T09:48:20Z</time>
      </trkpt>
      <trkpt lat="42.852075" lon="1.444224">
        <ele>1849.2</ele>
        <time>2013-04-03T09:48:29Z</time>
      </trkpt>
      <trkpt lat="42.852044" lon="1.444097">
        <ele>1847.8</ele>
        <time>2013-04-03T09:48:37Z</time>
      </trkpt>
      <trkpt lat="42.852012" lon="1.443977">
        <ele>1844.9</ele>
        <time>2013-04-03T09:48:45Z</time>
      </trkpt>
      <trkpt lat="42.851961" lon="1.443899">
        <ele>1842.0</ele>
        <time>2013-04-03T09:49:27Z</time>
      </trkpt>
      <trkpt lat="42.851898" lon="1.443789">
        <ele>1838.7</ele>
        <time>2013-04-03T09:49:36Z</time>
      </trkpt>
      <trkpt lat="42.851828" lon="1.443706">
        <ele>1836.7</ele>
        <time>2013-04-03T09:49:43Z</time>
      </trkpt>
      <trkpt lat="42.851755" lon="1.443636">
        <ele>1835.3</ele>
        <time>2013-04-03T09:49:50Z</time>
      </trkpt>
      <trkpt lat="42.851667" lon="1.443573">
        <ele>1833.8</ele>
        <time>2013-04-03T09:49:58Z</time>
      </trkpt>
      <trkpt lat="42.851597" lon="1.443489">
        <ele>1831.9</ele>
        <time>2013-04-03T09:50:06Z</time>
      </trkpt>
      <trkpt lat="42.851515" lon="1.443440">
        <ele>1828.6</ele>
        <time>2013-04-03T09:50:45Z</time>
      </trkpt>
      <trkpt lat="42.851449" lon="1.443417">
        <ele>1828.6</ele>
        <time>2013-04-03T09:52:19Z</time>
      </trkpt>
      <trkpt lat="42.851400" lon="1.443326">
        <ele>1825.2</ele>
        <time>2013-04-03T09:52:35Z</time>
      </trkpt>
      <trkpt lat="42.851322" lon="1.443293">
        <ele>1822.8</ele>
        <time>2013-04-03T09:52:43Z</time>
      </trkpt>
      <trkpt lat="42.851234" lon="1.443250">
        <ele>1820.9</ele>
        <time>2013-04-03T09:52:51Z</time>
      </trkpt>
      <trkpt lat="42.851174" lon="1.443149">
        <ele>1818.5</ele>
        <time>2013-04-03T09:52:59Z</time>
      </trkpt>
      <trkpt lat="42.851091" lon="1.443062">
        <ele>1815.6</ele>
        <time>2013-04-03T09:53:07Z</time>
      </trkpt>
      <trkpt lat="42.850997" lon="1.443014">
        <ele>1814.2</ele>
        <time>2013-04-03T09:53:14Z</time>
      </trkpt>
      <trkpt lat="42.850904" lon="1.442959">
        <ele>1812.7</ele>
        <time>2013-04-03T09:53:23Z</time>
      </trkpt>
      <trkpt lat="42.850819" lon="1.442923">
        <ele>1810.8</ele>
        <time>2013-04-03T09:53:31Z</time>
      </trkpt>
      <trkpt lat="42.850724" lon="1.442873">
        <ele>1808.9</ele>
        <time>2013-04-03T09:53:39Z</time>
      </trkpt>
      <trkpt lat="42.850630" lon="1.442831">
        <ele>1807.9</ele>
        <time>2013-04-03T09:53:47Z</time>
      </trkpt>
      <trkpt lat="42.850542" lon="1.442775">
        <ele>1806.9</ele>
        <time>2013-04-03T09:53:55Z</time>
      </trkpt>
      <trkpt lat="42.850445" lon="1.442738">
        <ele>1804.5</ele>
        <time>2013-04-03T09:54:03Z</time>
      </trkpt>
      <trkpt lat="42.850356" lon="1.442709">
        <ele>1803.6</ele>
        <time>2013-04-03T09:54:10Z</time>
      </trkpt>
      <trkpt lat="42.850269" lon="1.442674">
        <ele>1802.1</ele>
        <time>2013-04-03T09:54:17Z</time>
      </trkpt>
      <trkpt lat="42.850178" lon="1.442630">
        <ele>1800.7</ele>
        <time>2013-04-03T09:54:24Z</time>
      </trkpt>
      <trkpt lat="42.850079" lon="1.442583">
        <ele>1799.2</ele>
        <time>2013-04-03T09:54:31Z</time>
      </trkpt>
      <trkpt lat="42.849993" lon="1.442527">
        <ele>1797.3</ele>
        <time>2013-04-03T09:54:37Z</time>
      </trkpt>
      <trkpt lat="42.849898" lon="1.442479">
        <ele>1796.4</ele>
        <time>2013-04-03T09:54:44Z</time>
      </trkpt>
      <trkpt lat="42.849807" lon="1.442425">
        <ele>1795.4</ele>
        <time>2013-04-03T09:54:52Z</time>
      </trkpt>
      <trkpt lat="42.849714" lon="1.442378">
        <ele>1794.0</ele>
        <time>2013-04-03T09:55:00Z</time>
      </trkpt>
      <trkpt lat="42.849631" lon="1.442329">
        <ele>1792.5</ele>
        <time>2013-04-03T09:55:09Z</time>
      </trkpt>
      <trkpt lat="42.849535" lon="1.442264">
        <ele>1791.6</ele>
        <time>2013-04-03T09:55:17Z</time>
      </trkpt>
      <trkpt lat="42.849450" lon="1.442205">
        <ele>1791.1</ele>
        <time>2013-04-03T09:55:24Z</time>
      </trkpt>
      <trkpt lat="42.849365" lon="1.442152">
        <ele>1789.6</ele>
        <time>2013-04-03T09:55:31Z</time>
      </trkpt>
      <trkpt lat="42.849273" lon="1.442091">
        <ele>1789.6</ele>
        <time>2013-04-03T09:55:38Z</time>
      </trkpt>
      <trkpt lat="42.849187" lon="1.442041">
        <ele>1788.7</ele>
        <time>2013-04-03T09:55:44Z</time>
      </trkpt>
      <trkpt lat="42.849099" lon="1.441986">
        <ele>1788.2</ele>
        <time>2013-04-03T09:55:51Z</time>
      </trkpt>
      <trkpt lat="42.849013" lon="1.441915">
        <ele>1788.2</ele>
        <time>2013-04-03T09:55:59Z</time>
      </trkpt>
      <trkpt lat="42.848935" lon="1.441848">
        <ele>1788.2</ele>
        <time>2013-04-03T09:56:07Z</time>
      </trkpt>
      <trkpt lat="42.848850" lon="1.441793">
        <ele>1788.7</ele>
        <time>2013-04-03T09:56:16Z</time>
      </trkpt>
      <trkpt lat="42.848783" lon="1.441767">
        <ele>1788.2</ele>
        <time>2013-04-03T09:57:35Z</time>
      </trkpt>
      <trkpt lat="42.848700" lon="1.441691">
        <ele>1787.7</ele>
        <time>2013-04-03T09:57:43Z</time>
      </trkpt>
      <trkpt lat="42.848619" lon="1.441620">
        <ele>1787.7</ele>
        <time>2013-04-03T09:57:50Z</time>
      </trkpt>
      <trkpt lat="42.848534" lon="1.441547">
        <ele>1788.7</ele>
        <time>2013-04-03T09:57:57Z</time>
      </trkpt>
      <trkpt lat="42.848449" lon="1.441476">
        <ele>1788.2</ele>
        <time>2013-04-03T09:58:04Z</time>
      </trkpt>
      <trkpt lat="42.848368" lon="1.441400">
        <ele>1788.7</ele>
        <time>2013-04-03T09:58:11Z</time>
      </trkpt>
      <trkpt lat="42.848292" lon="1.441329">
        <ele>1788.7</ele>
        <time>2013-04-03T09:58:18Z</time>
      </trkpt>
      <trkpt lat="42.848214" lon="1.441263">
        <ele>1788.7</ele>
        <time>2013-04-03T09:58:25Z</time>
      </trkpt>
      <trkpt lat="42.848133" lon="1.441203">
        <ele>1789.2</ele>
        <time>2013-04-03T09:58:32Z</time>
      </trkpt>
      <trkpt lat="42.848059" lon="1.441130">
        <ele>1789.6</ele>
        <time>2013-04-03T09:58:39Z</time>
      </trkpt>
      <trkpt lat="42.847984" lon="1.441066">
        <ele>1790.6</ele>
        <time>2013-04-03T09:58:46Z</time>
      </trkpt>
      <trkpt lat="42.847895" lon="1.440988">
        <ele>1791.1</ele>
        <time>2013-04-03T09:58:54Z</time>
      </trkpt>
      <trkpt lat="42.847816" lon="1.440918">
        <ele>1791.1</ele>
        <time>2013-04-03T09:59:02Z</time>
      </trkpt>
      <trkpt lat="42.847737" lon="1.440836">
        <ele>1792.5</ele>
        <time>2013-04-03T09:59:11Z</time>
      </trkpt>
      <trkpt lat="42.847657" lon="1.440773">
        <ele>1794.0</ele>
        <time>2013-04-03T09:59:20Z</time>
      </trkpt>
      <trkpt lat="42.847574" lon="1.440715">
        <ele>1795.9</ele>
        <time>2013-04-03T09:59:31Z</time>
      </trkpt>
      <trkpt lat="42.847487" lon="1.440655">
        <ele>1797.8</ele>
        <time>2013-04-03T09:59:43Z</time>
      </trkpt>
      <trkpt lat="42.847401" lon="1.440595">
        <ele>1799.2</ele>
        <time>2013-04-03T09:59:55Z</time>
      </trkpt>
      <trkpt lat="42.847314" lon="1.440542">
        <ele>1801.7</ele>
        <time>2013-04-03T10:00:08Z</time>
      </trkpt>
      <trkpt lat="42.847238" lon="1.440493">
        <ele>1803.6</ele>
        <time>2013-04-03T10:00:20Z</time>
      </trkpt>
      <trkpt lat="42.847163" lon="1.440418">
        <ele>1805.5</ele>
        <time>2013-04-03T10:00:31Z</time>
      </trkpt>
      <trkpt lat="42.847104" lon="1.440348">
        <ele>1807.9</ele>
        <time>2013-04-03T10:00:42Z</time>
      </trkpt>
      <trkpt lat="42.847032" lon="1.440254">
        <ele>1810.3</ele>
        <time>2013-04-03T10:00:54Z</time>
      </trkpt>
      <trkpt lat="42.846977" lon="1.440136">
        <ele>1812.2</ele>
        <time>2013-04-03T10:01:07Z</time>
      </trkpt>
      <trkpt lat="42.846926" lon="1.440035">
        <ele>1814.6</ele>
        <time>2013-04-03T10:01:19Z</time>
      </trkpt>
      <trkpt lat="42.846870" lon="1.439947">
        <ele>1816.6</ele>
        <time>2013-04-03T10:01:31Z</time>
      </trkpt>
      <trkpt lat="42.846795" lon="1.439868">
        <ele>1818.0</ele>
        <time>2013-04-03T10:01:43Z</time>
      </trkpt>
      <trkpt lat="42.846731" lon="1.439770">
        <ele>1819.4</ele>
        <time>2013-04-03T10:01:54Z</time>
      </trkpt>
      <trkpt lat="42.846673" lon="1.439676">
        <ele>1821.8</ele>
        <time>2013-04-03T10:02:07Z</time>
      </trkpt>
      <trkpt lat="42.846610" lon="1.439590">
        <ele>1824.2</ele>
        <time>2013-04-03T10:02:20Z</time>
      </trkpt>
      <trkpt lat="42.846522" lon="1.439536">
        <ele>1825.2</ele>
        <time>2013-04-03T10:02:32Z</time>
      </trkpt>
      <trkpt lat="42.846446" lon="1.439449">
        <ele>1826.6</ele>
        <time>2013-04-03T10:02:43Z</time>
      </trkpt>
      <trkpt lat="42.846375" lon="1.439374">
        <ele>1827.1</ele>
        <time>2013-04-03T10:02:52Z</time>
        <name>Pic de Goulurs</name>
      </trkpt>
      <trkpt lat="42.846356" lon="1.439337">
        <ele>1827.1</ele>
        <time>2013-04-03T10:03:54Z</time>
      </trkpt>
      <trkpt lat="42.846304" lon="1.439330">
        <ele>1827.6</ele>
        <time>2013-04-03T10:06:42Z</time>
      </trkpt>
      <trkpt lat="42.846214" lon="1.439306">
        <ele>1826.6</ele>
        <time>2013-04-03T10:06:51Z</time>
      </trkpt>
      <trkpt lat="42.846129" lon="1.439276">
        <ele>1824.2</ele>
        <time>2013-04-03T10:06:59Z</time>
      </trkpt>
      <trkpt lat="42.846037" lon="1.439226">
        <ele>1821.8</ele>
        <time>2013-04-03T10:07:09Z</time>
      </trkpt>
      <trkpt lat="42.845940" lon="1.439213">
        <ele>1819.4</ele>
        <time>2013-04-03T10:07:19Z</time>
      </trkpt>
      <trkpt lat="42.845843" lon="1.439222">
        <ele>1817.0</ele>
        <time>2013-04-03T10:07:30Z</time>
      </trkpt>
      <trkpt lat="42.845748" lon="1.439241">
        <ele>1815.1</ele>
        <time>2013-04-03T10:07:42Z</time>
      </trkpt>
      <trkpt lat="42.845649" lon="1.439260">
        <ele>1813.2</ele>
        <time>2013-04-03T10:07:54Z</time>
      </trkpt>
      <trkpt lat="42.845561" lon="1.439248">
        <ele>1811.7</ele>
        <time>2013-04-03T10:08:04Z</time>
      </trkpt>
      <trkpt lat="42.845462" lon="1.439245">
        <ele>1808.9</ele>
        <time>2013-04-03T10:08:14Z</time>
      </trkpt>
      <trkpt lat="42.845365" lon="1.439239">
        <ele>1806.9</ele>
        <time>2013-04-03T10:08:24Z</time>
      </trkpt>
      <trkpt lat="42.845263" lon="1.439238">
        <ele>1804.1</ele>
        <time>2013-04-03T10:08:35Z</time>
      </trkpt>
      <trkpt lat="42.845167" lon="1.439243">
        <ele>1800.2</ele>
        <time>2013-04-03T10:08:45Z</time>
      </trkpt>
      <trkpt lat="42.845084" lon="1.439244">
        <ele>1797.3</ele>
        <time>2013-04-03T10:08:54Z</time>
      </trkpt>
      <trkpt lat="42.844991" lon="1.439252">
        <ele>1795.9</ele>
        <time>2013-04-03T10:09:03Z</time>
      </trkpt>
      <trkpt lat="42.844890" lon="1.439267">
        <ele>1793.5</ele>
        <time>2013-04-03T10:09:13Z</time>
      </trkpt>
      <trkpt lat="42.844791" lon="1.439279">
        <ele>1792.0</ele>
        <time>2013-04-03T10:09:22Z</time>
      </trkpt>
      <trkpt lat="42.844710" lon="1.439259">
        <ele>1790.6</ele>
        <time>2013-04-03T10:09:31Z</time>
      </trkpt>
      <trkpt lat="42.844613" lon="1.439241">
        <ele>1789.6</ele>
        <time>2013-04-03T10:09:40Z</time>
      </trkpt>
      <trkpt lat="42.844518" lon="1.439232">
        <ele>1788.2</ele>
        <time>2013-04-03T10:09:50Z</time>
      </trkpt>
      <trkpt lat="42.844428" lon="1.439227">
        <ele>1788.2</ele>
        <time>2013-04-03T10:10:03Z</time>
      </trkpt>
      <trkpt lat="42.844336" lon="1.439219">
        <ele>1788.7</ele>
        <time>2013-04-03T10:10:18Z</time>
      </trkpt>
      <trkpt lat="42.844241" lon="1.439248">
        <ele>1789.6</ele>
        <time>2013-04-03T10:10:34Z</time>
      </trkpt>
      <trkpt lat="42.844155" lon="1.439259">
        <ele>1792.0</ele>
        <time>2013-04-03T10:10:52Z</time>
      </trkpt>
      <trkpt lat="42.844064" lon="1.439291">
        <ele>1795.4</ele>
        <time>2013-04-03T10:11:10Z</time>
      </trkpt>
      <trkpt lat="42.843966" lon="1.439310">
        <ele>1797.3</ele>
        <time>2013-04-03T10:11:28Z</time>
      </trkpt>
      <trkpt lat="42.843886" lon="1.439340">
        <ele>1798.8</ele>
        <time>2013-04-03T10:11:42Z</time>
      </trkpt>
      <trkpt lat="42.843788" lon="1.439393">
        <ele>1802.6</ele>
        <time>2013-04-03T10:12:03Z</time>
      </trkpt>
      <trkpt lat="42.843698" lon="1.439393">
        <ele>1804.1</ele>
        <time>2013-04-03T10:12:19Z</time>
      </trkpt>
      <trkpt lat="42.843604" lon="1.439408">
        <ele>1806.4</ele>
        <time>2013-04-03T10:12:45Z</time>
      </trkpt>
      <trkpt lat="42.843529" lon="1.439432">
        <ele>1807.9</ele>
        <time>2013-04-03T10:13:00Z</time>
      </trkpt>
      <trkpt lat="42.843443" lon="1.439433">
        <ele>1809.8</ele>
        <time>2013-04-03T10:13:19Z</time>
      </trkpt>
      <trkpt lat="42.843346" lon="1.439442">
        <ele>1810.8</ele>
        <time>2013-04-03T10:13:35Z</time>
      </trkpt>
      <trkpt lat="42.843258" lon="1.439449">
        <ele>1812.2</ele>
        <time>2013-04-03T10:13:53Z</time>
      </trkpt>
      <trkpt lat="42.843159" lon="1.439459">
        <ele>1814.2</ele>
        <time>2013-04-03T10:14:11Z</time>
      </trkpt>
      <trkpt lat="42.843055" lon="1.439475">
        <ele>1817.0</ele>
        <time>2013-04-03T10:14:33Z</time>
      </trkpt>
      <trkpt lat="42.842953" lon="1.439483">
        <ele>1818.9</ele>
        <time>2013-04-03T10:14:50Z</time>
      </trkpt>
      <trkpt lat="42.842858" lon="1.439492">
        <ele>1821.3</ele>
        <time>2013-04-03T10:15:08Z</time>
      </trkpt>
      <trkpt lat="42.842742" lon="1.439487">
        <ele>1823.8</ele>
        <time>2013-04-03T10:15:30Z</time>
      </trkpt>
      <trkpt lat="42.842650" lon="1.439495">
        <ele>1825.2</ele>
        <time>2013-04-03T10:15:45Z</time>
      </trkpt>
      <trkpt lat="42.842572" lon="1.439495">
        <ele>1828.1</ele>
        <time>2013-04-03T10:16:05Z</time>
      </trkpt>
      <trkpt lat="42.842479" lon="1.439496">
        <ele>1830.5</ele>
        <time>2013-04-03T10:16:23Z</time>
      </trkpt>
      <trkpt lat="42.842392" lon="1.439524">
        <ele>1832.4</ele>
        <time>2013-04-03T10:16:41Z</time>
      </trkpt>
      <trkpt lat="42.842302" lon="1.439549">
        <ele>1835.3</ele>
        <time>2013-04-03T10:17:00Z</time>
      </trkpt>
      <trkpt lat="42.842215" lon="1.439568">
        <ele>1838.7</ele>
        <time>2013-04-03T10:17:22Z</time>
      </trkpt>
      <trkpt lat="42.842155" lon="1.439598">
        <ele>1842.5</ele>
        <time>2013-04-03T10:17:44Z</time>
      </trkpt>
      <trkpt lat="42.842082" lon="1.439650">
        <ele>1845.9</ele>
        <time>2013-04-03T10:18:08Z</time>
      </trkpt>
      <trkpt lat="42.842010" lon="1.439705">
        <ele>1852.6</ele>
        <time>2013-04-03T10:18:43Z</time>
      </trkpt>
      <trkpt lat="42.841948" lon="1.439768">
        <ele>1858.4</ele>
        <time>2013-04-03T10:19:41Z</time>
      </trkpt>
      <trkpt lat="42.841874" lon="1.439878">
        <ele>1862.7</ele>
        <time>2013-04-03T10:20:05Z</time>
      </trkpt>
      <trkpt lat="42.841811" lon="1.439935">
        <ele>1867.0</ele>
        <time>2013-04-03T10:20:27Z</time>
      </trkpt>
      <trkpt lat="42.841725" lon="1.439964">
        <ele>1873.3</ele>
        <time>2013-04-03T10:21:04Z</time>
      </trkpt>
      <trkpt lat="42.841636" lon="1.440021">
        <ele>1878.1</ele>
        <time>2013-04-03T10:21:29Z</time>
      </trkpt>
      <trkpt lat="42.841556" lon="1.440060">
        <ele>1882.4</ele>
        <time>2013-04-03T10:21:51Z</time>
      </trkpt>
      <trkpt lat="42.841491" lon="1.440100">
        <ele>1886.2</ele>
        <time>2013-04-03T10:22:11Z</time>
      </trkpt>
      <trkpt lat="42.841406" lon="1.440089">
        <ele>1890.1</ele>
        <time>2013-04-03T10:22:32Z</time>
      </trkpt>
      <trkpt lat="42.841328" lon="1.440088">
        <ele>1894.9</ele>
        <time>2013-04-03T10:22:52Z</time>
      </trkpt>
      <trkpt lat="42.841244" lon="1.440136">
        <ele>1899.2</ele>
        <time>2013-04-03T10:23:19Z</time>
      </trkpt>
      <trkpt lat="42.841170" lon="1.440177">
        <ele>1905.0</ele>
        <time>2013-04-03T10:23:49Z</time>
      </trkpt>
      <trkpt lat="42.841083" lon="1.440184">
        <ele>1907.9</ele>
        <time>2013-04-03T10:24:11Z</time>
      </trkpt>
      <trkpt lat="42.841025" lon="1.440115">
        <ele>1910.8</ele>
        <time>2013-04-03T10:25:39Z</time>
      </trkpt>
      <trkpt lat="42.840971" lon="1.440194">
        <ele>1911.2</ele>
        <time>2013-04-03T10:26:09Z</time>
      </trkpt>
      <trkpt lat="42.840889" lon="1.440263">
        <ele>1913.6</ele>
        <time>2013-04-03T10:26:22Z</time>
      </trkpt>
      <trkpt lat="42.840810" lon="1.440324">
        <ele>1916.5</ele>
        <time>2013-04-03T10:26:37Z</time>
      </trkpt>
      <trkpt lat="42.840708" lon="1.440352">
        <ele>1919.9</ele>
        <time>2013-04-03T10:26:54Z</time>
      </trkpt>
      <trkpt lat="42.840618" lon="1.440364">
        <ele>1922.8</ele>
        <time>2013-04-03T10:27:11Z</time>
      </trkpt>
      <trkpt lat="42.840523" lon="1.440374">
        <ele>1925.7</ele>
        <time>2013-04-03T10:27:30Z</time>
      </trkpt>
      <trkpt lat="42.840429" lon="1.440382">
        <ele>1928.5</ele>
        <time>2013-04-03T10:27:50Z</time>
      </trkpt>
      <trkpt lat="42.840344" lon="1.440389">
        <ele>1931.9</ele>
        <time>2013-04-03T10:28:12Z</time>
      </trkpt>
      <trkpt lat="42.840261" lon="1.440388">
        <ele>1935.8</ele>
        <time>2013-04-03T10:28:33Z</time>
      </trkpt>
      <trkpt lat="42.840180" lon="1.440378">
        <ele>1939.6</ele>
        <time>2013-04-03T10:28:53Z</time>
      </trkpt>
      <trkpt lat="42.840096" lon="1.440372">
        <ele>1943.4</ele>
        <time>2013-04-03T10:29:14Z</time>
      </trkpt>
      <trkpt lat="42.840012" lon="1.440402">
        <ele>1947.8</ele>
        <time>2013-04-03T10:29:38Z</time>
      </trkpt>
      <trkpt lat="42.839928" lon="1.440429">
        <ele>1951.6</ele>
        <time>2013-04-03T10:30:01Z</time>
      </trkpt>
      <trkpt lat="42.839842" lon="1.440420">
        <ele>1955.9</ele>
        <time>2013-04-03T10:30:24Z</time>
      </trkpt>
      <trkpt lat="42.839775" lon="1.440434">
        <ele>1959.3</ele>
        <time>2013-04-03T10:30:46Z</time>
      </trkpt>
      <trkpt lat="42.839699" lon="1.440428">
        <ele>1962.7</ele>
        <time>2013-04-03T10:31:08Z</time>
      </trkpt>
      <trkpt lat="42.839616" lon="1.440443">
        <ele>1967.5</ele>
        <time>2013-04-03T10:31:36Z</time>
      </trkpt>
      <trkpt lat="42.839519" lon="1.440441">
        <ele>1971.8</ele>
        <time>2013-04-03T10:32:04Z</time>
      </trkpt>
      <trkpt lat="42.839412" lon="1.440447">
        <ele>1978.1</ele>
        <time>2013-04-03T10:32:39Z</time>
      </trkpt>
      <trkpt lat="42.839312" lon="1.440470">
        <ele>1983.3</ele>
        <time>2013-04-03T10:33:07Z</time>
      </trkpt>
      <trkpt lat="42.839242" lon="1.440453">
        <ele>1986.2</ele>
        <time>2013-04-03T10:33:28Z</time>
      </trkpt>
      <trkpt lat="42.839157" lon="1.440428">
        <ele>1991.0</ele>
        <time>2013-04-03T10:33:56Z</time>
      </trkpt>
      <trkpt lat="42.839079" lon="1.440481">
        <ele>1994.9</ele>
        <time>2013-04-03T10:34:18Z</time>
      </trkpt>
      <trkpt lat="42.838987" lon="1.440497">
        <ele>1997.8</ele>
        <time>2013-04-03T10:34:37Z</time>
      </trkpt>
      <trkpt lat="42.838908" lon="1.440503">
        <ele>2001.1</ele>
        <time>2013-04-03T10:34:56Z</time>
      </trkpt>
      <trkpt lat="42.838818" lon="1.440502">
        <ele>2003.5</ele>
        <time>2013-04-03T10:35:10Z</time>
      </trkpt>
      <trkpt lat="42.838721" lon="1.440504">
        <ele>2005.4</ele>
        <time>2013-04-03T10:35:27Z</time>
      </trkpt>
      <trkpt lat="42.838634" lon="1.440530">
        <ele>2008.8</ele>
        <time>2013-04-03T10:35:48Z</time>
      </trkpt>
      <trkpt lat="42.838545" lon="1.440552">
        <ele>2011.7</ele>
        <time>2013-04-03T10:36:07Z</time>
      </trkpt>
      <trkpt lat="42.838469" lon="1.440581">
        <ele>2015.1</ele>
        <time>2013-04-03T10:36:27Z</time>
      </trkpt>
      <trkpt lat="42.838400" lon="1.440683">
        <ele>2018.9</ele>
        <time>2013-04-03T10:36:50Z</time>
      </trkpt>
      <trkpt lat="42.838315" lon="1.440726">
        <ele>2022.8</ele>
        <time>2013-04-03T10:37:12Z</time>
      </trkpt>
      <trkpt lat="42.838221" lon="1.440710">
        <ele>2025.2</ele>
        <time>2013-04-03T10:37:31Z</time>
      </trkpt>
      <trkpt lat="42.838165" lon="1.440781">
        <ele>2030.4</ele>
        <time>2013-04-03T10:37:52Z</time>
      </trkpt>
      <trkpt lat="42.838072" lon="1.440763">
        <ele>2033.8</ele>
        <time>2013-04-03T10:38:13Z</time>
      </trkpt>
      <trkpt lat="42.838004" lon="1.440820">
        <ele>2038.1</ele>
        <time>2013-04-03T10:38:33Z</time>
      </trkpt>
      <trkpt lat="42.837927" lon="1.440906">
        <ele>2043.4</ele>
        <time>2013-04-03T10:39:04Z</time>
      </trkpt>
      <trkpt lat="42.837847" lon="1.440985">
        <ele>2048.7</ele>
        <time>2013-04-03T10:39:32Z</time>
      </trkpt>
      <trkpt lat="42.837774" lon="1.441069">
        <ele>2055.4</ele>
        <time>2013-04-03T10:40:11Z</time>
      </trkpt>
      <trkpt lat="42.837675" lon="1.441094">
        <ele>2059.8</ele>
        <time>2013-04-03T10:40:35Z</time>
      </trkpt>
      <trkpt lat="42.837579" lon="1.441101">
        <ele>2062.6</ele>
        <time>2013-04-03T10:40:48Z</time>
      </trkpt>
      <trkpt lat="42.837495" lon="1.441100">
        <ele>2064.1</ele>
        <time>2013-04-03T10:40:59Z</time>
      </trkpt>
      <trkpt lat="42.837450" lon="1.441119">
        <ele>2067.0</ele>
        <time>2013-04-03T10:41:36Z</time>
      </trkpt>
      <trkpt lat="42.837378" lon="1.441217">
        <ele>2067.4</ele>
        <time>2013-04-03T10:42:40Z</time>
      </trkpt>
      <trkpt lat="42.837301" lon="1.441296">
        <ele>2068.4</ele>
        <time>2013-04-03T10:42:55Z</time>
      </trkpt>
      <trkpt lat="42.837204" lon="1.441366">
        <ele>2068.9</ele>
        <time>2013-04-03T10:43:06Z</time>
      </trkpt>
      <trkpt lat="42.837116" lon="1.441425">
        <ele>2069.9</ele>
        <time>2013-04-03T10:43:16Z</time>
      </trkpt>
      <trkpt lat="42.837030" lon="1.441487">
        <ele>2071.3</ele>
        <time>2013-04-03T10:43:26Z</time>
      </trkpt>
      <trkpt lat="42.836948" lon="1.441549">
        <ele>2071.8</ele>
        <time>2013-04-03T10:43:35Z</time>
      </trkpt>
      <trkpt lat="42.836859" lon="1.441626">
        <ele>2073.2</ele>
        <time>2013-04-03T10:43:45Z</time>
      </trkpt>
      <trkpt lat="42.836766" lon="1.441674">
        <ele>2073.7</ele>
        <time>2013-04-03T10:43:57Z</time>
      </trkpt>
      <trkpt lat="42.836679" lon="1.441724">
        <ele>2074.7</ele>
        <time>2013-04-03T10:44:08Z</time>
      </trkpt>
      <trkpt lat="42.836584" lon="1.441752">
        <ele>2075.1</ele>
        <time>2013-04-03T10:44:20Z</time>
      </trkpt>
      <trkpt lat="42.836487" lon="1.441773">
        <ele>2075.6</ele>
        <time>2013-04-03T10:44:32Z</time>
      </trkpt>
      <trkpt lat="42.836394" lon="1.441825">
        <ele>2076.6</ele>
        <time>2013-04-03T10:44:43Z</time>
      </trkpt>
      <trkpt lat="42.836294" lon="1.441860">
        <ele>2077.1</ele>
        <time>2013-04-03T10:44:54Z</time>
      </trkpt>
      <trkpt lat="42.836206" lon="1.441885">
        <ele>2078.5</ele>
        <time>2013-04-03T10:45:05Z</time>
      </trkpt>
      <trkpt lat="42.836121" lon="1.441911">
        <ele>2080.4</ele>
        <time>2013-04-03T10:45:16Z</time>
      </trkpt>
      <trkpt lat="42.836028" lon="1.441936">
        <ele>2082.4</ele>
        <time>2013-04-03T10:45:28Z</time>
      </trkpt>
      <trkpt lat="42.835941" lon="1.441976">
        <ele>2082.8</ele>
        <time>2013-04-03T10:45:41Z</time>
      </trkpt>
      <trkpt lat="42.835847" lon="1.441994">
        <ele>2083.3</ele>
        <time>2013-04-03T10:45:53Z</time>
      </trkpt>
      <trkpt lat="42.835745" lon="1.442035">
        <ele>2084.3</ele>
        <time>2013-04-03T10:46:05Z</time>
      </trkpt>
      <trkpt lat="42.835686" lon="1.442043">
        <ele>2084.8</ele>
        <time>2013-04-03T10:46:27Z</time>
      </trkpt>
      <trkpt lat="42.835578" lon="1.442103">
        <ele>2085.7</ele>
        <time>2013-04-03T10:46:40Z</time>
      </trkpt>
      <trkpt lat="42.835478" lon="1.442120">
        <ele>2086.7</ele>
        <time>2013-04-03T10:46:51Z</time>
      </trkpt>
      <trkpt lat="42.835380" lon="1.442152">
        <ele>2087.6</ele>
        <time>2013-04-03T10:47:01Z</time>
      </trkpt>
      <trkpt lat="42.835292" lon="1.442181">
        <ele>2088.1</ele>
        <time>2013-04-03T10:47:11Z</time>
      </trkpt>
      <trkpt lat="42.835193" lon="1.442187">
        <ele>2089.1</ele>
        <time>2013-04-03T10:47:22Z</time>
      </trkpt>
      <trkpt lat="42.835102" lon="1.442183">
        <ele>2089.6</ele>
        <time>2013-04-03T10:47:32Z</time>
      </trkpt>
      <trkpt lat="42.835015" lon="1.442181">
        <ele>2090.0</ele>
        <time>2013-04-03T10:47:44Z</time>
      </trkpt>
      <trkpt lat="42.834929" lon="1.442164">
        <ele>2091.5</ele>
        <time>2013-04-03T10:47:56Z</time>
      </trkpt>
      <trkpt lat="42.834906" lon="1.442162">
        <ele>2092.0</ele>
        <time>2013-04-03T10:50:45Z</time>
      </trkpt>
      <trkpt lat="42.834899" lon="1.442167">
        <ele>2092.0</ele>
        <time>2013-04-03T10:53:42Z</time>
      </trkpt>
      <trkpt lat="42.834912" lon="1.442178">
        <ele>2092.4</ele>
        <time>2013-04-03T10:56:12Z</time>
      </trkpt>
      <trkpt lat="42.834804" lon="1.442141">
        <ele>2093.4</ele>
        <time>2013-04-03T10:56:44Z</time>
      </trkpt>
      <trkpt lat="42.834723" lon="1.442110">
        <ele>2092.9</ele>
        <time>2013-04-03T10:56:55Z</time>
      </trkpt>
      <trkpt lat="42.834640" lon="1.442092">
        <ele>2093.4</ele>
        <time>2013-04-03T10:57:06Z</time>
      </trkpt>
      <trkpt lat="42.834546" lon="1.442091">
        <ele>2093.9</ele>
        <time>2013-04-03T10:57:18Z</time>
      </trkpt>
      <trkpt lat="42.834452" lon="1.442068">
        <ele>2094.9</ele>
        <time>2013-04-03T10:57:30Z</time>
      </trkpt>
      <trkpt lat="42.834363" lon="1.442042">
        <ele>2095.3</ele>
        <time>2013-04-03T10:57:42Z</time>
      </trkpt>
      <trkpt lat="42.834274" lon="1.442009">
        <ele>2095.3</ele>
        <time>2013-04-03T10:57:57Z</time>
      </trkpt>
      <trkpt lat="42.834175" lon="1.441995">
        <ele>2095.8</ele>
        <time>2013-04-03T10:58:09Z</time>
      </trkpt>
      <trkpt lat="42.834090" lon="1.441966">
        <ele>2096.8</ele>
        <time>2013-04-03T10:58:22Z</time>
      </trkpt>
      <trkpt lat="42.834008" lon="1.441934">
        <ele>2097.7</ele>
        <time>2013-04-03T10:58:33Z</time>
      </trkpt>
      <trkpt lat="42.833921" lon="1.441901">
        <ele>2098.7</ele>
        <time>2013-04-03T10:58:45Z</time>
      </trkpt>
      <trkpt lat="42.833839" lon="1.441841">
        <ele>2099.2</ele>
        <time>2013-04-03T10:58:58Z</time>
      </trkpt>
      <trkpt lat="42.833754" lon="1.441801">
        <ele>2100.6</ele>
        <time>2013-04-03T10:59:10Z</time>
      </trkpt>
      <trkpt lat="42.833668" lon="1.441755">
        <ele>2101.1</ele>
        <time>2013-04-03T10:59:23Z</time>
      </trkpt>
      <trkpt lat="42.833587" lon="1.441697">
        <ele>2102.5</ele>
        <time>2013-04-03T10:59:36Z</time>
      </trkpt>
      <trkpt lat="42.833499" lon="1.441644">
        <ele>2104.0</ele>
        <time>2013-04-03T10:59:50Z</time>
      </trkpt>
      <trkpt lat="42.833416" lon="1.441615">
        <ele>2105.4</ele>
        <time>2013-04-03T11:00:02Z</time>
      </trkpt>
      <trkpt lat="42.833325" lon="1.441603">
        <ele>2106.9</ele>
        <time>2013-04-03T11:00:16Z</time>
      </trkpt>
      <trkpt lat="42.833236" lon="1.441584">
        <ele>2107.4</ele>
        <time>2013-04-03T11:00:28Z</time>
      </trkpt>
      <trkpt lat="42.833143" lon="1.441553">
        <ele>2107.8</ele>
        <time>2013-04-03T11:00:40Z</time>
      </trkpt>
      <trkpt lat="42.833046" lon="1.441513">
        <ele>2107.8</ele>
        <time>2013-04-03T11:01:26Z</time>
      </trkpt>
      <trkpt lat="42.832953" lon="1.441458">
        <ele>2106.4</ele>
        <time>2013-04-03T11:01:37Z</time>
      </trkpt>
      <trkpt lat="42.832861" lon="1.441422">
        <ele>2105.9</ele>
        <time>2013-04-03T11:01:47Z</time>
      </trkpt>
      <trkpt lat="42.832773" lon="1.441383">
        <ele>2104.9</ele>
        <time>2013-04-03T11:01:57Z</time>
      </trkpt>
      <trkpt lat="42.832686" lon="1.441327">
        <ele>2104.5</ele>
        <time>2013-04-03T11:02:08Z</time>
      </trkpt>
      <trkpt lat="42.832600" lon="1.441270">
        <ele>2104.9</ele>
        <time>2013-04-03T11:02:20Z</time>
      </trkpt>
      <trkpt lat="42.832531" lon="1.441192">
        <ele>2105.4</ele>
        <time>2013-04-03T11:02:31Z</time>
      </trkpt>
      <trkpt lat="42.832445" lon="1.441173">
        <ele>2106.9</ele>
        <time>2013-04-03T11:03:14Z</time>
      </trkpt>
      <trkpt lat="42.832368" lon="1.441089">
        <ele>2107.4</ele>
        <time>2013-04-03T11:03:28Z</time>
      </trkpt>
      <trkpt lat="42.832315" lon="1.441023">
        <ele>2108.8</ele>
        <time>2013-04-03T11:04:57Z</time>
      </trkpt>
      <trkpt lat="42.832249" lon="1.440960">
        <ele>2110.7</ele>
        <time>2013-04-03T11:05:14Z</time>
      </trkpt>
      <trkpt lat="42.832174" lon="1.440880">
        <ele>2112.6</ele>
        <time>2013-04-03T11:05:31Z</time>
      </trkpt>
      <trkpt lat="42.832098" lon="1.440806">
        <ele>2115.5</ele>
        <time>2013-04-03T11:05:50Z</time>
      </trkpt>
      <trkpt lat="42.832030" lon="1.440724">
        <ele>2117.0</ele>
        <time>2013-04-03T11:06:06Z</time>
      </trkpt>
      <trkpt lat="42.831970" lon="1.440669">
        <ele>2119.8</ele>
        <time>2013-04-03T11:06:22Z</time>
      </trkpt>
      <trkpt lat="42.831906" lon="1.440651">
        <ele>2123.7</ele>
        <time>2013-04-03T11:06:45Z</time>
      </trkpt>
      <trkpt lat="42.831848" lon="1.440561">
        <ele>2126.6</ele>
        <time>2013-04-03T11:07:01Z</time>
      </trkpt>
      <trkpt lat="42.831835" lon="1.440548">
        <ele>2128.5</ele>
        <time>2013-04-03T11:08:41Z</time>
      </trkpt>
      <trkpt lat="42.831732" lon="1.440534">
        <ele>2134.3</ele>
        <time>2013-04-03T11:09:43Z</time>
      </trkpt>
      <trkpt lat="42.831641" lon="1.440505">
        <ele>2138.1</ele>
        <time>2013-04-03T11:10:00Z</time>
      </trkpt>
      <trkpt lat="42.831559" lon="1.440448">
        <ele>2141.0</ele>
        <time>2013-04-03T11:10:19Z</time>
      </trkpt>
      <trkpt lat="42.831506" lon="1.440474">
        <ele>2143.9</ele>
        <time>2013-04-03T11:11:27Z</time>
      </trkpt>
      <trkpt lat="42.831431" lon="1.440405">
        <ele>2147.7</ele>
        <time>2013-04-03T11:11:46Z</time>
      </trkpt>
      <trkpt lat="42.831362" lon="1.440351">
        <ele>2150.6</ele>
        <time>2013-04-03T11:12:07Z</time>
      </trkpt>
      <trkpt lat="42.831286" lon="1.440321">
        <ele>2154.9</ele>
        <time>2013-04-03T11:12:29Z</time>
      </trkpt>
      <trkpt lat="42.831218" lon="1.440333">
        <ele>2158.3</ele>
        <time>2013-04-03T11:12:48Z</time>
      </trkpt>
      <trkpt lat="42.831136" lon="1.440288">
        <ele>2159.7</ele>
        <time>2013-04-03T11:13:06Z</time>
      </trkpt>
      <trkpt lat="42.831068" lon="1.440255">
        <ele>2163.1</ele>
        <time>2013-04-03T11:13:24Z</time>
      </trkpt>
      <trkpt lat="42.830988" lon="1.440238">
        <ele>2168.9</ele>
        <time>2013-04-03T11:13:58Z</time>
      </trkpt>
      <trkpt lat="42.830876" lon="1.440224">
        <ele>2176.1</ele>
        <time>2013-04-03T11:14:29Z</time>
      </trkpt>
      <trkpt lat="42.830781" lon="1.440210">
        <ele>2181.9</ele>
        <time>2013-04-03T11:14:59Z</time>
      </trkpt>
      <trkpt lat="42.830730" lon="1.440216">
        <ele>2187.1</ele>
        <time>2013-04-03T11:15:33Z</time>
      </trkpt>
      <trkpt lat="42.830688" lon="1.440160">
        <ele>2190.0</ele>
        <time>2013-04-03T11:16:03Z</time>
      </trkpt>
      <trkpt lat="42.830668" lon="1.440140">
        <ele>2194.8</ele>
        <time>2013-04-03T11:18:03Z</time>
      </trkpt>
      <trkpt lat="42.830597" lon="1.440096">
        <ele>2198.2</ele>
        <time>2013-04-03T11:18:30Z</time>
      </trkpt>
      <trkpt lat="42.830506" lon="1.440081">
        <ele>2201.1</ele>
        <time>2013-04-03T11:19:48Z</time>
        <name>Pic des 3 Seigneurs</name>
      </trkpt>
      <trkpt lat="42.830531" lon="1.440100">
        <ele>2204.0</ele>
        <time>2013-04-03T11:21:10Z</time>
      </trkpt>
      <trkpt lat="42.830500" lon="1.440044">
        <ele>2204.4</ele>
        <time>2013-04-03T11:29:57Z</time>
      </trkpt>
      <trkpt lat="42.830479" lon="1.440159">
        <ele>2202.5</ele>
        <time>2013-04-03T11:32:13Z</time>
      </trkpt>
      <trkpt lat="42.830476" lon="1.440234">
        <ele>2199.1</ele>
        <time>2013-04-03T11:33:26Z</time>
      </trkpt>
      <trkpt lat="42.830381" lon="1.440234">
        <ele>2194.4</ele>
        <time>2013-04-03T11:34:11Z</time>
      </trkpt>
      <trkpt lat="42.830375" lon="1.440364">
        <ele>2191.5</ele>
        <time>2013-04-03T11:35:30Z</time>
      </trkpt>
      <trkpt lat="42.830384" lon="1.440470">
        <ele>2186.2</ele>
        <time>2013-04-03T11:35:45Z</time>
      </trkpt>
      <trkpt lat="42.830342" lon="1.440585">
        <ele>2181.4</ele>
        <time>2013-04-03T11:36:04Z</time>
      </trkpt>
      <trkpt lat="42.830317" lon="1.440714">
        <ele>2177.0</ele>
        <time>2013-04-03T11:36:45Z</time>
      </trkpt>
      <trkpt lat="42.830281" lon="1.440807">
        <ele>2173.7</ele>
        <time>2013-04-03T11:37:31Z</time>
      </trkpt>
      <trkpt lat="42.830280" lon="1.440945">
        <ele>2171.3</ele>
        <time>2013-04-03T11:37:57Z</time>
      </trkpt>
      <trkpt lat="42.830280" lon="1.441062">
        <ele>2170.8</ele>
        <time>2013-04-03T11:38:19Z</time>
      </trkpt>
      <trkpt lat="42.830244" lon="1.441189">
        <ele>2170.3</ele>
        <time>2013-04-03T11:38:44Z</time>
      </trkpt>
      <trkpt lat="42.830190" lon="1.441300">
        <ele>2169.4</ele>
        <time>2013-04-03T11:39:01Z</time>
      </trkpt>
      <trkpt lat="42.830118" lon="1.441386">
        <ele>2168.9</ele>
        <time>2013-04-03T11:39:18Z</time>
      </trkpt>
      <trkpt lat="42.830054" lon="1.441483">
        <ele>2168.4</ele>
        <time>2013-04-03T11:39:31Z</time>
      </trkpt>
      <trkpt lat="42.829976" lon="1.441552">
        <ele>2167.4</ele>
        <time>2013-04-03T11:39:42Z</time>
      </trkpt>
      <trkpt lat="42.829906" lon="1.441628">
        <ele>2168.4</ele>
        <time>2013-04-03T11:39:56Z</time>
      </trkpt>
      <trkpt lat="42.829834" lon="1.441703">
        <ele>2168.9</ele>
        <time>2013-04-03T11:40:09Z</time>
      </trkpt>
      <trkpt lat="42.829756" lon="1.441792">
        <ele>2169.8</ele>
        <time>2013-04-03T11:40:24Z</time>
      </trkpt>
      <trkpt lat="42.829694" lon="1.441866">
        <ele>2170.8</ele>
        <time>2013-04-03T11:40:39Z</time>
      </trkpt>
      <trkpt lat="42.829610" lon="1.441952">
        <ele>2171.8</ele>
        <time>2013-04-03T11:40:55Z</time>
      </trkpt>
      <trkpt lat="42.829524" lon="1.442030">
        <ele>2173.2</ele>
        <time>2013-04-03T11:41:10Z</time>
      </trkpt>
      <trkpt lat="42.829432" lon="1.442144">
        <ele>2174.2</ele>
        <time>2013-04-03T11:42:03Z</time>
      </trkpt>
      <trkpt lat="42.829380" lon="1.442229">
        <ele>2175.6</ele>
        <time>2013-04-03T11:42:16Z</time>
      </trkpt>
      <trkpt lat="42.829368" lon="1.442301">
        <ele>2178.0</ele>
        <time>2013-04-03T11:42:29Z</time>
      </trkpt>
      <trkpt lat="42.829337" lon="1.442393">
        <ele>2180.4</ele>
        <time>2013-04-03T11:42:43Z</time>
      </trkpt>
      <trkpt lat="42.829314" lon="1.442503">
        <ele>2181.9</ele>
        <time>2013-04-03T11:43:01Z</time>
      </trkpt>
      <trkpt lat="42.829280" lon="1.442610">
        <ele>2183.8</ele>
        <time>2013-04-03T11:43:24Z</time>
      </trkpt>
      <trkpt lat="42.829266" lon="1.442722">
        <ele>2186.2</ele>
        <time>2013-04-03T11:43:54Z</time>
      </trkpt>
      <trkpt lat="42.829250" lon="1.442820">
        <ele>2187.1</ele>
        <time>2013-04-03T11:44:16Z</time>
      </trkpt>
      <trkpt lat="42.829214" lon="1.442954">
        <ele>2188.6</ele>
        <time>2013-04-03T11:44:35Z</time>
      </trkpt>
      <trkpt lat="42.829186" lon="1.443068">
        <ele>2190.5</ele>
        <time>2013-04-03T11:44:54Z</time>
      </trkpt>
      <trkpt lat="42.829136" lon="1.443177">
        <ele>2191.9</ele>
        <time>2013-04-03T11:45:10Z</time>
      </trkpt>
      <trkpt lat="42.829093" lon="1.443293">
        <ele>2193.9</ele>
        <time>2013-04-03T11:45:25Z</time>
      </trkpt>
      <trkpt lat="42.829076" lon="1.443395">
        <ele>2195.3</ele>
        <time>2013-04-03T11:45:40Z</time>
      </trkpt>
      <trkpt lat="42.829030" lon="1.443505">
        <ele>2196.8</ele>
        <time>2013-04-03T11:45:58Z</time>
      </trkpt>
      <trkpt lat="42.828985" lon="1.443631">
        <ele>2197.7</ele>
        <time>2013-04-03T11:46:15Z</time>
      </trkpt>
      <trkpt lat="42.828959" lon="1.443705">
        <ele>2198.2</ele>
        <time>2013-04-03T11:47:21Z</time>
      </trkpt>
      <trkpt lat="42.828892" lon="1.443792">
        <ele>2198.2</ele>
        <time>2013-04-03T11:47:37Z</time>
      </trkpt>
      <trkpt lat="42.828848" lon="1.443879">
        <ele>2198.2</ele>
        <time>2013-04-03T11:47:49Z</time>
      </trkpt>
      <trkpt lat="42.828808" lon="1.443965">
        <ele>2199.6</ele>
        <time>2013-04-03T11:48:03Z</time>
      </trkpt>
      <trkpt lat="42.828751" lon="1.444065">
        <ele>2199.6</ele>
        <time>2013-04-03T11:48:18Z</time>
      </trkpt>
      <trkpt lat="42.828704" lon="1.444167">
        <ele>2201.1</ele>
        <time>2013-04-03T11:48:33Z</time>
      </trkpt>
      <trkpt lat="42.828645" lon="1.444244">
        <ele>2200.6</ele>
        <time>2013-04-03T11:49:01Z</time>
      </trkpt>
      <trkpt lat="42.828585" lon="1.444333">
        <ele>2199.6</ele>
        <time>2013-04-03T11:49:14Z</time>
      </trkpt>
      <trkpt lat="42.828549" lon="1.444454">
        <ele>2200.6</ele>
        <time>2013-04-03T11:49:27Z</time>
      </trkpt>
      <trkpt lat="42.828531" lon="1.444590">
        <ele>2201.1</ele>
        <time>2013-04-03T11:49:49Z</time>
      </trkpt>
      <trkpt lat="42.828522" lon="1.444722">
        <ele>2202.0</ele>
        <time>2013-04-03T11:50:07Z</time>
      </trkpt>
      <trkpt lat="42.828496" lon="1.444758">
        <ele>2203.0</ele>
        <time>2013-04-03T11:51:04Z</time>
      </trkpt>
      <trkpt lat="42.828501" lon="1.444823">
        <ele>2201.1</ele>
        <time>2013-04-03T11:54:41Z</time>
      </trkpt>
      <trkpt lat="42.828402" lon="1.444843">
        <ele>2195.3</ele>
        <time>2013-04-03T11:54:54Z</time>
      </trkpt>
      <trkpt lat="42.828324" lon="1.444856">
        <ele>2191.5</ele>
        <time>2013-04-03T11:55:05Z</time>
      </trkpt>
      <trkpt lat="42.828237" lon="1.444908">
        <ele>2187.1</ele>
        <time>2013-04-03T11:55:16Z</time>
      </trkpt>
      <trkpt lat="42.828152" lon="1.444969">
        <ele>2183.3</ele>
        <time>2013-04-03T11:55:25Z</time>
      </trkpt>
      <trkpt lat="42.828053" lon="1.445026">
        <ele>2179.4</ele>
        <time>2013-04-03T11:55:34Z</time>
      </trkpt>
      <trkpt lat="42.827961" lon="1.445071">
        <ele>2176.1</ele>
        <time>2013-04-03T11:55:43Z</time>
      </trkpt>
      <trkpt lat="42.827881" lon="1.445134">
        <ele>2174.2</ele>
        <time>2013-04-03T11:55:51Z</time>
      </trkpt>
      <trkpt lat="42.827811" lon="1.445192">
        <ele>2172.7</ele>
        <time>2013-04-03T11:56:03Z</time>
      </trkpt>
      <trkpt lat="42.827816" lon="1.445226">
        <ele>2171.3</ele>
        <time>2013-04-03T11:57:32Z</time>
      </trkpt>
      <trkpt lat="42.827800" lon="1.445175">
        <ele>2170.3</ele>
        <time>2013-04-03T12:26:42Z</time>
      </trkpt>
      <trkpt lat="42.827719" lon="1.445231">
        <ele>2167.9</ele>
        <time>2013-04-03T12:26:58Z</time>
      </trkpt>
      <trkpt lat="42.827638" lon="1.445283">
        <ele>2166.5</ele>
        <time>2013-04-03T12:27:09Z</time>
      </trkpt>
      <trkpt lat="42.827554" lon="1.445346">
        <ele>2165.5</ele>
        <time>2013-04-03T12:27:19Z</time>
      </trkpt>
      <trkpt lat="42.827461" lon="1.445402">
        <ele>2165.0</ele>
        <time>2013-04-03T12:27:28Z</time>
      </trkpt>
      <trkpt lat="42.827382" lon="1.445474">
        <ele>2166.0</ele>
        <time>2013-04-03T12:27:38Z</time>
      </trkpt>
      <trkpt lat="42.827297" lon="1.445554">
        <ele>2166.9</ele>
        <time>2013-04-03T12:27:51Z</time>
      </trkpt>
      <trkpt lat="42.827223" lon="1.445642">
        <ele>2167.9</ele>
        <time>2013-04-03T12:28:03Z</time>
      </trkpt>
      <trkpt lat="42.827143" lon="1.445713">
        <ele>2168.9</ele>
        <time>2013-04-03T12:28:15Z</time>
      </trkpt>
      <trkpt lat="42.827049" lon="1.445688">
        <ele>2167.4</ele>
        <time>2013-04-03T12:28:25Z</time>
      </trkpt>
      <trkpt lat="42.826954" lon="1.445655">
        <ele>2165.0</ele>
        <time>2013-04-03T12:28:36Z</time>
      </trkpt>
      <trkpt lat="42.826866" lon="1.445684">
        <ele>2163.1</ele>
        <time>2013-04-03T12:28:46Z</time>
      </trkpt>
      <trkpt lat="42.826782" lon="1.445719">
        <ele>2160.7</ele>
        <time>2013-04-03T12:29:48Z</time>
      </trkpt>
      <trkpt lat="42.826699" lon="1.445775">
        <ele>2158.3</ele>
        <time>2013-04-03T12:29:59Z</time>
      </trkpt>
      <trkpt lat="42.826616" lon="1.445827">
        <ele>2156.9</ele>
        <time>2013-04-03T12:30:13Z</time>
      </trkpt>
      <trkpt lat="42.826527" lon="1.445888">
        <ele>2156.9</ele>
        <time>2013-04-03T12:30:23Z</time>
      </trkpt>
      <trkpt lat="42.826435" lon="1.445945">
        <ele>2157.8</ele>
        <time>2013-04-03T12:30:33Z</time>
      </trkpt>
      <trkpt lat="42.826351" lon="1.446023">
        <ele>2159.7</ele>
        <time>2013-04-03T12:30:46Z</time>
      </trkpt>
      <trkpt lat="42.826272" lon="1.446089">
        <ele>2161.2</ele>
        <time>2013-04-03T12:30:58Z</time>
      </trkpt>
      <trkpt lat="42.826180" lon="1.446106">
        <ele>2161.7</ele>
        <time>2013-04-03T12:31:09Z</time>
      </trkpt>
      <trkpt lat="42.826093" lon="1.446145">
        <ele>2161.2</ele>
        <time>2013-04-03T12:31:21Z</time>
      </trkpt>
      <trkpt lat="42.825996" lon="1.446166">
        <ele>2161.2</ele>
        <time>2013-04-03T12:31:32Z</time>
      </trkpt>
      <trkpt lat="42.825921" lon="1.446245">
        <ele>2161.2</ele>
        <time>2013-04-03T12:31:42Z</time>
      </trkpt>
      <trkpt lat="42.825839" lon="1.446318">
        <ele>2161.2</ele>
        <time>2013-04-03T12:31:54Z</time>
      </trkpt>
      <trkpt lat="42.825772" lon="1.446391">
        <ele>2160.7</ele>
        <time>2013-04-03T12:32:03Z</time>
      </trkpt>
      <trkpt lat="42.825715" lon="1.446490">
        <ele>2161.2</ele>
        <time>2013-04-03T12:32:43Z</time>
      </trkpt>
      <trkpt lat="42.825643" lon="1.446581">
        <ele>2160.2</ele>
        <time>2013-04-03T12:32:52Z</time>
      </trkpt>
      <trkpt lat="42.825573" lon="1.446674">
        <ele>2159.3</ele>
        <time>2013-04-03T12:33:01Z</time>
      </trkpt>
      <trkpt lat="42.825510" lon="1.446769">
        <ele>2158.3</ele>
        <time>2013-04-03T12:33:09Z</time>
      </trkpt>
      <trkpt lat="42.825448" lon="1.446875">
        <ele>2156.9</ele>
        <time>2013-04-03T12:33:18Z</time>
      </trkpt>
      <trkpt lat="42.825385" lon="1.446978">
        <ele>2155.4</ele>
        <time>2013-04-03T12:33:27Z</time>
      </trkpt>
      <trkpt lat="42.825313" lon="1.447078">
        <ele>2154.0</ele>
        <time>2013-04-03T12:33:36Z</time>
      </trkpt>
      <trkpt lat="42.825249" lon="1.447164">
        <ele>2152.1</ele>
        <time>2013-04-03T12:33:44Z</time>
      </trkpt>
      <trkpt lat="42.825190" lon="1.447255">
        <ele>2149.2</ele>
        <time>2013-04-03T12:33:53Z</time>
      </trkpt>
      <trkpt lat="42.825144" lon="1.447366">
        <ele>2146.3</ele>
        <time>2013-04-03T12:34:02Z</time>
      </trkpt>
      <trkpt lat="42.825089" lon="1.447460">
        <ele>2143.9</ele>
        <time>2013-04-03T12:34:12Z</time>
      </trkpt>
      <trkpt lat="42.825024" lon="1.447561">
        <ele>2140.0</ele>
        <time>2013-04-03T12:34:22Z</time>
      </trkpt>
      <trkpt lat="42.824961" lon="1.447651">
        <ele>2135.7</ele>
        <time>2013-04-03T12:34:31Z</time>
      </trkpt>
      <trkpt lat="42.824911" lon="1.447747">
        <ele>2131.4</ele>
        <time>2013-04-03T12:34:40Z</time>
      </trkpt>
      <trkpt lat="42.824851" lon="1.447834">
        <ele>2127.5</ele>
        <time>2013-04-03T12:34:49Z</time>
      </trkpt>
      <trkpt lat="42.824782" lon="1.447936">
        <ele>2122.7</ele>
        <time>2013-04-03T12:34:59Z</time>
      </trkpt>
      <trkpt lat="42.824709" lon="1.448012">
        <ele>2119.4</ele>
        <time>2013-04-03T12:35:07Z</time>
      </trkpt>
      <trkpt lat="42.824645" lon="1.448095">
        <ele>2116.5</ele>
        <time>2013-04-03T12:35:15Z</time>
      </trkpt>
      <trkpt lat="42.824596" lon="1.448199">
        <ele>2113.1</ele>
        <time>2013-04-03T12:35:23Z</time>
      </trkpt>
      <trkpt lat="42.824535" lon="1.448303">
        <ele>2110.7</ele>
        <time>2013-04-03T12:35:31Z</time>
      </trkpt>
      <trkpt lat="42.824488" lon="1.448405">
        <ele>2109.3</ele>
        <time>2013-04-03T12:35:40Z</time>
      </trkpt>
      <trkpt lat="42.824437" lon="1.448496">
        <ele>2108.3</ele>
        <time>2013-04-03T12:35:57Z</time>
      </trkpt>
      <trkpt lat="42.824422" lon="1.448522">
        <ele>2108.3</ele>
        <time>2013-04-03T12:38:25Z</time>
      </trkpt>
      <trkpt lat="42.824369" lon="1.448607">
        <ele>2109.8</ele>
        <time>2013-04-03T12:38:54Z</time>
      </trkpt>
      <trkpt lat="42.824333" lon="1.448730">
        <ele>2113.6</ele>
        <time>2013-04-03T12:39:08Z</time>
      </trkpt>
      <trkpt lat="42.824281" lon="1.448846">
        <ele>2115.5</ele>
        <time>2013-04-03T12:39:23Z</time>
      </trkpt>
      <trkpt lat="42.824241" lon="1.448956">
        <ele>2117.4</ele>
        <time>2013-04-03T12:39:37Z</time>
      </trkpt>
      <trkpt lat="42.824204" lon="1.449080">
        <ele>2119.4</ele>
        <time>2013-04-03T12:39:53Z</time>
      </trkpt>
      <trkpt lat="42.824157" lon="1.449190">
        <ele>2120.8</ele>
        <time>2013-04-03T12:40:05Z</time>
      </trkpt>
      <trkpt lat="42.824114" lon="1.449312">
        <ele>2121.8</ele>
        <time>2013-04-03T12:40:17Z</time>
      </trkpt>
      <trkpt lat="42.824067" lon="1.449410">
        <ele>2123.2</ele>
        <time>2013-04-03T12:40:29Z</time>
      </trkpt>
      <trkpt lat="42.824016" lon="1.449517">
        <ele>2124.2</ele>
        <time>2013-04-03T12:40:42Z</time>
      </trkpt>
      <trkpt lat="42.823956" lon="1.449617">
        <ele>2125.6</ele>
        <time>2013-04-03T12:40:55Z</time>
      </trkpt>
      <trkpt lat="42.823906" lon="1.449727">
        <ele>2128.0</ele>
        <time>2013-04-03T12:41:08Z</time>
      </trkpt>
      <trkpt lat="42.823852" lon="1.449826">
        <ele>2129.9</ele>
        <time>2013-04-03T12:41:21Z</time>
      </trkpt>
      <trkpt lat="42.823804" lon="1.449943">
        <ele>2131.4</ele>
        <time>2013-04-03T12:41:34Z</time>
      </trkpt>
      <trkpt lat="42.823743" lon="1.450047">
        <ele>2133.3</ele>
        <time>2013-04-03T12:41:47Z</time>
      </trkpt>
      <trkpt lat="42.823688" lon="1.450150">
        <ele>2135.7</ele>
        <time>2013-04-03T12:41:59Z</time>
      </trkpt>
      <trkpt lat="42.823636" lon="1.450249">
        <ele>2138.1</ele>
        <time>2013-04-03T12:42:11Z</time>
      </trkpt>
      <trkpt lat="42.823586" lon="1.450343">
        <ele>2137.6</ele>
        <time>2013-04-03T12:42:24Z</time>
      </trkpt>
      <trkpt lat="42.823538" lon="1.450459">
        <ele>2140.0</ele>
        <time>2013-04-03T12:42:38Z</time>
      </trkpt>
      <trkpt lat="42.823479" lon="1.450554">
        <ele>2141.5</ele>
        <time>2013-04-03T12:42:52Z</time>
      </trkpt>
      <trkpt lat="42.823427" lon="1.450657">
        <ele>2143.9</ele>
        <time>2013-04-03T12:43:07Z</time>
      </trkpt>
      <trkpt lat="42.823386" lon="1.450759">
        <ele>2146.8</ele>
        <time>2013-04-03T12:43:23Z</time>
      </trkpt>
      <trkpt lat="42.823334" lon="1.450869">
        <ele>2148.7</ele>
        <time>2013-04-03T12:43:38Z</time>
      </trkpt>
      <trkpt lat="42.823288" lon="1.450978">
        <ele>2150.6</ele>
        <time>2013-04-03T12:43:51Z</time>
      </trkpt>
      <trkpt lat="42.823230" lon="1.451081">
        <ele>2152.5</ele>
        <time>2013-04-03T12:44:03Z</time>
      </trkpt>
      <trkpt lat="42.823166" lon="1.451169">
        <ele>2154.4</ele>
        <time>2013-04-03T12:44:17Z</time>
      </trkpt>
      <trkpt lat="42.823105" lon="1.451271">
        <ele>2156.4</ele>
        <time>2013-04-03T12:44:30Z</time>
      </trkpt>
      <trkpt lat="42.823044" lon="1.451359">
        <ele>2157.8</ele>
        <time>2013-04-03T12:44:43Z</time>
      </trkpt>
      <trkpt lat="42.822976" lon="1.451460">
        <ele>2159.3</ele>
        <time>2013-04-03T12:44:56Z</time>
      </trkpt>
      <trkpt lat="42.822913" lon="1.451551">
        <ele>2160.2</ele>
        <time>2013-04-03T12:45:09Z</time>
      </trkpt>
      <trkpt lat="42.822851" lon="1.451650">
        <ele>2162.1</ele>
        <time>2013-04-03T12:45:21Z</time>
      </trkpt>
      <trkpt lat="42.822797" lon="1.451752">
        <ele>2163.1</ele>
        <time>2013-04-03T12:45:33Z</time>
      </trkpt>
      <trkpt lat="42.822760" lon="1.451869">
        <ele>2164.1</ele>
        <time>2013-04-03T12:45:44Z</time>
      </trkpt>
      <trkpt lat="42.822733" lon="1.451985">
        <ele>2164.6</ele>
        <time>2013-04-03T12:45:56Z</time>
      </trkpt>
      <trkpt lat="42.822714" lon="1.452100">
        <ele>2164.6</ele>
        <time>2013-04-03T12:46:08Z</time>
      </trkpt>
      <trkpt lat="42.822685" lon="1.452237">
        <ele>2165.5</ele>
        <time>2013-04-03T12:46:19Z</time>
      </trkpt>
      <trkpt lat="42.822662" lon="1.452364">
        <ele>2165.5</ele>
        <time>2013-04-03T12:46:30Z</time>
      </trkpt>
      <trkpt lat="42.822629" lon="1.452484">
        <ele>2166.0</ele>
        <time>2013-04-03T12:46:40Z</time>
      </trkpt>
      <trkpt lat="42.822598" lon="1.452591">
        <ele>2166.0</ele>
        <time>2013-04-03T12:46:51Z</time>
      </trkpt>
      <trkpt lat="42.822562" lon="1.452724">
        <ele>2166.0</ele>
        <time>2013-04-03T12:47:02Z</time>
      </trkpt>
      <trkpt lat="42.822533" lon="1.452852">
        <ele>2166.0</ele>
        <time>2013-04-03T12:47:12Z</time>
      </trkpt>
      <trkpt lat="42.822478" lon="1.452958">
        <ele>2166.0</ele>
        <time>2013-04-03T12:47:22Z</time>
        <name>Pic de Peyroutet</name>
      </trkpt>
      <trkpt lat="42.822434" lon="1.453059">
        <ele>2165.5</ele>
        <time>2013-04-03T12:47:36Z</time>
      </trkpt>
      <trkpt lat="42.822393" lon="1.453177">
        <ele>2166.0</ele>
        <time>2013-04-03T12:47:46Z</time>
      </trkpt>
      <trkpt lat="42.822345" lon="1.453283">
        <ele>2164.6</ele>
        <time>2013-04-03T12:47:55Z</time>
      </trkpt>
      <trkpt lat="42.822286" lon="1.453395">
        <ele>2164.1</ele>
        <time>2013-04-03T12:48:05Z</time>
      </trkpt>
      <trkpt lat="42.822204" lon="1.453465">
        <ele>2162.6</ele>
        <time>2013-04-03T12:48:15Z</time>
      </trkpt>
      <trkpt lat="42.822117" lon="1.453487">
        <ele>2162.6</ele>
        <time>2013-04-03T12:48:47Z</time>
      </trkpt>
      <trkpt lat="42.822050" lon="1.453565">
        <ele>2161.2</ele>
        <time>2013-04-03T12:48:58Z</time>
      </trkpt>
      <trkpt lat="42.821985" lon="1.453665">
        <ele>2159.7</ele>
        <time>2013-04-03T12:49:09Z</time>
      </trkpt>
      <trkpt lat="42.821919" lon="1.453750">
        <ele>2157.3</ele>
        <time>2013-04-03T12:50:14Z</time>
      </trkpt>
      <trkpt lat="42.821867" lon="1.453860">
        <ele>2155.4</ele>
        <time>2013-04-03T12:50:24Z</time>
      </trkpt>
      <trkpt lat="42.821826" lon="1.453962">
        <ele>2152.5</ele>
        <time>2013-04-03T12:50:34Z</time>
      </trkpt>
      <trkpt lat="42.821783" lon="1.454062">
        <ele>2149.6</ele>
        <time>2013-04-03T12:50:46Z</time>
      </trkpt>
      <trkpt lat="42.821738" lon="1.454184">
        <ele>2146.3</ele>
        <time>2013-04-03T12:51:01Z</time>
      </trkpt>
      <trkpt lat="42.821691" lon="1.454287">
        <ele>2143.9</ele>
        <time>2013-04-03T12:51:13Z</time>
      </trkpt>
      <trkpt lat="42.821638" lon="1.454380">
        <ele>2141.5</ele>
        <time>2013-04-03T12:51:23Z</time>
      </trkpt>
      <trkpt lat="42.821587" lon="1.454487">
        <ele>2138.1</ele>
        <time>2013-04-03T12:51:36Z</time>
      </trkpt>
      <trkpt lat="42.821514" lon="1.454555">
        <ele>2134.3</ele>
        <time>2013-04-03T12:51:47Z</time>
      </trkpt>
      <trkpt lat="42.821436" lon="1.454635">
        <ele>2129.0</ele>
        <time>2013-04-03T12:51:59Z</time>
      </trkpt>
      <trkpt lat="42.821362" lon="1.454717">
        <ele>2124.2</ele>
        <time>2013-04-03T12:52:10Z</time>
      </trkpt>
      <trkpt lat="42.821272" lon="1.454730">
        <ele>2119.4</ele>
        <time>2013-04-03T12:52:22Z</time>
      </trkpt>
      <trkpt lat="42.821191" lon="1.454683">
        <ele>2113.6</ele>
        <time>2013-04-03T12:52:41Z</time>
      </trkpt>
      <trkpt lat="42.821125" lon="1.454781">
        <ele>2109.8</ele>
        <time>2013-04-03T12:52:54Z</time>
      </trkpt>
      <trkpt lat="42.821072" lon="1.454881">
        <ele>2107.4</ele>
        <time>2013-04-03T12:53:37Z</time>
      </trkpt>
      <trkpt lat="42.821013" lon="1.454998">
        <ele>2104.9</ele>
        <time>2013-04-03T12:53:46Z</time>
      </trkpt>
      <trkpt lat="42.820948" lon="1.455092">
        <ele>2102.5</ele>
        <time>2013-04-03T12:53:54Z</time>
      </trkpt>
      <trkpt lat="42.820899" lon="1.455207">
        <ele>2100.1</ele>
        <time>2013-04-03T12:54:03Z</time>
      </trkpt>
      <trkpt lat="42.820838" lon="1.455307">
        <ele>2098.2</ele>
        <time>2013-04-03T12:54:11Z</time>
      </trkpt>
      <trkpt lat="42.820776" lon="1.455417">
        <ele>2095.3</ele>
        <time>2013-04-03T12:54:19Z</time>
      </trkpt>
      <trkpt lat="42.820718" lon="1.455516">
        <ele>2093.4</ele>
        <time>2013-04-03T12:54:27Z</time>
      </trkpt>
      <trkpt lat="42.820659" lon="1.455614">
        <ele>2091.5</ele>
        <time>2013-04-03T12:54:35Z</time>
      </trkpt>
      <trkpt lat="42.820594" lon="1.455709">
        <ele>2090.0</ele>
        <time>2013-04-03T12:54:43Z</time>
      </trkpt>
      <trkpt lat="42.820526" lon="1.455796">
        <ele>2089.1</ele>
        <time>2013-04-03T12:54:52Z</time>
      </trkpt>
      <trkpt lat="42.820450" lon="1.455875">
        <ele>2087.6</ele>
        <time>2013-04-03T12:55:01Z</time>
      </trkpt>
      <trkpt lat="42.820378" lon="1.455956">
        <ele>2088.1</ele>
        <time>2013-04-03T12:55:10Z</time>
      </trkpt>
      <trkpt lat="42.820311" lon="1.456034">
        <ele>2088.6</ele>
        <time>2013-04-03T12:55:20Z</time>
      </trkpt>
      <trkpt lat="42.820250" lon="1.456134">
        <ele>2087.6</ele>
        <time>2013-04-03T12:55:29Z</time>
      </trkpt>
      <trkpt lat="42.820177" lon="1.456222">
        <ele>2087.2</ele>
        <time>2013-04-03T12:55:39Z</time>
      </trkpt>
      <trkpt lat="42.820107" lon="1.456293">
        <ele>2085.2</ele>
        <time>2013-04-03T12:55:49Z</time>
      </trkpt>
      <trkpt lat="42.820039" lon="1.456369">
        <ele>2083.8</ele>
        <time>2013-04-03T12:55:58Z</time>
      </trkpt>
      <trkpt lat="42.819968" lon="1.456443">
        <ele>2082.8</ele>
        <time>2013-04-03T12:56:09Z</time>
      </trkpt>
      <trkpt lat="42.819894" lon="1.456519">
        <ele>2081.9</ele>
        <time>2013-04-03T12:56:18Z</time>
      </trkpt>
      <trkpt lat="42.819831" lon="1.456605">
        <ele>2079.5</ele>
        <time>2013-04-03T12:56:28Z</time>
      </trkpt>
      <trkpt lat="42.819775" lon="1.456695">
        <ele>2077.1</ele>
        <time>2013-04-03T12:57:25Z</time>
      </trkpt>
      <trkpt lat="42.819698" lon="1.456764">
        <ele>2073.7</ele>
        <time>2013-04-03T12:57:34Z</time>
      </trkpt>
      <trkpt lat="42.819624" lon="1.456845">
        <ele>2070.8</ele>
        <time>2013-04-03T12:57:44Z</time>
      </trkpt>
      <trkpt lat="42.819549" lon="1.456938">
        <ele>2067.0</ele>
        <time>2013-04-03T12:57:54Z</time>
      </trkpt>
      <trkpt lat="42.819480" lon="1.457038">
        <ele>2065.5</ele>
        <time>2013-04-03T12:58:02Z</time>
      </trkpt>
      <trkpt lat="42.819411" lon="1.457128">
        <ele>2063.6</ele>
        <time>2013-04-03T12:58:10Z</time>
      </trkpt>
      <trkpt lat="42.819343" lon="1.457207">
        <ele>2062.6</ele>
        <time>2013-04-03T12:58:19Z</time>
      </trkpt>
      <trkpt lat="42.819264" lon="1.457312">
        <ele>2060.7</ele>
        <time>2013-04-03T12:58:28Z</time>
      </trkpt>
      <trkpt lat="42.819192" lon="1.457408">
        <ele>2060.2</ele>
        <time>2013-04-03T12:58:37Z</time>
      </trkpt>
      <trkpt lat="42.819123" lon="1.457487">
        <ele>2059.8</ele>
        <time>2013-04-03T12:58:46Z</time>
      </trkpt>
      <trkpt lat="42.819045" lon="1.457573">
        <ele>2059.3</ele>
        <time>2013-04-03T12:58:56Z</time>
      </trkpt>
      <trkpt lat="42.818964" lon="1.457641">
        <ele>2058.3</ele>
        <time>2013-04-03T12:59:05Z</time>
      </trkpt>
      <trkpt lat="42.818882" lon="1.457701">
        <ele>2057.8</ele>
        <time>2013-04-03T12:59:14Z</time>
      </trkpt>
      <trkpt lat="42.818801" lon="1.457727">
        <ele>2056.9</ele>
        <time>2013-04-03T13:00:45Z</time>
      </trkpt>
      <trkpt lat="42.818773" lon="1.457860">
        <ele>2056.4</ele>
        <time>2013-04-03T13:00:57Z</time>
      </trkpt>
      <trkpt lat="42.818756" lon="1.457988">
        <ele>2056.4</ele>
        <time>2013-04-03T13:01:09Z</time>
      </trkpt>
      <trkpt lat="42.818697" lon="1.458084">
        <ele>2054.0</ele>
        <time>2013-04-03T13:01:28Z</time>
      </trkpt>
      <trkpt lat="42.818604" lon="1.458106">
        <ele>2047.8</ele>
        <time>2013-04-03T13:01:40Z</time>
      </trkpt>
      <trkpt lat="42.818515" lon="1.458143">
        <ele>2043.9</ele>
        <time>2013-04-03T13:01:50Z</time>
      </trkpt>
      <trkpt lat="42.818426" lon="1.458190">
        <ele>2042.0</ele>
        <time>2013-04-03T13:01:59Z</time>
      </trkpt>
      <trkpt lat="42.818336" lon="1.458218">
        <ele>2042.5</ele>
        <time>2013-04-03T13:02:12Z</time>
      </trkpt>
      <trkpt lat="42.818324" lon="1.458223">
        <ele>2041.0</ele>
        <time>2013-04-03T13:04:28Z</time>
      </trkpt>
      <trkpt lat="42.818243" lon="1.458178">
        <ele>2036.7</ele>
        <time>2013-04-03T13:07:05Z</time>
      </trkpt>
      <trkpt lat="42.818226" lon="1.458315">
        <ele>2033.3</ele>
        <time>2013-04-03T13:08:55Z</time>
      </trkpt>
      <trkpt lat="42.818182" lon="1.458248">
        <ele>2031.9</ele>
        <time>2013-04-03T13:11:41Z</time>
      </trkpt>
      <trkpt lat="42.818132" lon="1.458279">
        <ele>2028.0</ele>
        <time>2013-04-03T13:15:15Z</time>
      </trkpt>
      <trkpt lat="42.818081" lon="1.458338">
        <ele>2025.2</ele>
        <time>2013-04-03T13:15:56Z</time>
      </trkpt>
      <trkpt lat="42.818021" lon="1.458404">
        <ele>2022.8</ele>
        <time>2013-04-03T13:16:53Z</time>
      </trkpt>
      <trkpt lat="42.817917" lon="1.458432">
        <ele>2024.2</ele>
        <time>2013-04-03T13:17:09Z</time>
      </trkpt>
      <trkpt lat="42.817829" lon="1.458437">
        <ele>2023.7</ele>
        <time>2013-04-03T13:17:24Z</time>
      </trkpt>
      <trkpt lat="42.817719" lon="1.458417">
        <ele>2022.8</ele>
        <time>2013-04-03T13:17:45Z</time>
      </trkpt>
      <trkpt lat="42.817648" lon="1.458453">
        <ele>2020.3</ele>
        <time>2013-04-03T13:18:06Z</time>
      </trkpt>
      <trkpt lat="42.817602" lon="1.458447">
        <ele>2021.3</ele>
        <time>2013-04-03T13:18:41Z</time>
      </trkpt>
      <trkpt lat="42.817514" lon="1.458435">
        <ele>2018.4</ele>
        <time>2013-04-03T13:18:55Z</time>
      </trkpt>
      <trkpt lat="42.817409" lon="1.458448">
        <ele>2019.4</ele>
        <time>2013-04-03T13:19:13Z</time>
      </trkpt>
      <trkpt lat="42.817322" lon="1.458459">
        <ele>2021.8</ele>
        <time>2013-04-03T13:19:31Z</time>
      </trkpt>
      <trkpt lat="42.817246" lon="1.458519">
        <ele>2024.7</ele>
        <time>2013-04-03T13:19:46Z</time>
      </trkpt>
      <trkpt lat="42.817419" lon="1.458610">
        <ele>2025.2</ele>
        <time>2013-04-03T13:20:57Z</time>
      </trkpt>
      <trkpt lat="42.817373" lon="1.458667">
        <ele>2019.4</ele>
        <time>2013-04-03T13:21:19Z</time>
      </trkpt>
      <trkpt lat="42.817279" lon="1.458741">
        <ele>2015.1</ele>
        <time>2013-04-03T13:21:49Z</time>
      </trkpt>
      <trkpt lat="42.817295" lon="1.458854">
        <ele>2009.3</ele>
        <time>2013-04-03T13:21:57Z</time>
      </trkpt>
      <trkpt lat="42.817323" lon="1.458982">
        <ele>2004.0</ele>
        <time>2013-04-03T13:22:05Z</time>
      </trkpt>
      <trkpt lat="42.817300" lon="1.459110">
        <ele>2001.1</ele>
        <time>2013-04-03T13:22:13Z</time>
      </trkpt>
      <trkpt lat="42.817224" lon="1.459162">
        <ele>1996.8</ele>
        <time>2013-04-03T13:22:24Z</time>
      </trkpt>
      <trkpt lat="42.817177" lon="1.459258">
        <ele>1990.1</ele>
        <time>2013-04-03T13:22:33Z</time>
      </trkpt>
      <trkpt lat="42.817203" lon="1.459363">
        <ele>1987.7</ele>
        <time>2013-04-03T13:22:52Z</time>
      </trkpt>
      <trkpt lat="42.817144" lon="1.459480">
        <ele>1988.6</ele>
        <time>2013-04-03T13:23:11Z</time>
      </trkpt>
      <trkpt lat="42.817097" lon="1.459561">
        <ele>1990.1</ele>
        <time>2013-04-03T13:23:41Z</time>
      </trkpt>
      <trkpt lat="42.817013" lon="1.459663">
        <ele>1988.1</ele>
        <time>2013-04-03T13:23:52Z</time>
      </trkpt>
      <trkpt lat="42.816958" lon="1.459762">
        <ele>1985.7</ele>
        <time>2013-04-03T13:24:03Z</time>
      </trkpt>
      <trkpt lat="42.816908" lon="1.459874">
        <ele>1983.8</ele>
        <time>2013-04-03T13:24:15Z</time>
      </trkpt>
      <trkpt lat="42.816878" lon="1.459998">
        <ele>1981.4</ele>
        <time>2013-04-03T13:24:25Z</time>
      </trkpt>
      <trkpt lat="42.816822" lon="1.460093">
        <ele>1980.4</ele>
        <time>2013-04-03T13:24:35Z</time>
      </trkpt>
      <trkpt lat="42.816797" lon="1.460209">
        <ele>1978.1</ele>
        <time>2013-04-03T13:24:46Z</time>
      </trkpt>
      <trkpt lat="42.816745" lon="1.460315">
        <ele>1975.7</ele>
        <time>2013-04-03T13:24:58Z</time>
      </trkpt>
      <trkpt lat="42.816704" lon="1.460441">
        <ele>1973.2</ele>
        <time>2013-04-03T13:25:08Z</time>
      </trkpt>
      <trkpt lat="42.816663" lon="1.460561">
        <ele>1971.3</ele>
        <time>2013-04-03T13:25:21Z</time>
      </trkpt>
      <trkpt lat="42.816622" lon="1.460674">
        <ele>1970.4</ele>
        <time>2013-04-03T13:26:07Z</time>
      </trkpt>
      <trkpt lat="42.816590" lon="1.460807">
        <ele>1968.9</ele>
        <time>2013-04-03T13:26:20Z</time>
      </trkpt>
      <trkpt lat="42.816568" lon="1.460929">
        <ele>1967.5</ele>
        <time>2013-04-03T13:26:33Z</time>
      </trkpt>
      <trkpt lat="42.816552" lon="1.461039">
        <ele>1967.0</ele>
        <time>2013-04-03T13:26:44Z</time>
      </trkpt>
      <trkpt lat="42.816538" lon="1.461153">
        <ele>1967.0</ele>
        <time>2013-04-03T13:26:55Z</time>
      </trkpt>
      <trkpt lat="42.816522" lon="1.461270">
        <ele>1965.1</ele>
        <time>2013-04-03T13:27:08Z</time>
      </trkpt>
      <trkpt lat="42.816519" lon="1.461400">
        <ele>1965.1</ele>
        <time>2013-04-03T13:27:20Z</time>
      </trkpt>
      <trkpt lat="42.816498" lon="1.461392">
        <ele>1962.7</ele>
        <time>2013-04-03T13:28:15Z</time>
      </trkpt>
      <trkpt lat="42.816509" lon="1.461378">
        <ele>1980.4</ele>
        <time>2013-04-03T13:28:56Z</time>
      </trkpt>
      <trkpt lat="42.816493" lon="1.461520">
        <ele>1980.4</ele>
        <time>2013-04-03T13:31:47Z</time>
      </trkpt>
      <trkpt lat="42.816484" lon="1.461652">
        <ele>1983.3</ele>
        <time>2013-04-03T13:32:04Z</time>
      </trkpt>
      <trkpt lat="42.816458" lon="1.461791">
        <ele>1986.2</ele>
        <time>2013-04-03T13:32:19Z</time>
      </trkpt>
      <trkpt lat="42.816461" lon="1.461909">
        <ele>1988.1</ele>
        <time>2013-04-03T13:32:36Z</time>
      </trkpt>
      <trkpt lat="42.816466" lon="1.462061">
        <ele>1990.6</ele>
        <time>2013-04-03T13:32:58Z</time>
      </trkpt>
      <trkpt lat="42.816479" lon="1.462169">
        <ele>1992.9</ele>
        <time>2013-04-03T13:33:11Z</time>
      </trkpt>
      <trkpt lat="42.816488" lon="1.462306">
        <ele>1995.3</ele>
        <time>2013-04-03T13:33:23Z</time>
      </trkpt>
      <trkpt lat="42.816479" lon="1.462427">
        <ele>1997.3</ele>
        <time>2013-04-03T13:33:36Z</time>
      </trkpt>
      <trkpt lat="42.816471" lon="1.462538">
        <ele>1998.7</ele>
        <time>2013-04-03T13:33:48Z</time>
      </trkpt>
      <trkpt lat="42.816490" lon="1.462631">
        <ele>2001.1</ele>
        <time>2013-04-03T13:34:01Z</time>
      </trkpt>
      <trkpt lat="42.816531" lon="1.462717">
        <ele>2004.0</ele>
        <time>2013-04-03T13:34:18Z</time>
      </trkpt>
      <trkpt lat="42.816589" lon="1.462806">
        <ele>2007.8</ele>
        <time>2013-04-03T13:34:38Z</time>
      </trkpt>
      <trkpt lat="42.816613" lon="1.462934">
        <ele>2012.2</ele>
        <time>2013-04-03T13:34:57Z</time>
      </trkpt>
      <trkpt lat="42.816615" lon="1.463059">
        <ele>2016.5</ele>
        <time>2013-04-03T13:35:17Z</time>
      </trkpt>
      <trkpt lat="42.816634" lon="1.463145">
        <ele>2020.3</ele>
        <time>2013-04-03T13:35:37Z</time>
      </trkpt>
      <trkpt lat="42.816602" lon="1.463242">
        <ele>2023.7</ele>
        <time>2013-04-03T13:35:56Z</time>
      </trkpt>
      <trkpt lat="42.816587" lon="1.463341">
        <ele>2027.1</ele>
        <time>2013-04-03T13:36:44Z</time>
      </trkpt>
      <trkpt lat="42.816587" lon="1.463445">
        <ele>2032.4</ele>
        <time>2013-04-03T13:37:07Z</time>
      </trkpt>
      <trkpt lat="42.816583" lon="1.463543">
        <ele>2032.8</ele>
        <time>2013-04-03T13:37:28Z</time>
      </trkpt>
      <trkpt lat="42.816573" lon="1.463662">
        <ele>2035.7</ele>
        <time>2013-04-03T13:37:47Z</time>
      </trkpt>
      <trkpt lat="42.816583" lon="1.463769">
        <ele>2039.1</ele>
        <time>2013-04-03T13:38:10Z</time>
      </trkpt>
      <trkpt lat="42.816573" lon="1.463904">
        <ele>2044.9</ele>
        <time>2013-04-03T13:38:40Z</time>
      </trkpt>
      <trkpt lat="42.816563" lon="1.464006">
        <ele>2047.3</ele>
        <time>2013-04-03T13:39:00Z</time>
      </trkpt>
      <trkpt lat="42.816550" lon="1.464137">
        <ele>2051.1</ele>
        <time>2013-04-03T13:39:28Z</time>
      </trkpt>
      <trkpt lat="42.816533" lon="1.464235">
        <ele>2055.0</ele>
        <time>2013-04-03T13:39:51Z</time>
      </trkpt>
      <trkpt lat="42.816522" lon="1.464344">
        <ele>2058.8</ele>
        <time>2013-04-03T13:40:17Z</time>
      </trkpt>
      <trkpt lat="42.816463" lon="1.464439">
        <ele>2061.2</ele>
        <time>2013-04-03T13:40:34Z</time>
      </trkpt>
      <trkpt lat="42.816427" lon="1.464520">
        <ele>2065.1</ele>
        <time>2013-04-03T13:40:55Z</time>
      </trkpt>
      <trkpt lat="42.816420" lon="1.464627">
        <ele>2067.4</ele>
        <time>2013-04-03T13:41:13Z</time>
      </trkpt>
      <trkpt lat="42.816408" lon="1.464723">
        <ele>2069.9</ele>
        <time>2013-04-03T13:41:29Z</time>
      </trkpt>
      <trkpt lat="42.816441" lon="1.464824">
        <ele>2072.3</ele>
        <time>2013-04-03T13:41:44Z</time>
      </trkpt>
      <trkpt lat="42.816467" lon="1.464918">
        <ele>2075.1</ele>
        <time>2013-04-03T13:42:03Z</time>
      </trkpt>
      <trkpt lat="42.816501" lon="1.465032">
        <ele>2077.6</ele>
        <time>2013-04-03T13:42:21Z</time>
      </trkpt>
      <trkpt lat="42.816463" lon="1.465123">
        <ele>2080.9</ele>
        <time>2013-04-03T13:42:38Z</time>
      </trkpt>
      <trkpt lat="42.816451" lon="1.465226">
        <ele>2084.3</ele>
        <time>2013-04-03T13:42:57Z</time>
      </trkpt>
      <trkpt lat="42.816428" lon="1.465331">
        <ele>2087.6</ele>
        <time>2013-04-03T13:43:13Z</time>
      </trkpt>
      <trkpt lat="42.816410" lon="1.465451">
        <ele>2091.5</ele>
        <time>2013-04-03T13:43:34Z</time>
      </trkpt>
      <trkpt lat="42.816371" lon="1.465554">
        <ele>2095.3</ele>
        <time>2013-04-03T13:43:51Z</time>
      </trkpt>
      <trkpt lat="42.816353" lon="1.465681">
        <ele>2098.7</ele>
        <time>2013-04-03T13:44:09Z</time>
      </trkpt>
      <trkpt lat="42.816323" lon="1.465798">
        <ele>2100.6</ele>
        <time>2013-04-03T13:44:22Z</time>
      </trkpt>
      <trkpt lat="42.816308" lon="1.465911">
        <ele>2103.0</ele>
        <time>2013-04-03T13:44:34Z</time>
      </trkpt>
      <trkpt lat="42.816313" lon="1.466042">
        <ele>2103.5</ele>
        <time>2013-04-03T13:44:46Z</time>
      </trkpt>
      <trkpt lat="42.816335" lon="1.466170">
        <ele>2104.9</ele>
        <time>2013-04-03T13:44:59Z</time>
      </trkpt>
      <trkpt lat="42.816351" lon="1.466298">
        <ele>2104.9</ele>
        <time>2013-04-03T13:45:10Z</time>
      </trkpt>
      <trkpt lat="42.816379" lon="1.466431">
        <ele>2104.9</ele>
        <time>2013-04-03T13:45:22Z</time>
      </trkpt>
      <trkpt lat="42.816412" lon="1.466589">
        <ele>2104.5</ele>
        <time>2013-04-03T13:45:44Z</time>
      </trkpt>
      <trkpt lat="42.816445" lon="1.466697">
        <ele>2104.9</ele>
        <time>2013-04-03T13:45:58Z</time>
      </trkpt>
      <trkpt lat="42.816476" lon="1.466804">
        <ele>2105.4</ele>
        <time>2013-04-03T13:46:11Z</time>
      </trkpt>
      <trkpt lat="42.816499" lon="1.466925">
        <ele>2104.5</ele>
        <time>2013-04-03T13:46:26Z</time>
      </trkpt>
      <trkpt lat="42.816543" lon="1.467063">
        <ele>2104.5</ele>
        <time>2013-04-03T13:46:37Z</time>
      </trkpt>
      <trkpt lat="42.816578" lon="1.467179">
        <ele>2104.0</ele>
        <time>2013-04-03T13:46:48Z</time>
      </trkpt>
      <trkpt lat="42.816615" lon="1.467282">
        <ele>2103.0</ele>
        <time>2013-04-03T13:46:58Z</time>
      </trkpt>
      <trkpt lat="42.816651" lon="1.467406">
        <ele>2101.1</ele>
        <time>2013-04-03T13:47:10Z</time>
      </trkpt>
      <trkpt lat="42.816698" lon="1.467503">
        <ele>2100.6</ele>
        <time>2013-04-03T13:47:21Z</time>
      </trkpt>
      <trkpt lat="42.816733" lon="1.467624">
        <ele>2097.2</ele>
        <time>2013-04-03T13:47:32Z</time>
      </trkpt>
      <trkpt lat="42.816763" lon="1.467741">
        <ele>2093.9</ele>
        <time>2013-04-03T13:47:43Z</time>
      </trkpt>
      <trkpt lat="42.816791" lon="1.467849">
        <ele>2097.2</ele>
        <time>2013-04-03T13:48:23Z</time>
      </trkpt>
      <trkpt lat="42.816853" lon="1.467946">
        <ele>2095.8</ele>
        <time>2013-04-03T13:48:33Z</time>
      </trkpt>
      <trkpt lat="42.816895" lon="1.468060">
        <ele>2094.9</ele>
        <time>2013-04-03T13:48:43Z</time>
      </trkpt>
      <trkpt lat="42.816943" lon="1.468170">
        <ele>2094.4</ele>
        <time>2013-04-03T13:48:53Z</time>
      </trkpt>
      <trkpt lat="42.816989" lon="1.468275">
        <ele>2093.9</ele>
        <time>2013-04-03T13:49:03Z</time>
      </trkpt>
      <trkpt lat="42.817024" lon="1.468392">
        <ele>2094.4</ele>
        <time>2013-04-03T13:49:12Z</time>
      </trkpt>
      <trkpt lat="42.817072" lon="1.468495">
        <ele>2093.4</ele>
        <time>2013-04-03T13:49:22Z</time>
      </trkpt>
      <trkpt lat="42.817110" lon="1.468602">
        <ele>2093.4</ele>
        <time>2013-04-03T13:49:31Z</time>
      </trkpt>
      <trkpt lat="42.817152" lon="1.468711">
        <ele>2092.0</ele>
        <time>2013-04-03T13:49:41Z</time>
      </trkpt>
      <trkpt lat="42.817192" lon="1.468827">
        <ele>2091.5</ele>
        <time>2013-04-03T13:49:51Z</time>
      </trkpt>
      <trkpt lat="42.817241" lon="1.468948">
        <ele>2091.0</ele>
        <time>2013-04-03T13:50:01Z</time>
      </trkpt>
      <trkpt lat="42.817279" lon="1.469069">
        <ele>2091.0</ele>
        <time>2013-04-03T13:50:11Z</time>
      </trkpt>
      <trkpt lat="42.817323" lon="1.469178">
        <ele>2091.5</ele>
        <time>2013-04-03T13:50:22Z</time>
      </trkpt>
      <trkpt lat="42.817353" lon="1.469288">
        <ele>2090.5</ele>
        <time>2013-04-03T13:50:32Z</time>
      </trkpt>
      <trkpt lat="42.817390" lon="1.469403">
        <ele>2089.6</ele>
        <time>2013-04-03T13:50:42Z</time>
      </trkpt>
      <trkpt lat="42.817432" lon="1.469521">
        <ele>2088.6</ele>
        <time>2013-04-03T13:50:51Z</time>
      </trkpt>
      <trkpt lat="42.817485" lon="1.469630">
        <ele>2088.1</ele>
        <time>2013-04-03T13:51:01Z</time>
      </trkpt>
      <trkpt lat="42.817527" lon="1.469752">
        <ele>2088.1</ele>
        <time>2013-04-03T13:51:11Z</time>
      </trkpt>
      <trkpt lat="42.817578" lon="1.469861">
        <ele>2088.6</ele>
        <time>2013-04-03T13:51:21Z</time>
      </trkpt>
      <trkpt lat="42.817617" lon="1.469976">
        <ele>2088.1</ele>
        <time>2013-04-03T13:51:32Z</time>
      </trkpt>
      <trkpt lat="42.817665" lon="1.470081">
        <ele>2086.7</ele>
        <time>2013-04-03T13:51:42Z</time>
      </trkpt>
      <trkpt lat="42.817710" lon="1.470184">
        <ele>2086.2</ele>
        <time>2013-04-03T13:51:52Z</time>
      </trkpt>
      <trkpt lat="42.817743" lon="1.470308">
        <ele>2088.1</ele>
        <time>2013-04-03T13:52:03Z</time>
      </trkpt>
      <trkpt lat="42.817787" lon="1.470428">
        <ele>2087.6</ele>
        <time>2013-04-03T13:52:13Z</time>
      </trkpt>
      <trkpt lat="42.817844" lon="1.470541">
        <ele>2088.1</ele>
        <time>2013-04-03T13:52:24Z</time>
      </trkpt>
      <trkpt lat="42.817900" lon="1.470632">
        <ele>2088.1</ele>
        <time>2013-04-03T13:53:55Z</time>
      </trkpt>
      <trkpt lat="42.817926" lon="1.470751">
        <ele>2088.1</ele>
        <time>2013-04-03T13:54:04Z</time>
      </trkpt>
      <trkpt lat="42.817964" lon="1.470873">
        <ele>2087.2</ele>
        <time>2013-04-03T13:54:13Z</time>
      </trkpt>
      <trkpt lat="42.818003" lon="1.470994">
        <ele>2087.2</ele>
        <time>2013-04-03T13:54:23Z</time>
      </trkpt>
      <trkpt lat="42.818036" lon="1.471106">
        <ele>2088.1</ele>
        <time>2013-04-03T13:54:32Z</time>
      </trkpt>
      <trkpt lat="42.818075" lon="1.471229">
        <ele>2087.2</ele>
        <time>2013-04-03T13:54:42Z</time>
      </trkpt>
      <trkpt lat="42.818105" lon="1.471358">
        <ele>2086.7</ele>
        <time>2013-04-03T13:54:52Z</time>
      </trkpt>
      <trkpt lat="42.818146" lon="1.471475">
        <ele>2086.2</ele>
        <time>2013-04-03T13:55:02Z</time>
      </trkpt>
      <trkpt lat="42.818174" lon="1.471600">
        <ele>2085.7</ele>
        <time>2013-04-03T13:55:11Z</time>
      </trkpt>
      <trkpt lat="42.818214" lon="1.471731">
        <ele>2084.3</ele>
        <time>2013-04-03T13:55:20Z</time>
      </trkpt>
      <trkpt lat="42.818254" lon="1.471850">
        <ele>2082.8</ele>
        <time>2013-04-03T13:55:29Z</time>
      </trkpt>
      <trkpt lat="42.818299" lon="1.471962">
        <ele>2083.3</ele>
        <time>2013-04-03T13:55:39Z</time>
      </trkpt>
      <trkpt lat="42.818354" lon="1.472078">
        <ele>2082.8</ele>
        <time>2013-04-03T13:55:48Z</time>
      </trkpt>
      <trkpt lat="42.818409" lon="1.472172">
        <ele>2082.8</ele>
        <time>2013-04-03T13:55:56Z</time>
      </trkpt>
      <trkpt lat="42.818465" lon="1.472273">
        <ele>2082.4</ele>
        <time>2013-04-03T13:56:05Z</time>
      </trkpt>
      <trkpt lat="42.818534" lon="1.472387">
        <ele>2081.9</ele>
        <time>2013-04-03T13:56:15Z</time>
      </trkpt>
      <trkpt lat="42.818579" lon="1.472509">
        <ele>2081.9</ele>
        <time>2013-04-03T13:56:24Z</time>
      </trkpt>
      <trkpt lat="42.818625" lon="1.472632">
        <ele>2081.9</ele>
        <time>2013-04-03T13:56:33Z</time>
      </trkpt>
      <trkpt lat="42.818664" lon="1.472753">
        <ele>2082.4</ele>
        <time>2013-04-03T13:56:42Z</time>
      </trkpt>
      <trkpt lat="42.818724" lon="1.472872">
        <ele>2083.3</ele>
        <time>2013-04-03T13:56:52Z</time>
      </trkpt>
      <trkpt lat="42.818779" lon="1.472984">
        <ele>2083.8</ele>
        <time>2013-04-03T13:57:01Z</time>
      </trkpt>
      <trkpt lat="42.818840" lon="1.473098">
        <ele>2085.2</ele>
        <time>2013-04-03T13:57:10Z</time>
      </trkpt>
      <trkpt lat="42.818897" lon="1.473200">
        <ele>2087.2</ele>
        <time>2013-04-03T13:57:19Z</time>
      </trkpt>
      <trkpt lat="42.818933" lon="1.473324">
        <ele>2089.1</ele>
        <time>2013-04-03T13:57:29Z</time>
      </trkpt>
      <trkpt lat="42.818976" lon="1.473426">
        <ele>2090.5</ele>
        <time>2013-04-03T13:57:40Z</time>
      </trkpt>
      <trkpt lat="42.819016" lon="1.473538">
        <ele>2092.0</ele>
        <time>2013-04-03T13:57:53Z</time>
      </trkpt>
      <trkpt lat="42.819053" lon="1.473663">
        <ele>2092.4</ele>
        <time>2013-04-03T13:58:04Z</time>
      </trkpt>
      <trkpt lat="42.819084" lon="1.473788">
        <ele>2093.9</ele>
        <time>2013-04-03T13:58:16Z</time>
      </trkpt>
      <trkpt lat="42.819121" lon="1.473909">
        <ele>2095.3</ele>
        <time>2013-04-03T13:58:28Z</time>
      </trkpt>
      <trkpt lat="42.819167" lon="1.474019">
        <ele>2096.8</ele>
        <time>2013-04-03T13:58:39Z</time>
      </trkpt>
      <trkpt lat="42.819211" lon="1.474130">
        <ele>2098.2</ele>
        <time>2013-04-03T13:58:52Z</time>
      </trkpt>
      <trkpt lat="42.819235" lon="1.474249">
        <ele>2099.7</ele>
        <time>2013-04-03T13:59:05Z</time>
      </trkpt>
      <trkpt lat="42.819258" lon="1.474367">
        <ele>2100.6</ele>
        <time>2013-04-03T13:59:19Z</time>
      </trkpt>
      <trkpt lat="42.819290" lon="1.474477">
        <ele>2102.5</ele>
        <time>2013-04-03T13:59:32Z</time>
      </trkpt>
      <trkpt lat="42.819310" lon="1.474597">
        <ele>2104.9</ele>
        <time>2013-04-03T13:59:45Z</time>
      </trkpt>
      <trkpt lat="42.819322" lon="1.474711">
        <ele>2104.9</ele>
        <time>2013-04-03T13:59:57Z</time>
      </trkpt>
      <trkpt lat="42.819335" lon="1.474825">
        <ele>2106.4</ele>
        <time>2013-04-03T14:00:10Z</time>
      </trkpt>
      <trkpt lat="42.819347" lon="1.474940">
        <ele>2108.3</ele>
        <time>2013-04-03T14:00:24Z</time>
      </trkpt>
      <trkpt lat="42.819352" lon="1.475066">
        <ele>2109.3</ele>
        <time>2013-04-03T14:00:37Z</time>
      </trkpt>
      <trkpt lat="42.819359" lon="1.475196">
        <ele>2110.7</ele>
        <time>2013-04-03T14:00:50Z</time>
      </trkpt>
      <trkpt lat="42.819374" lon="1.475327">
        <ele>2111.7</ele>
        <time>2013-04-03T14:01:03Z</time>
      </trkpt>
      <trkpt lat="42.819383" lon="1.475458">
        <ele>2112.6</ele>
        <time>2013-04-03T14:01:16Z</time>
      </trkpt>
      <trkpt lat="42.819384" lon="1.475580">
        <ele>2113.6</ele>
        <time>2013-04-03T14:01:30Z</time>
      </trkpt>
      <trkpt lat="42.819395" lon="1.475698">
        <ele>2114.6</ele>
        <time>2013-04-03T14:01:44Z</time>
      </trkpt>
      <trkpt lat="42.819383" lon="1.475816">
        <ele>2115.0</ele>
        <time>2013-04-03T14:01:56Z</time>
      </trkpt>
      <trkpt lat="42.819403" lon="1.475937">
        <ele>2116.5</ele>
        <time>2013-04-03T14:02:08Z</time>
      </trkpt>
      <trkpt lat="42.819416" lon="1.476077">
        <ele>2116.0</ele>
        <time>2013-04-03T14:02:22Z</time>
      </trkpt>
      <trkpt lat="42.819439" lon="1.476204">
        <ele>2118.9</ele>
        <time>2013-04-03T14:02:35Z</time>
      </trkpt>
      <trkpt lat="42.819461" lon="1.476330">
        <ele>2120.3</ele>
        <time>2013-04-03T14:02:48Z</time>
      </trkpt>
      <trkpt lat="42.819485" lon="1.476463">
        <ele>2121.3</ele>
        <time>2013-04-03T14:03:02Z</time>
      </trkpt>
      <trkpt lat="42.819515" lon="1.476580">
        <ele>2122.2</ele>
        <time>2013-04-03T14:03:15Z</time>
      </trkpt>
      <trkpt lat="42.819505" lon="1.476672">
        <ele>2122.7</ele>
        <time>2013-04-03T14:03:43Z</time>
      </trkpt>
      <trkpt lat="42.819532" lon="1.476785">
        <ele>2124.2</ele>
        <time>2013-04-03T14:03:55Z</time>
      </trkpt>
      <trkpt lat="42.819555" lon="1.476908">
        <ele>2125.6</ele>
        <time>2013-04-03T14:04:07Z</time>
      </trkpt>
      <trkpt lat="42.819581" lon="1.477040">
        <ele>2126.6</ele>
        <time>2013-04-03T14:04:20Z</time>
      </trkpt>
      <trkpt lat="42.819576" lon="1.477177">
        <ele>2127.5</ele>
        <time>2013-04-03T14:04:34Z</time>
      </trkpt>
      <trkpt lat="42.819617" lon="1.477300">
        <ele>2130.4</ele>
        <time>2013-04-03T14:04:47Z</time>
      </trkpt>
      <trkpt lat="42.819636" lon="1.477426">
        <ele>2131.9</ele>
        <time>2013-04-03T14:05:00Z</time>
      </trkpt>
      <trkpt lat="42.819664" lon="1.477548">
        <ele>2133.3</ele>
        <time>2013-04-03T14:05:13Z</time>
      </trkpt>
      <trkpt lat="42.819667" lon="1.477684">
        <ele>2133.8</ele>
        <time>2013-04-03T14:05:25Z</time>
      </trkpt>
      <trkpt lat="42.819679" lon="1.477769">
        <ele>2135.7</ele>
        <time>2013-04-03T14:05:37Z</time>
      </trkpt>
      <trkpt lat="42.819681" lon="1.477899">
        <ele>2136.7</ele>
        <time>2013-04-03T14:05:49Z</time>
      </trkpt>
      <trkpt lat="42.819689" lon="1.478000">
        <ele>2138.1</ele>
        <time>2013-04-03T14:06:02Z</time>
      </trkpt>
      <trkpt lat="42.819687" lon="1.478127">
        <ele>2138.1</ele>
        <time>2013-04-03T14:06:16Z</time>
      </trkpt>
      <trkpt lat="42.819702" lon="1.478249">
        <ele>2139.1</ele>
        <time>2013-04-03T14:06:28Z</time>
      </trkpt>
      <trkpt lat="42.819726" lon="1.478373">
        <ele>2140.5</ele>
        <time>2013-04-03T14:06:41Z</time>
      </trkpt>
      <trkpt lat="42.819763" lon="1.478508">
        <ele>2141.9</ele>
        <time>2013-04-03T14:07:10Z</time>
      </trkpt>
      <trkpt lat="42.819793" lon="1.478627">
        <ele>2143.9</ele>
        <time>2013-04-03T14:07:22Z</time>
      </trkpt>
      <trkpt lat="42.819811" lon="1.478741">
        <ele>2144.8</ele>
        <time>2013-04-03T14:07:34Z</time>
      </trkpt>
      <trkpt lat="42.819815" lon="1.478863">
        <ele>2145.8</ele>
        <time>2013-04-03T14:07:47Z</time>
      </trkpt>
      <trkpt lat="42.819815" lon="1.479006">
        <ele>2146.8</ele>
        <time>2013-04-03T14:08:00Z</time>
      </trkpt>
      <trkpt lat="42.819825" lon="1.479133">
        <ele>2147.7</ele>
        <time>2013-04-03T14:08:13Z</time>
      </trkpt>
      <trkpt lat="42.819826" lon="1.479264">
        <ele>2148.2</ele>
        <time>2013-04-03T14:08:26Z</time>
      </trkpt>
      <trkpt lat="42.819850" lon="1.479387">
        <ele>2149.6</ele>
        <time>2013-04-03T14:08:40Z</time>
      </trkpt>
      <trkpt lat="42.819859" lon="1.479508">
        <ele>2149.6</ele>
        <time>2013-04-03T14:08:52Z</time>
      </trkpt>
      <trkpt lat="42.819854" lon="1.479650">
        <ele>2149.2</ele>
        <time>2013-04-03T14:09:05Z</time>
      </trkpt>
      <trkpt lat="42.819845" lon="1.479763">
        <ele>2148.2</ele>
        <time>2013-04-03T14:09:20Z</time>
      </trkpt>
      <trkpt lat="42.819837" lon="1.479895">
        <ele>2145.8</ele>
        <time>2013-04-03T14:09:35Z</time>
      </trkpt>
      <trkpt lat="42.819872" lon="1.480004">
        <ele>2144.8</ele>
        <time>2013-04-03T14:09:48Z</time>
      </trkpt>
      <trkpt lat="42.819952" lon="1.480073">
        <ele>2144.4</ele>
        <time>2013-04-03T14:10:02Z</time>
      </trkpt>
      <trkpt lat="42.820030" lon="1.480132">
        <ele>2145.3</ele>
        <time>2013-04-03T14:10:18Z</time>
      </trkpt>
      <trkpt lat="42.820113" lon="1.480203">
        <ele>2146.3</ele>
        <time>2013-04-03T14:10:30Z</time>
      </trkpt>
      <trkpt lat="42.820167" lon="1.480298">
        <ele>2144.8</ele>
        <time>2013-04-03T14:10:43Z</time>
      </trkpt>
      <trkpt lat="42.820155" lon="1.480408">
        <ele>2139.1</ele>
        <time>2013-04-03T14:10:59Z</time>
      </trkpt>
      <trkpt lat="42.820152" lon="1.480527">
        <ele>2134.7</ele>
        <time>2013-04-03T14:11:14Z</time>
      </trkpt>
      <trkpt lat="42.820142" lon="1.480620">
        <ele>2129.5</ele>
        <time>2013-04-03T14:12:06Z</time>
      </trkpt>
      <trkpt lat="42.820220" lon="1.480665">
        <ele>2124.6</ele>
        <time>2013-04-03T14:12:41Z</time>
      </trkpt>
      <trkpt lat="42.820200" lon="1.480789">
        <ele>2118.9</ele>
        <time>2013-04-03T14:13:10Z</time>
      </trkpt>
      <trkpt lat="42.820170" lon="1.480924">
        <ele>2114.1</ele>
        <time>2013-04-03T14:13:22Z</time>
      </trkpt>
      <trkpt lat="42.820216" lon="1.481054">
        <ele>2109.8</ele>
        <time>2013-04-03T14:13:37Z</time>
      </trkpt>
      <trkpt lat="42.820233" lon="1.481186">
        <ele>2107.4</ele>
        <time>2013-04-03T14:13:54Z</time>
      </trkpt>
      <trkpt lat="42.820224" lon="1.481301">
        <ele>2107.4</ele>
        <time>2013-04-03T14:14:09Z</time>
      </trkpt>
      <trkpt lat="42.820186" lon="1.481413">
        <ele>2110.7</ele>
        <time>2013-04-03T14:14:32Z</time>
      </trkpt>
      <trkpt lat="42.820204" lon="1.481503">
        <ele>2107.8</ele>
        <time>2013-04-03T14:15:10Z</time>
      </trkpt>
      <trkpt lat="42.820229" lon="1.481636">
        <ele>2106.4</ele>
        <time>2013-04-03T14:15:23Z</time>
      </trkpt>
      <trkpt lat="42.820219" lon="1.481723">
        <ele>2104.5</ele>
        <time>2013-04-03T14:15:43Z</time>
      </trkpt>
      <trkpt lat="42.820177" lon="1.481817">
        <ele>2101.6</ele>
        <time>2013-04-03T14:16:16Z</time>
      </trkpt>
      <trkpt lat="42.820121" lon="1.481869">
        <ele>2098.7</ele>
        <time>2013-04-03T14:16:27Z</time>
      </trkpt>
      <trkpt lat="42.820051" lon="1.481935">
        <ele>2094.9</ele>
        <time>2013-04-03T14:16:43Z</time>
      </trkpt>
      <trkpt lat="42.819980" lon="1.481960">
        <ele>2090.5</ele>
        <time>2013-04-03T14:17:01Z</time>
      </trkpt>
      <trkpt lat="42.819921" lon="1.482025">
        <ele>2085.2</ele>
        <time>2013-04-03T14:17:23Z</time>
      </trkpt>
      <trkpt lat="42.819877" lon="1.482110">
        <ele>2082.8</ele>
        <time>2013-04-03T14:17:39Z</time>
      </trkpt>
      <trkpt lat="42.819795" lon="1.482190">
        <ele>2082.4</ele>
        <time>2013-04-03T14:17:52Z</time>
      </trkpt>
      <trkpt lat="42.819740" lon="1.482261">
        <ele>2081.4</ele>
        <time>2013-04-03T14:18:15Z</time>
      </trkpt>
      <trkpt lat="42.819735" lon="1.482378">
        <ele>2079.9</ele>
        <time>2013-04-03T14:18:46Z</time>
      </trkpt>
      <trkpt lat="42.819732" lon="1.482500">
        <ele>2078.5</ele>
        <time>2013-04-03T14:18:57Z</time>
      </trkpt>
      <trkpt lat="42.819723" lon="1.482628">
        <ele>2076.1</ele>
        <time>2013-04-03T14:19:09Z</time>
      </trkpt>
      <trkpt lat="42.819727" lon="1.482759">
        <ele>2072.3</ele>
        <time>2013-04-03T14:19:22Z</time>
      </trkpt>
      <trkpt lat="42.819706" lon="1.482870">
        <ele>2069.9</ele>
        <time>2013-04-03T14:19:31Z</time>
      </trkpt>
      <trkpt lat="42.819706" lon="1.483005">
        <ele>2067.4</ele>
        <time>2013-04-03T14:19:41Z</time>
      </trkpt>
      <trkpt lat="42.819657" lon="1.483130">
        <ele>2065.1</ele>
        <time>2013-04-03T14:19:53Z</time>
      </trkpt>
      <trkpt lat="42.819604" lon="1.483238">
        <ele>2063.1</ele>
        <time>2013-04-03T14:20:07Z</time>
      </trkpt>
      <trkpt lat="42.819586" lon="1.483366">
        <ele>2061.2</ele>
        <time>2013-04-03T14:20:17Z</time>
      </trkpt>
      <trkpt lat="42.819565" lon="1.483483">
        <ele>2059.8</ele>
        <time>2013-04-03T14:20:28Z</time>
      </trkpt>
      <trkpt lat="42.819553" lon="1.483603">
        <ele>2058.3</ele>
        <time>2013-04-03T14:20:41Z</time>
      </trkpt>
      <trkpt lat="42.819506" lon="1.483719">
        <ele>2055.9</ele>
        <time>2013-04-03T14:20:52Z</time>
      </trkpt>
      <trkpt lat="42.819471" lon="1.483840">
        <ele>2054.5</ele>
        <time>2013-04-03T14:21:03Z</time>
      </trkpt>
      <trkpt lat="42.819436" lon="1.483968">
        <ele>2052.1</ele>
        <time>2013-04-03T14:21:13Z</time>
      </trkpt>
      <trkpt lat="42.819408" lon="1.484110">
        <ele>2048.2</ele>
        <time>2013-04-03T14:21:24Z</time>
      </trkpt>
      <trkpt lat="42.819391" lon="1.484246">
        <ele>2046.8</ele>
        <time>2013-04-03T14:21:35Z</time>
      </trkpt>
      <trkpt lat="42.819362" lon="1.484369">
        <ele>2044.9</ele>
        <time>2013-04-03T14:21:45Z</time>
      </trkpt>
      <trkpt lat="42.819335" lon="1.484503">
        <ele>2043.4</ele>
        <time>2013-04-03T14:21:56Z</time>
      </trkpt>
      <trkpt lat="42.819281" lon="1.484624">
        <ele>2042.5</ele>
        <time>2013-04-03T14:22:08Z</time>
      </trkpt>
      <trkpt lat="42.819232" lon="1.484719">
        <ele>2041.0</ele>
        <time>2013-04-03T14:22:18Z</time>
      </trkpt>
      <trkpt lat="42.819154" lon="1.484796">
        <ele>2037.7</ele>
        <time>2013-04-03T14:22:31Z</time>
      </trkpt>
      <trkpt lat="42.819106" lon="1.484911">
        <ele>2036.2</ele>
        <time>2013-04-03T14:22:42Z</time>
      </trkpt>
      <trkpt lat="42.819067" lon="1.485036">
        <ele>2034.8</ele>
        <time>2013-04-03T14:22:52Z</time>
      </trkpt>
      <trkpt lat="42.819023" lon="1.485141">
        <ele>2032.8</ele>
        <time>2013-04-03T14:23:02Z</time>
      </trkpt>
      <trkpt lat="42.818980" lon="1.485261">
        <ele>2030.0</ele>
        <time>2013-04-03T14:23:13Z</time>
      </trkpt>
      <trkpt lat="42.818898" lon="1.485352">
        <ele>2026.6</ele>
        <time>2013-04-03T14:23:27Z</time>
      </trkpt>
      <trkpt lat="42.818845" lon="1.485476">
        <ele>2027.1</ele>
        <time>2013-04-03T14:23:41Z</time>
      </trkpt>
      <trkpt lat="42.818788" lon="1.485583">
        <ele>2027.1</ele>
        <time>2013-04-03T14:23:59Z</time>
      </trkpt>
      <trkpt lat="42.818735" lon="1.485673">
        <ele>2027.6</ele>
        <time>2013-04-03T14:24:14Z</time>
      </trkpt>
      <trkpt lat="42.818668" lon="1.485722">
        <ele>2028.0</ele>
        <time>2013-04-03T14:24:31Z</time>
      </trkpt>
      <trkpt lat="42.818636" lon="1.485816">
        <ele>2028.0</ele>
        <time>2013-04-03T14:24:54Z</time>
      </trkpt>
      <trkpt lat="42.818556" lon="1.485910">
        <ele>2029.0</ele>
        <time>2013-04-03T14:25:38Z</time>
      </trkpt>
      <trkpt lat="42.818438" lon="1.485946">
        <ele>2027.6</ele>
        <time>2013-04-03T14:25:57Z</time>
      </trkpt>
      <trkpt lat="42.818388" lon="1.486068">
        <ele>2030.0</ele>
        <time>2013-04-03T14:26:14Z</time>
      </trkpt>
      <trkpt lat="42.818472" lon="1.486110">
        <ele>2033.8</ele>
        <time>2013-04-03T14:26:36Z</time>
      </trkpt>
      <trkpt lat="42.818409" lon="1.486182">
        <ele>2037.7</ele>
        <time>2013-04-03T14:26:58Z</time>
      </trkpt>
      <trkpt lat="42.818382" lon="1.486278">
        <ele>2042.0</ele>
        <time>2013-04-03T14:27:28Z</time>
      </trkpt>
      <trkpt lat="42.818325" lon="1.486385">
        <ele>2045.8</ele>
        <time>2013-04-03T14:27:52Z</time>
      </trkpt>
      <trkpt lat="42.818280" lon="1.486477">
        <ele>2048.7</ele>
        <time>2013-04-03T14:28:12Z</time>
      </trkpt>
      <trkpt lat="42.818273" lon="1.486567">
        <ele>2052.6</ele>
        <time>2013-04-03T14:28:41Z</time>
      </trkpt>
      <trkpt lat="42.818223" lon="1.486671">
        <ele>2055.4</ele>
        <time>2013-04-03T14:28:57Z</time>
      </trkpt>
      <trkpt lat="42.818204" lon="1.486778">
        <ele>2057.8</ele>
        <time>2013-04-03T14:29:11Z</time>
      </trkpt>
      <trkpt lat="42.818197" lon="1.486898">
        <ele>2061.2</ele>
        <time>2013-04-03T14:29:31Z</time>
      </trkpt>
      <trkpt lat="42.818187" lon="1.487018">
        <ele>2063.1</ele>
        <time>2013-04-03T14:29:55Z</time>
      </trkpt>
      <trkpt lat="42.818167" lon="1.487125">
        <ele>2064.6</ele>
        <time>2013-04-03T14:30:09Z</time>
      </trkpt>
      <trkpt lat="42.818139" lon="1.487238">
        <ele>2065.5</ele>
        <time>2013-04-03T14:30:22Z</time>
      </trkpt>
      <trkpt lat="42.818099" lon="1.487352">
        <ele>2067.0</ele>
        <time>2013-04-03T14:30:34Z</time>
      </trkpt>
      <trkpt lat="42.818068" lon="1.487462">
        <ele>2067.9</ele>
        <time>2013-04-03T14:30:47Z</time>
      </trkpt>
      <trkpt lat="42.818037" lon="1.487581">
        <ele>2069.4</ele>
        <time>2013-04-03T14:31:01Z</time>
      </trkpt>
      <trkpt lat="42.818018" lon="1.487695">
        <ele>2070.3</ele>
        <time>2013-04-03T14:31:13Z</time>
      </trkpt>
      <trkpt lat="42.817996" lon="1.487809">
        <ele>2071.8</ele>
        <time>2013-04-03T14:31:27Z</time>
      </trkpt>
      <trkpt lat="42.817950" lon="1.487931">
        <ele>2072.7</ele>
        <time>2013-04-03T14:31:40Z</time>
      </trkpt>
      <trkpt lat="42.817887" lon="1.488052">
        <ele>2073.2</ele>
        <time>2013-04-03T14:31:53Z</time>
      </trkpt>
      <trkpt lat="42.817842" lon="1.488157">
        <ele>2074.7</ele>
        <time>2013-04-03T14:32:05Z</time>
      </trkpt>
      <trkpt lat="42.817804" lon="1.488272">
        <ele>2075.1</ele>
        <time>2013-04-03T14:32:20Z</time>
      </trkpt>
      <trkpt lat="42.817744" lon="1.488377">
        <ele>2076.1</ele>
        <time>2013-04-03T14:32:32Z</time>
      </trkpt>
      <trkpt lat="42.817685" lon="1.488473">
        <ele>2077.1</ele>
        <time>2013-04-03T14:32:43Z</time>
      </trkpt>
      <trkpt lat="42.817631" lon="1.488588">
        <ele>2077.6</ele>
        <time>2013-04-03T14:32:56Z</time>
      </trkpt>
      <trkpt lat="42.817586" lon="1.488684">
        <ele>2078.5</ele>
        <time>2013-04-03T14:33:10Z</time>
      </trkpt>
      <trkpt lat="42.817546" lon="1.488787">
        <ele>2079.5</ele>
        <time>2013-04-03T14:33:24Z</time>
      </trkpt>
      <trkpt lat="42.817498" lon="1.488892">
        <ele>2080.4</ele>
        <time>2013-04-03T14:33:38Z</time>
      </trkpt>
      <trkpt lat="42.817447" lon="1.489005">
        <ele>2081.4</ele>
        <time>2013-04-03T14:33:50Z</time>
      </trkpt>
      <trkpt lat="42.817401" lon="1.489105">
        <ele>2083.3</ele>
        <time>2013-04-03T14:34:01Z</time>
      </trkpt>
      <trkpt lat="42.817339" lon="1.489220">
        <ele>2083.8</ele>
        <time>2013-04-03T14:34:10Z</time>
      </trkpt>
      <trkpt lat="42.817297" lon="1.489322">
        <ele>2085.2</ele>
        <time>2013-04-03T14:34:21Z</time>
      </trkpt>
      <trkpt lat="42.817254" lon="1.489431">
        <ele>2086.7</ele>
        <time>2013-04-03T14:34:30Z</time>
      </trkpt>
      <trkpt lat="42.817211" lon="1.489526">
        <ele>2088.1</ele>
        <time>2013-04-03T14:34:42Z</time>
      </trkpt>
      <trkpt lat="42.817170" lon="1.489627">
        <ele>2090.0</ele>
        <time>2013-04-03T14:34:55Z</time>
      </trkpt>
      <trkpt lat="42.817127" lon="1.489731">
        <ele>2092.4</ele>
        <time>2013-04-03T14:35:07Z</time>
      </trkpt>
      <trkpt lat="42.817090" lon="1.489834">
        <ele>2093.4</ele>
        <time>2013-04-03T14:35:19Z</time>
      </trkpt>
      <trkpt lat="42.817049" lon="1.489951">
        <ele>2094.9</ele>
        <time>2013-04-03T14:35:31Z</time>
      </trkpt>
      <trkpt lat="42.817020" lon="1.490062">
        <ele>2095.8</ele>
        <time>2013-04-03T14:35:45Z</time>
      </trkpt>
      <trkpt lat="42.816971" lon="1.490177">
        <ele>2097.2</ele>
        <time>2013-04-03T14:35:59Z</time>
      </trkpt>
      <trkpt lat="42.816929" lon="1.490290">
        <ele>2097.7</ele>
        <time>2013-04-03T14:36:12Z</time>
      </trkpt>
      <trkpt lat="42.816884" lon="1.490413">
        <ele>2099.7</ele>
        <time>2013-04-03T14:36:26Z</time>
      </trkpt>
      <trkpt lat="42.816844" lon="1.490540">
        <ele>2100.6</ele>
        <time>2013-04-03T14:36:39Z</time>
      </trkpt>
      <trkpt lat="42.816795" lon="1.490641">
        <ele>2102.1</ele>
        <time>2013-04-03T14:36:51Z</time>
      </trkpt>
      <trkpt lat="42.816751" lon="1.490751">
        <ele>2102.5</ele>
        <time>2013-04-03T14:37:04Z</time>
      </trkpt>
      <trkpt lat="42.816707" lon="1.490869">
        <ele>2104.0</ele>
        <time>2013-04-03T14:37:15Z</time>
      </trkpt>
      <trkpt lat="42.816654" lon="1.490980">
        <ele>2104.5</ele>
        <time>2013-04-03T14:37:26Z</time>
      </trkpt>
      <trkpt lat="42.816598" lon="1.491104">
        <ele>2104.9</ele>
        <time>2013-04-03T14:37:38Z</time>
      </trkpt>
      <trkpt lat="42.816555" lon="1.491223">
        <ele>2105.9</ele>
        <time>2013-04-03T14:37:50Z</time>
      </trkpt>
      <trkpt lat="42.816499" lon="1.491325">
        <ele>2106.9</ele>
        <time>2013-04-03T14:38:01Z</time>
      </trkpt>
      <trkpt lat="42.816442" lon="1.491421">
        <ele>2107.8</ele>
        <time>2013-04-03T14:38:13Z</time>
      </trkpt>
      <trkpt lat="42.816376" lon="1.491511">
        <ele>2106.9</ele>
        <time>2013-04-03T14:38:26Z</time>
      </trkpt>
      <trkpt lat="42.816314" lon="1.491602">
        <ele>2108.8</ele>
        <time>2013-04-03T14:38:39Z</time>
      </trkpt>
      <trkpt lat="42.816257" lon="1.491702">
        <ele>2111.2</ele>
        <time>2013-04-03T14:38:53Z</time>
      </trkpt>
      <trkpt lat="42.816185" lon="1.491792">
        <ele>2111.7</ele>
        <time>2013-04-03T14:39:10Z</time>
      </trkpt>
      <trkpt lat="42.816118" lon="1.491890">
        <ele>2113.1</ele>
        <time>2013-04-03T14:39:23Z</time>
      </trkpt>
      <trkpt lat="42.816037" lon="1.491969">
        <ele>2113.6</ele>
        <time>2013-04-03T14:39:35Z</time>
      </trkpt>
      <trkpt lat="42.815978" lon="1.492077">
        <ele>2115.0</ele>
        <time>2013-04-03T14:39:49Z</time>
      </trkpt>
      <trkpt lat="42.815930" lon="1.492180">
        <ele>2116.5</ele>
        <time>2013-04-03T14:40:01Z</time>
      </trkpt>
      <trkpt lat="42.815891" lon="1.492283">
        <ele>2117.9</ele>
        <time>2013-04-03T14:40:14Z</time>
      </trkpt>
      <trkpt lat="42.815867" lon="1.492302">
        <ele>2116.0</ele>
        <time>2013-04-03T14:44:12Z</time>
      </trkpt>
      <trkpt lat="42.815836" lon="1.492304">
        <ele>2117.4</ele>
        <time>2013-04-03T14:50:19Z</time>
      </trkpt>
      <trkpt lat="42.815779" lon="1.492403">
        <ele>2117.9</ele>
        <time>2013-04-03T14:50:28Z</time>
      </trkpt>
      <trkpt lat="42.815709" lon="1.492495">
        <ele>2117.9</ele>
        <time>2013-04-03T14:50:37Z</time>
      </trkpt>
      <trkpt lat="42.815641" lon="1.492588">
        <ele>2117.9</ele>
        <time>2013-04-03T14:50:46Z</time>
      </trkpt>
      <trkpt lat="42.815592" lon="1.492688">
        <ele>2118.9</ele>
        <time>2013-04-03T14:50:57Z</time>
      </trkpt>
      <trkpt lat="42.815523" lon="1.492786">
        <ele>2119.8</ele>
        <time>2013-04-03T14:51:07Z</time>
        <name>Pic de Bassibie</name>
      </trkpt>
      <trkpt lat="42.815467" lon="1.492881">
        <ele>2120.8</ele>
        <time>2013-04-03T14:51:17Z</time>
      </trkpt>
      <trkpt lat="42.815453" lon="1.492900">
        <ele>2118.4</ele>
        <time>2013-04-03T14:53:50Z</time>
      </trkpt>
      <trkpt lat="42.815373" lon="1.492920">
        <ele>2116.0</ele>
        <time>2013-04-03T14:55:00Z</time>
      </trkpt>
      <trkpt lat="42.815327" lon="1.493025">
        <ele>2114.6</ele>
        <time>2013-04-03T14:55:13Z</time>
      </trkpt>
      <trkpt lat="42.815273" lon="1.493116">
        <ele>2112.6</ele>
        <time>2013-04-03T14:55:23Z</time>
      </trkpt>
      <trkpt lat="42.815200" lon="1.493204">
        <ele>2110.2</ele>
        <time>2013-04-03T14:55:34Z</time>
      </trkpt>
      <trkpt lat="42.815117" lon="1.493272">
        <ele>2107.4</ele>
        <time>2013-04-03T14:55:44Z</time>
      </trkpt>
      <trkpt lat="42.815043" lon="1.493353">
        <ele>2105.4</ele>
        <time>2013-04-03T14:55:53Z</time>
      </trkpt>
      <trkpt lat="42.814980" lon="1.493448">
        <ele>2104.5</ele>
        <time>2013-04-03T14:56:12Z</time>
      </trkpt>
      <trkpt lat="42.814901" lon="1.493536">
        <ele>2102.5</ele>
        <time>2013-04-03T14:56:22Z</time>
      </trkpt>
      <trkpt lat="42.814819" lon="1.493617">
        <ele>2101.1</ele>
        <time>2013-04-03T14:56:32Z</time>
      </trkpt>
      <trkpt lat="42.814750" lon="1.493669">
        <ele>2100.1</ele>
        <time>2013-04-03T14:56:41Z</time>
      </trkpt>
      <trkpt lat="42.814669" lon="1.493744">
        <ele>2098.7</ele>
        <time>2013-04-03T14:56:50Z</time>
      </trkpt>
      <trkpt lat="42.814592" lon="1.493829">
        <ele>2097.7</ele>
        <time>2013-04-03T14:56:59Z</time>
      </trkpt>
      <trkpt lat="42.814531" lon="1.493926">
        <ele>2095.8</ele>
        <time>2013-04-03T14:57:08Z</time>
      </trkpt>
      <trkpt lat="42.814457" lon="1.493982">
        <ele>2093.9</ele>
        <time>2013-04-03T14:57:17Z</time>
      </trkpt>
      <trkpt lat="42.814377" lon="1.494046">
        <ele>2092.0</ele>
        <time>2013-04-03T14:57:26Z</time>
      </trkpt>
      <trkpt lat="42.814293" lon="1.494113">
        <ele>2090.0</ele>
        <time>2013-04-03T14:57:35Z</time>
      </trkpt>
      <trkpt lat="42.814226" lon="1.494209">
        <ele>2089.6</ele>
        <time>2013-04-03T14:57:44Z</time>
      </trkpt>
      <trkpt lat="42.814143" lon="1.494285">
        <ele>2086.7</ele>
        <time>2013-04-03T14:57:54Z</time>
      </trkpt>
      <trkpt lat="42.814070" lon="1.494364">
        <ele>2085.2</ele>
        <time>2013-04-03T14:58:03Z</time>
      </trkpt>
      <trkpt lat="42.814009" lon="1.494450">
        <ele>2083.3</ele>
        <time>2013-04-03T14:58:12Z</time>
      </trkpt>
      <trkpt lat="42.813931" lon="1.494511">
        <ele>2081.4</ele>
        <time>2013-04-03T14:58:21Z</time>
      </trkpt>
      <trkpt lat="42.813837" lon="1.494566">
        <ele>2079.9</ele>
        <time>2013-04-03T14:58:31Z</time>
      </trkpt>
      <trkpt lat="42.813764" lon="1.494648">
        <ele>2078.5</ele>
        <time>2013-04-03T14:58:40Z</time>
      </trkpt>
      <trkpt lat="42.813693" lon="1.494738">
        <ele>2076.1</ele>
        <time>2013-04-03T14:58:50Z</time>
      </trkpt>
      <trkpt lat="42.813634" lon="1.494820">
        <ele>2074.7</ele>
        <time>2013-04-03T14:58:59Z</time>
      </trkpt>
      <trkpt lat="42.813567" lon="1.494902">
        <ele>2072.7</ele>
        <time>2013-04-03T14:59:07Z</time>
      </trkpt>
      <trkpt lat="42.813489" lon="1.494979">
        <ele>2070.8</ele>
        <time>2013-04-03T14:59:16Z</time>
      </trkpt>
      <trkpt lat="42.813415" lon="1.495065">
        <ele>2067.9</ele>
        <time>2013-04-03T14:59:25Z</time>
      </trkpt>
      <trkpt lat="42.813347" lon="1.495148">
        <ele>2066.0</ele>
        <time>2013-04-03T14:59:33Z</time>
      </trkpt>
      <trkpt lat="42.813272" lon="1.495247">
        <ele>2063.6</ele>
        <time>2013-04-03T14:59:42Z</time>
      </trkpt>
      <trkpt lat="42.813200" lon="1.495343">
        <ele>2061.2</ele>
        <time>2013-04-03T14:59:51Z</time>
      </trkpt>
      <trkpt lat="42.813124" lon="1.495442">
        <ele>2059.3</ele>
        <time>2013-04-03T15:00:00Z</time>
      </trkpt>
      <trkpt lat="42.813087" lon="1.495518">
        <ele>2057.4</ele>
        <time>2013-04-03T15:00:58Z</time>
      </trkpt>
      <trkpt lat="42.813000" lon="1.495601">
        <ele>2055.0</ele>
        <time>2013-04-03T15:01:06Z</time>
      </trkpt>
      <trkpt lat="42.812918" lon="1.495680">
        <ele>2052.6</ele>
        <time>2013-04-03T15:01:15Z</time>
      </trkpt>
      <trkpt lat="42.812848" lon="1.495751">
        <ele>2050.1</ele>
        <time>2013-04-03T15:01:23Z</time>
      </trkpt>
      <trkpt lat="42.812783" lon="1.495842">
        <ele>2048.2</ele>
        <time>2013-04-03T15:01:31Z</time>
      </trkpt>
      <trkpt lat="42.812709" lon="1.495935">
        <ele>2045.3</ele>
        <time>2013-04-03T15:01:39Z</time>
      </trkpt>
      <trkpt lat="42.812634" lon="1.496021">
        <ele>2042.5</ele>
        <time>2013-04-03T15:01:47Z</time>
      </trkpt>
      <trkpt lat="42.812584" lon="1.496124">
        <ele>2039.1</ele>
        <time>2013-04-03T15:01:55Z</time>
      </trkpt>
      <trkpt lat="42.812540" lon="1.496218">
        <ele>2036.2</ele>
        <time>2013-04-03T15:02:03Z</time>
      </trkpt>
      <trkpt lat="42.812482" lon="1.496322">
        <ele>2032.4</ele>
        <time>2013-04-03T15:02:11Z</time>
      </trkpt>
      <trkpt lat="42.812430" lon="1.496430">
        <ele>2029.0</ele>
        <time>2013-04-03T15:02:20Z</time>
      </trkpt>
      <trkpt lat="42.812394" lon="1.496545">
        <ele>2025.6</ele>
        <time>2013-04-03T15:02:28Z</time>
      </trkpt>
      <trkpt lat="42.812340" lon="1.496659">
        <ele>2021.8</ele>
        <time>2013-04-03T15:02:36Z</time>
      </trkpt>
      <trkpt lat="42.812294" lon="1.496771">
        <ele>2016.5</ele>
        <time>2013-04-03T15:02:46Z</time>
      </trkpt>
      <trkpt lat="42.812245" lon="1.496881">
        <ele>2012.2</ele>
        <time>2013-04-03T15:02:55Z</time>
      </trkpt>
      <trkpt lat="42.812197" lon="1.497001">
        <ele>2006.9</ele>
        <time>2013-04-03T15:03:07Z</time>
      </trkpt>
      <trkpt lat="42.812133" lon="1.497101">
        <ele>2002.6</ele>
        <time>2013-04-03T15:03:18Z</time>
      </trkpt>
      <trkpt lat="42.812049" lon="1.497170">
        <ele>1999.2</ele>
        <time>2013-04-03T15:03:28Z</time>
      </trkpt>
      <trkpt lat="42.811961" lon="1.497230">
        <ele>1996.3</ele>
        <time>2013-04-03T15:03:58Z</time>
      </trkpt>
      <trkpt lat="42.811912" lon="1.497332">
        <ele>1994.9</ele>
        <time>2013-04-03T15:04:08Z</time>
      </trkpt>
      <trkpt lat="42.811825" lon="1.497398">
        <ele>1992.5</ele>
        <time>2013-04-03T15:04:17Z</time>
      </trkpt>
      <trkpt lat="42.811751" lon="1.497430">
        <ele>1990.1</ele>
        <time>2013-04-03T15:04:27Z</time>
      </trkpt>
      <trkpt lat="42.811693" lon="1.497492">
        <ele>1987.2</ele>
        <time>2013-04-03T15:04:37Z</time>
      </trkpt>
      <trkpt lat="42.811620" lon="1.497576">
        <ele>1985.7</ele>
        <time>2013-04-03T15:04:46Z</time>
      </trkpt>
      <trkpt lat="42.811568" lon="1.497664">
        <ele>1983.8</ele>
        <time>2013-04-03T15:04:54Z</time>
      </trkpt>
      <trkpt lat="42.811499" lon="1.497750">
        <ele>1980.9</ele>
        <time>2013-04-03T15:05:05Z</time>
      </trkpt>
      <trkpt lat="42.811427" lon="1.497848">
        <ele>1978.5</ele>
        <time>2013-04-03T15:05:15Z</time>
      </trkpt>
      <trkpt lat="42.811376" lon="1.497951">
        <ele>1977.1</ele>
        <time>2013-04-03T15:05:25Z</time>
      </trkpt>
      <trkpt lat="42.811335" lon="1.497994">
        <ele>1975.2</ele>
        <time>2013-04-03T15:06:08Z</time>
      </trkpt>
      <trkpt lat="42.811272" lon="1.498103">
        <ele>1973.7</ele>
        <time>2013-04-03T15:06:17Z</time>
      </trkpt>
      <trkpt lat="42.811208" lon="1.498217">
        <ele>1971.3</ele>
        <time>2013-04-03T15:06:27Z</time>
      </trkpt>
      <trkpt lat="42.811139" lon="1.498305">
        <ele>1968.4</ele>
        <time>2013-04-03T15:06:36Z</time>
      </trkpt>
      <trkpt lat="42.811059" lon="1.498365">
        <ele>1966.5</ele>
        <time>2013-04-03T15:06:43Z</time>
      </trkpt>
      <trkpt lat="42.810982" lon="1.498456">
        <ele>1964.6</ele>
        <time>2013-04-03T15:06:51Z</time>
      </trkpt>
      <trkpt lat="42.810904" lon="1.498539">
        <ele>1963.6</ele>
        <time>2013-04-03T15:06:59Z</time>
      </trkpt>
      <trkpt lat="42.810843" lon="1.498620">
        <ele>1963.2</ele>
        <time>2013-04-03T15:07:07Z</time>
      </trkpt>
      <trkpt lat="42.810787" lon="1.498714">
        <ele>1964.1</ele>
        <time>2013-04-03T15:07:15Z</time>
      </trkpt>
      <trkpt lat="42.810727" lon="1.498818">
        <ele>1964.6</ele>
        <time>2013-04-03T15:07:23Z</time>
      </trkpt>
      <trkpt lat="42.810651" lon="1.498895">
        <ele>1964.1</ele>
        <time>2013-04-03T15:07:32Z</time>
      </trkpt>
      <trkpt lat="42.810581" lon="1.498988">
        <ele>1965.1</ele>
        <time>2013-04-03T15:07:42Z</time>
      </trkpt>
      <trkpt lat="42.810516" lon="1.499092">
        <ele>1965.6</ele>
        <time>2013-04-03T15:07:52Z</time>
      </trkpt>
      <trkpt lat="42.810462" lon="1.499207">
        <ele>1966.0</ele>
        <time>2013-04-03T15:08:03Z</time>
      </trkpt>
      <trkpt lat="42.810402" lon="1.499309">
        <ele>1966.5</ele>
        <time>2013-04-03T15:08:14Z</time>
      </trkpt>
      <trkpt lat="42.810339" lon="1.499410">
        <ele>1966.5</ele>
        <time>2013-04-03T15:08:25Z</time>
      </trkpt>
      <trkpt lat="42.810280" lon="1.499527">
        <ele>1966.0</ele>
        <time>2013-04-03T15:08:36Z</time>
      </trkpt>
      <trkpt lat="42.810216" lon="1.499616">
        <ele>1966.0</ele>
        <time>2013-04-03T15:08:46Z</time>
      </trkpt>
      <trkpt lat="42.810156" lon="1.499718">
        <ele>1966.5</ele>
        <time>2013-04-03T15:08:56Z</time>
      </trkpt>
      <trkpt lat="42.810093" lon="1.499806">
        <ele>1967.0</ele>
        <time>2013-04-03T15:09:05Z</time>
      </trkpt>
      <trkpt lat="42.810034" lon="1.499902">
        <ele>1968.0</ele>
        <time>2013-04-03T15:09:16Z</time>
      </trkpt>
      <trkpt lat="42.809966" lon="1.500009">
        <ele>1968.0</ele>
        <time>2013-04-03T15:09:28Z</time>
      </trkpt>
      <trkpt lat="42.809906" lon="1.500126">
        <ele>1968.9</ele>
        <time>2013-04-03T15:09:40Z</time>
      </trkpt>
      <trkpt lat="42.809846" lon="1.500254">
        <ele>1970.4</ele>
        <time>2013-04-03T15:09:52Z</time>
      </trkpt>
      <trkpt lat="42.809814" lon="1.500344">
        <ele>1971.3</ele>
        <time>2013-04-03T15:10:06Z</time>
      </trkpt>
      <trkpt lat="42.809803" lon="1.500469">
        <ele>1972.8</ele>
        <time>2013-04-03T15:10:19Z</time>
      </trkpt>
      <trkpt lat="42.809820" lon="1.500574">
        <ele>1974.7</ele>
        <time>2013-04-03T15:10:32Z</time>
      </trkpt>
      <trkpt lat="42.809747" lon="1.500686">
        <ele>1975.7</ele>
        <time>2013-04-03T15:10:48Z</time>
      </trkpt>
      <trkpt lat="42.809707" lon="1.500806">
        <ele>1977.6</ele>
        <time>2013-04-03T15:11:02Z</time>
      </trkpt>
      <trkpt lat="42.809671" lon="1.500921">
        <ele>1978.5</ele>
        <time>2013-04-03T15:11:16Z</time>
      </trkpt>
      <trkpt lat="42.809614" lon="1.501031">
        <ele>1980.0</ele>
        <time>2013-04-03T15:11:29Z</time>
      </trkpt>
      <trkpt lat="42.809572" lon="1.501139">
        <ele>1980.9</ele>
        <time>2013-04-03T15:11:40Z</time>
      </trkpt>
      <trkpt lat="42.809522" lon="1.501250">
        <ele>1981.9</ele>
        <time>2013-04-03T15:11:52Z</time>
      </trkpt>
      <trkpt lat="42.809469" lon="1.501359">
        <ele>1983.3</ele>
        <time>2013-04-03T15:12:04Z</time>
      </trkpt>
      <trkpt lat="42.809442" lon="1.501459">
        <ele>1984.8</ele>
        <time>2013-04-03T15:12:16Z</time>
      </trkpt>
      <trkpt lat="42.809386" lon="1.501569">
        <ele>1985.7</ele>
        <time>2013-04-03T15:12:29Z</time>
      </trkpt>
      <trkpt lat="42.809315" lon="1.501664">
        <ele>1986.2</ele>
        <time>2013-04-03T15:12:43Z</time>
      </trkpt>
      <trkpt lat="42.809293" lon="1.501771">
        <ele>1987.7</ele>
        <time>2013-04-03T15:12:57Z</time>
      </trkpt>
      <trkpt lat="42.809256" lon="1.501895">
        <ele>1987.7</ele>
        <time>2013-04-03T15:13:09Z</time>
      </trkpt>
      <trkpt lat="42.809248" lon="1.501973">
        <ele>1988.6</ele>
        <time>2013-04-03T15:14:27Z</time>
      </trkpt>
      <trkpt lat="42.809220" lon="1.502105">
        <ele>1989.1</ele>
        <time>2013-04-03T15:15:05Z</time>
      </trkpt>
      <trkpt lat="42.809225" lon="1.502234">
        <ele>1989.1</ele>
        <time>2013-04-03T15:15:13Z</time>
      </trkpt>
      <trkpt lat="42.809246" lon="1.502340">
        <ele>1988.1</ele>
        <time>2013-04-03T15:15:40Z</time>
      </trkpt>
      <trkpt lat="42.809260" lon="1.502463">
        <ele>1987.7</ele>
        <time>2013-04-03T15:15:49Z</time>
      </trkpt>
      <trkpt lat="42.809254" lon="1.502595">
        <ele>1987.2</ele>
        <time>2013-04-03T15:15:59Z</time>
      </trkpt>
      <trkpt lat="42.809255" lon="1.502725">
        <ele>1987.7</ele>
        <time>2013-04-03T15:16:07Z</time>
      </trkpt>
      <trkpt lat="42.809275" lon="1.502852">
        <ele>1987.2</ele>
        <time>2013-04-03T15:16:15Z</time>
      </trkpt>
      <trkpt lat="42.809278" lon="1.502990">
        <ele>1986.2</ele>
        <time>2013-04-03T15:16:23Z</time>
      </trkpt>
      <trkpt lat="42.809254" lon="1.503118">
        <ele>1984.8</ele>
        <time>2013-04-03T15:17:03Z</time>
      </trkpt>
      <trkpt lat="42.809238" lon="1.503238">
        <ele>1982.9</ele>
        <time>2013-04-03T15:17:11Z</time>
      </trkpt>
      <trkpt lat="42.809181" lon="1.503354">
        <ele>1980.9</ele>
        <time>2013-04-03T15:17:20Z</time>
      </trkpt>
      <trkpt lat="42.809090" lon="1.503443">
        <ele>1979.5</ele>
        <time>2013-04-03T15:17:37Z</time>
      </trkpt>
      <trkpt lat="42.809032" lon="1.503536">
        <ele>1977.1</ele>
        <time>2013-04-03T15:17:46Z</time>
      </trkpt>
      <trkpt lat="42.808983" lon="1.503642">
        <ele>1975.2</ele>
        <time>2013-04-03T15:17:54Z</time>
      </trkpt>
      <trkpt lat="42.808982" lon="1.503760">
        <ele>1972.8</ele>
        <time>2013-04-03T15:18:04Z</time>
      </trkpt>
      <trkpt lat="42.808991" lon="1.503883">
        <ele>1970.4</ele>
        <time>2013-04-03T15:18:13Z</time>
      </trkpt>
      <trkpt lat="42.808970" lon="1.503994">
        <ele>1968.0</ele>
        <time>2013-04-03T15:18:54Z</time>
      </trkpt>
      <trkpt lat="42.808968" lon="1.504126">
        <ele>1965.6</ele>
        <time>2013-04-03T15:19:02Z</time>
      </trkpt>
      <trkpt lat="42.808974" lon="1.504254">
        <ele>1962.7</ele>
        <time>2013-04-03T15:19:11Z</time>
      </trkpt>
      <trkpt lat="42.808975" lon="1.504382">
        <ele>1961.2</ele>
        <time>2013-04-03T15:19:20Z</time>
      </trkpt>
      <trkpt lat="42.808977" lon="1.504519">
        <ele>1958.8</ele>
        <time>2013-04-03T15:19:29Z</time>
      </trkpt>
      <trkpt lat="42.808978" lon="1.504648">
        <ele>1956.4</ele>
        <time>2013-04-03T15:19:38Z</time>
      </trkpt>
      <trkpt lat="42.808988" lon="1.504779">
        <ele>1954.0</ele>
        <time>2013-04-03T15:19:47Z</time>
      </trkpt>
      <trkpt lat="42.808999" lon="1.504917">
        <ele>1951.6</ele>
        <time>2013-04-03T15:19:56Z</time>
      </trkpt>
      <trkpt lat="42.808991" lon="1.505049">
        <ele>1949.7</ele>
        <time>2013-04-03T15:20:05Z</time>
      </trkpt>
      <trkpt lat="42.809007" lon="1.505173">
        <ele>1947.8</ele>
        <time>2013-04-03T15:20:14Z</time>
      </trkpt>
      <trkpt lat="42.809006" lon="1.505308">
        <ele>1945.4</ele>
        <time>2013-04-03T15:20:24Z</time>
      </trkpt>
      <trkpt lat="42.809014" lon="1.505433">
        <ele>1943.4</ele>
        <time>2013-04-03T15:20:33Z</time>
      </trkpt>
      <trkpt lat="42.809011" lon="1.505578">
        <ele>1942.0</ele>
        <time>2013-04-03T15:20:42Z</time>
      </trkpt>
      <trkpt lat="42.809019" lon="1.505713">
        <ele>1940.1</ele>
        <time>2013-04-03T15:20:50Z</time>
      </trkpt>
      <trkpt lat="42.809043" lon="1.505840">
        <ele>1938.6</ele>
        <time>2013-04-03T15:20:58Z</time>
      </trkpt>
      <trkpt lat="42.809068" lon="1.505964">
        <ele>1937.2</ele>
        <time>2013-04-03T15:21:07Z</time>
      </trkpt>
      <trkpt lat="42.809081" lon="1.506093">
        <ele>1936.2</ele>
        <time>2013-04-03T15:21:15Z</time>
      </trkpt>
      <trkpt lat="42.809100" lon="1.506224">
        <ele>1935.8</ele>
        <time>2013-04-03T15:21:24Z</time>
      </trkpt>
      <trkpt lat="42.809109" lon="1.506365">
        <ele>1934.8</ele>
        <time>2013-04-03T15:21:33Z</time>
      </trkpt>
      <trkpt lat="42.809130" lon="1.506493">
        <ele>1935.3</ele>
        <time>2013-04-03T15:21:41Z</time>
      </trkpt>
      <trkpt lat="42.809169" lon="1.506603">
        <ele>1934.8</ele>
        <time>2013-04-03T15:21:49Z</time>
      </trkpt>
      <trkpt lat="42.809179" lon="1.506734">
        <ele>1934.3</ele>
        <time>2013-04-03T15:21:58Z</time>
      </trkpt>
      <trkpt lat="42.809193" lon="1.506873">
        <ele>1933.8</ele>
        <time>2013-04-03T15:22:06Z</time>
      </trkpt>
      <trkpt lat="42.809208" lon="1.507005">
        <ele>1932.9</ele>
        <time>2013-04-03T15:22:14Z</time>
      </trkpt>
      <trkpt lat="42.809219" lon="1.507130">
        <ele>1931.9</ele>
        <time>2013-04-03T15:22:23Z</time>
      </trkpt>
      <trkpt lat="42.809227" lon="1.507268">
        <ele>1930.9</ele>
        <time>2013-04-03T15:22:32Z</time>
      </trkpt>
      <trkpt lat="42.809254" lon="1.507403">
        <ele>1930.0</ele>
        <time>2013-04-03T15:22:41Z</time>
      </trkpt>
      <trkpt lat="42.809275" lon="1.507525">
        <ele>1930.0</ele>
        <time>2013-04-03T15:22:50Z</time>
      </trkpt>
      <trkpt lat="42.809287" lon="1.507653">
        <ele>1929.0</ele>
        <time>2013-04-03T15:22:59Z</time>
      </trkpt>
      <trkpt lat="42.809299" lon="1.507777">
        <ele>1929.0</ele>
        <time>2013-04-03T15:23:08Z</time>
      </trkpt>
      <trkpt lat="42.809311" lon="1.507917">
        <ele>1927.6</ele>
        <time>2013-04-03T15:23:18Z</time>
      </trkpt>
      <trkpt lat="42.809333" lon="1.508054">
        <ele>1927.6</ele>
        <time>2013-04-03T15:23:28Z</time>
      </trkpt>
      <trkpt lat="42.809322" lon="1.508190">
        <ele>1925.2</ele>
        <time>2013-04-03T15:23:36Z</time>
      </trkpt>
      <trkpt lat="42.809337" lon="1.508314">
        <ele>1924.7</ele>
        <time>2013-04-03T15:23:45Z</time>
      </trkpt>
      <trkpt lat="42.809373" lon="1.508438">
        <ele>1923.7</ele>
        <time>2013-04-03T15:23:55Z</time>
      </trkpt>
      <trkpt lat="42.809405" lon="1.508561">
        <ele>1923.2</ele>
        <time>2013-04-03T15:24:05Z</time>
      </trkpt>
      <trkpt lat="42.809440" lon="1.508680">
        <ele>1923.2</ele>
        <time>2013-04-03T15:24:15Z</time>
      </trkpt>
      <trkpt lat="42.809495" lon="1.508787">
        <ele>1922.8</ele>
        <time>2013-04-03T15:24:25Z</time>
      </trkpt>
      <trkpt lat="42.809541" lon="1.508904">
        <ele>1922.3</ele>
        <time>2013-04-03T15:24:34Z</time>
      </trkpt>
      <trkpt lat="42.809583" lon="1.509006">
        <ele>1921.8</ele>
        <time>2013-04-03T15:24:42Z</time>
      </trkpt>
      <trkpt lat="42.809625" lon="1.509117">
        <ele>1920.8</ele>
        <time>2013-04-03T15:24:50Z</time>
      </trkpt>
      <trkpt lat="42.809669" lon="1.509228">
        <ele>1920.4</ele>
        <time>2013-04-03T15:24:59Z</time>
      </trkpt>
      <trkpt lat="42.809711" lon="1.509337">
        <ele>1919.4</ele>
        <time>2013-04-03T15:25:07Z</time>
      </trkpt>
      <trkpt lat="42.809767" lon="1.509448">
        <ele>1918.4</ele>
        <time>2013-04-03T15:25:16Z</time>
      </trkpt>
      <trkpt lat="42.809823" lon="1.509548">
        <ele>1918.0</ele>
        <time>2013-04-03T15:25:24Z</time>
      </trkpt>
      <trkpt lat="42.809875" lon="1.509658">
        <ele>1916.5</ele>
        <time>2013-04-03T15:25:32Z</time>
      </trkpt>
      <trkpt lat="42.809941" lon="1.509758">
        <ele>1916.0</ele>
        <time>2013-04-03T15:25:40Z</time>
      </trkpt>
      <trkpt lat="42.809995" lon="1.509864">
        <ele>1914.6</ele>
        <time>2013-04-03T15:25:48Z</time>
      </trkpt>
      <trkpt lat="42.810049" lon="1.509971">
        <ele>1913.2</ele>
        <time>2013-04-03T15:25:57Z</time>
      </trkpt>
      <trkpt lat="42.810114" lon="1.510070">
        <ele>1911.7</ele>
        <time>2013-04-03T15:26:05Z</time>
      </trkpt>
      <trkpt lat="42.810170" lon="1.510181">
        <ele>1910.8</ele>
        <time>2013-04-03T15:26:13Z</time>
      </trkpt>
      <trkpt lat="42.810223" lon="1.510290">
        <ele>1907.9</ele>
        <time>2013-04-03T15:26:21Z</time>
      </trkpt>
      <trkpt lat="42.810282" lon="1.510386">
        <ele>1906.9</ele>
        <time>2013-04-03T15:26:29Z</time>
      </trkpt>
      <trkpt lat="42.810329" lon="1.510489">
        <ele>1905.0</ele>
        <time>2013-04-03T15:26:36Z</time>
      </trkpt>
      <trkpt lat="42.810379" lon="1.510600">
        <ele>1903.6</ele>
        <time>2013-04-03T15:26:44Z</time>
      </trkpt>
      <trkpt lat="42.810440" lon="1.510705">
        <ele>1902.6</ele>
        <time>2013-04-03T15:26:52Z</time>
      </trkpt>
      <trkpt lat="42.810494" lon="1.510803">
        <ele>1902.1</ele>
        <time>2013-04-03T15:27:00Z</time>
      </trkpt>
      <trkpt lat="42.810543" lon="1.510928">
        <ele>1900.7</ele>
        <time>2013-04-03T15:27:08Z</time>
      </trkpt>
      <trkpt lat="42.810589" lon="1.511051">
        <ele>1898.7</ele>
        <time>2013-04-03T15:27:16Z</time>
      </trkpt>
      <trkpt lat="42.810623" lon="1.511172">
        <ele>1897.8</ele>
        <time>2013-04-03T15:27:24Z</time>
      </trkpt>
      <trkpt lat="42.810672" lon="1.511294">
        <ele>1896.3</ele>
        <time>2013-04-03T15:27:32Z</time>
      </trkpt>
      <trkpt lat="42.810701" lon="1.511413">
        <ele>1894.4</ele>
        <time>2013-04-03T15:27:39Z</time>
      </trkpt>
      <trkpt lat="42.810727" lon="1.511540">
        <ele>1893.0</ele>
        <time>2013-04-03T15:27:47Z</time>
      </trkpt>
      <trkpt lat="42.810755" lon="1.511682">
        <ele>1892.0</ele>
        <time>2013-04-03T15:27:56Z</time>
      </trkpt>
      <trkpt lat="42.810775" lon="1.511817">
        <ele>1890.6</ele>
        <time>2013-04-03T15:28:04Z</time>
      </trkpt>
      <trkpt lat="42.810786" lon="1.511944">
        <ele>1889.6</ele>
        <time>2013-04-03T15:28:12Z</time>
      </trkpt>
      <trkpt lat="42.810797" lon="1.512076">
        <ele>1888.7</ele>
        <time>2013-04-03T15:28:20Z</time>
      </trkpt>
      <trkpt lat="42.810798" lon="1.512210">
        <ele>1887.7</ele>
        <time>2013-04-03T15:28:28Z</time>
      </trkpt>
      <trkpt lat="42.810793" lon="1.512344">
        <ele>1887.2</ele>
        <time>2013-04-03T15:28:36Z</time>
      </trkpt>
      <trkpt lat="42.810787" lon="1.512464">
        <ele>1886.7</ele>
        <time>2013-04-03T15:28:44Z</time>
      </trkpt>
      <trkpt lat="42.810771" lon="1.512588">
        <ele>1885.8</ele>
        <time>2013-04-03T15:28:52Z</time>
      </trkpt>
      <trkpt lat="42.810754" lon="1.512721">
        <ele>1885.8</ele>
        <time>2013-04-03T15:29:00Z</time>
      </trkpt>
      <trkpt lat="42.810740" lon="1.512857">
        <ele>1884.8</ele>
        <time>2013-04-03T15:29:08Z</time>
      </trkpt>
      <trkpt lat="42.810732" lon="1.512977">
        <ele>1884.3</ele>
        <time>2013-04-03T15:29:17Z</time>
      </trkpt>
      <trkpt lat="42.810712" lon="1.513110">
        <ele>1884.3</ele>
        <time>2013-04-03T15:29:27Z</time>
      </trkpt>
      <trkpt lat="42.810706" lon="1.513237">
        <ele>1884.8</ele>
        <time>2013-04-03T15:29:36Z</time>
      </trkpt>
      <trkpt lat="42.810685" lon="1.513355">
        <ele>1884.8</ele>
        <time>2013-04-03T15:29:46Z</time>
      </trkpt>
      <trkpt lat="42.810664" lon="1.513479">
        <ele>1884.8</ele>
        <time>2013-04-03T15:29:56Z</time>
      </trkpt>
      <trkpt lat="42.810633" lon="1.513610">
        <ele>1884.8</ele>
        <time>2013-04-03T15:30:07Z</time>
      </trkpt>
      <trkpt lat="42.810599" lon="1.513738">
        <ele>1884.3</ele>
        <time>2013-04-03T15:30:18Z</time>
      </trkpt>
      <trkpt lat="42.810578" lon="1.513861">
        <ele>1883.4</ele>
        <time>2013-04-03T15:30:29Z</time>
        <name>Pla de Madame</name>
      </trkpt>
      <trkpt lat="42.810558" lon="1.513991">
        <ele>1883.4</ele>
        <time>2013-04-03T15:30:40Z</time>
      </trkpt>
      <trkpt lat="42.810551" lon="1.514123">
        <ele>1883.8</ele>
        <time>2013-04-03T15:30:51Z</time>
      </trkpt>
      <trkpt lat="42.810545" lon="1.514244">
        <ele>1883.8</ele>
        <time>2013-04-03T15:31:02Z</time>
      </trkpt>
      <trkpt lat="42.810528" lon="1.514379">
        <ele>1884.3</ele>
        <time>2013-04-03T15:31:14Z</time>
      </trkpt>
      <trkpt lat="42.810518" lon="1.514525">
        <ele>1883.4</ele>
        <time>2013-04-03T15:31:26Z</time>
      </trkpt>
      <trkpt lat="42.810500" lon="1.514657">
        <ele>1883.8</ele>
        <time>2013-04-03T15:31:37Z</time>
      </trkpt>
      <trkpt lat="42.810502" lon="1.514783">
        <ele>1883.4</ele>
        <time>2013-04-03T15:31:47Z</time>
      </trkpt>
      <trkpt lat="42.810500" lon="1.514905">
        <ele>1882.9</ele>
        <time>2013-04-03T15:31:57Z</time>
      </trkpt>
      <trkpt lat="42.810492" lon="1.515041">
        <ele>1882.4</ele>
        <time>2013-04-03T15:32:07Z</time>
      </trkpt>
      <trkpt lat="42.810480" lon="1.515176">
        <ele>1881.9</ele>
        <time>2013-04-03T15:32:18Z</time>
      </trkpt>
      <trkpt lat="42.810471" lon="1.515293">
        <ele>1881.0</ele>
        <time>2013-04-03T15:32:28Z</time>
      </trkpt>
      <trkpt lat="42.810459" lon="1.515417">
        <ele>1881.0</ele>
        <time>2013-04-03T15:32:37Z</time>
      </trkpt>
      <trkpt lat="42.810468" lon="1.515534">
        <ele>1880.0</ele>
        <time>2013-04-03T15:32:47Z</time>
      </trkpt>
      <trkpt lat="42.810459" lon="1.515650">
        <ele>1879.5</ele>
        <time>2013-04-03T15:32:56Z</time>
      </trkpt>
      <trkpt lat="42.810458" lon="1.515786">
        <ele>1879.0</ele>
        <time>2013-04-03T15:33:05Z</time>
      </trkpt>
      <trkpt lat="42.810457" lon="1.515915">
        <ele>1878.1</ele>
        <time>2013-04-03T15:33:13Z</time>
      </trkpt>
      <trkpt lat="42.810446" lon="1.516051">
        <ele>1877.1</ele>
        <time>2013-04-03T15:33:22Z</time>
      </trkpt>
      <trkpt lat="42.810435" lon="1.516182">
        <ele>1875.7</ele>
        <time>2013-04-03T15:33:31Z</time>
      </trkpt>
      <trkpt lat="42.810422" lon="1.516300">
        <ele>1875.2</ele>
        <time>2013-04-03T15:33:39Z</time>
      </trkpt>
      <trkpt lat="42.810404" lon="1.516423">
        <ele>1874.2</ele>
        <time>2013-04-03T15:33:47Z</time>
      </trkpt>
      <trkpt lat="42.810393" lon="1.516547">
        <ele>1873.8</ele>
        <time>2013-04-03T15:33:55Z</time>
      </trkpt>
      <trkpt lat="42.810385" lon="1.516676">
        <ele>1872.8</ele>
        <time>2013-04-03T15:34:03Z</time>
      </trkpt>
      <trkpt lat="42.810366" lon="1.516803">
        <ele>1871.3</ele>
        <time>2013-04-03T15:34:12Z</time>
      </trkpt>
      <trkpt lat="42.810357" lon="1.516935">
        <ele>1870.4</ele>
        <time>2013-04-03T15:34:21Z</time>
      </trkpt>
      <trkpt lat="42.810342" lon="1.517061">
        <ele>1869.9</ele>
        <time>2013-04-03T15:34:29Z</time>
      </trkpt>
      <trkpt lat="42.810329" lon="1.517180">
        <ele>1868.9</ele>
        <time>2013-04-03T15:34:37Z</time>
      </trkpt>
      <trkpt lat="42.810329" lon="1.517310">
        <ele>1867.5</ele>
        <time>2013-04-03T15:34:45Z</time>
      </trkpt>
      <trkpt lat="42.810327" lon="1.517427">
        <ele>1866.5</ele>
        <time>2013-04-03T15:34:53Z</time>
      </trkpt>
      <trkpt lat="42.810320" lon="1.517555">
        <ele>1865.6</ele>
        <time>2013-04-03T15:35:02Z</time>
      </trkpt>
      <trkpt lat="42.810298" lon="1.517686">
        <ele>1865.1</ele>
        <time>2013-04-03T15:35:11Z</time>
      </trkpt>
      <trkpt lat="42.810276" lon="1.517821">
        <ele>1864.1</ele>
        <time>2013-04-03T15:35:19Z</time>
      </trkpt>
      <trkpt lat="42.810255" lon="1.517944">
        <ele>1863.2</ele>
        <time>2013-04-03T15:35:28Z</time>
      </trkpt>
      <trkpt lat="42.810209" lon="1.518071">
        <ele>1862.7</ele>
        <time>2013-04-03T15:35:38Z</time>
      </trkpt>
      <trkpt lat="42.810188" lon="1.518200">
        <ele>1862.7</ele>
        <time>2013-04-03T15:35:48Z</time>
      </trkpt>
      <trkpt lat="42.810165" lon="1.518324">
        <ele>1861.7</ele>
        <time>2013-04-03T15:35:57Z</time>
      </trkpt>
      <trkpt lat="42.810141" lon="1.518457">
        <ele>1860.8</ele>
        <time>2013-04-03T15:36:06Z</time>
      </trkpt>
      <trkpt lat="42.810111" lon="1.518589">
        <ele>1860.3</ele>
        <time>2013-04-03T15:36:16Z</time>
      </trkpt>
      <trkpt lat="42.810093" lon="1.518726">
        <ele>1859.8</ele>
        <time>2013-04-03T15:36:26Z</time>
      </trkpt>
      <trkpt lat="42.810074" lon="1.518851">
        <ele>1858.4</ele>
        <time>2013-04-03T15:36:35Z</time>
      </trkpt>
      <trkpt lat="42.810067" lon="1.518979">
        <ele>1858.4</ele>
        <time>2013-04-03T15:36:44Z</time>
      </trkpt>
      <trkpt lat="42.810062" lon="1.519105">
        <ele>1856.9</ele>
        <time>2013-04-03T15:36:54Z</time>
      </trkpt>
      <trkpt lat="42.810019" lon="1.519226">
        <ele>1856.0</ele>
        <time>2013-04-03T15:37:03Z</time>
      </trkpt>
      <trkpt lat="42.809990" lon="1.519352">
        <ele>1855.0</ele>
        <time>2013-04-03T15:37:12Z</time>
      </trkpt>
      <trkpt lat="42.809958" lon="1.519471">
        <ele>1854.0</ele>
        <time>2013-04-03T15:37:21Z</time>
      </trkpt>
      <trkpt lat="42.809944" lon="1.519605">
        <ele>1852.6</ele>
        <time>2013-04-03T15:37:31Z</time>
      </trkpt>
      <trkpt lat="42.809924" lon="1.519728">
        <ele>1851.6</ele>
        <time>2013-04-03T15:37:40Z</time>
      </trkpt>
      <trkpt lat="42.809906" lon="1.519857">
        <ele>1850.2</ele>
        <time>2013-04-03T15:37:49Z</time>
      </trkpt>
      <trkpt lat="42.809891" lon="1.519992">
        <ele>1847.8</ele>
        <time>2013-04-03T15:37:58Z</time>
      </trkpt>
      <trkpt lat="42.809868" lon="1.520128">
        <ele>1846.8</ele>
        <time>2013-04-03T15:38:07Z</time>
      </trkpt>
      <trkpt lat="42.809853" lon="1.520245">
        <ele>1845.4</ele>
        <time>2013-04-03T15:38:16Z</time>
      </trkpt>
      <trkpt lat="42.809843" lon="1.520382">
        <ele>1844.9</ele>
        <time>2013-04-03T15:38:24Z</time>
      </trkpt>
      <trkpt lat="42.809822" lon="1.520524">
        <ele>1843.0</ele>
        <time>2013-04-03T15:38:33Z</time>
      </trkpt>
      <trkpt lat="42.809816" lon="1.520661">
        <ele>1842.0</ele>
        <time>2013-04-03T15:38:42Z</time>
      </trkpt>
      <trkpt lat="42.809814" lon="1.520789">
        <ele>1841.5</ele>
        <time>2013-04-03T15:38:50Z</time>
      </trkpt>
      <trkpt lat="42.809818" lon="1.520918">
        <ele>1840.1</ele>
        <time>2013-04-03T15:38:59Z</time>
      </trkpt>
      <trkpt lat="42.809813" lon="1.521058">
        <ele>1839.6</ele>
        <time>2013-04-03T15:39:08Z</time>
      </trkpt>
      <trkpt lat="42.809822" lon="1.521186">
        <ele>1838.7</ele>
        <time>2013-04-03T15:39:17Z</time>
      </trkpt>
      <trkpt lat="42.809820" lon="1.521307">
        <ele>1838.2</ele>
        <time>2013-04-03T15:39:25Z</time>
      </trkpt>
      <trkpt lat="42.809814" lon="1.521449">
        <ele>1836.3</ele>
        <time>2013-04-03T15:39:34Z</time>
      </trkpt>
      <trkpt lat="42.809812" lon="1.521577">
        <ele>1834.8</ele>
        <time>2013-04-03T15:39:42Z</time>
      </trkpt>
      <trkpt lat="42.809806" lon="1.521716">
        <ele>1833.8</ele>
        <time>2013-04-03T15:39:51Z</time>
      </trkpt>
      <trkpt lat="42.809816" lon="1.521843">
        <ele>1832.4</ele>
        <time>2013-04-03T15:40:00Z</time>
      </trkpt>
      <trkpt lat="42.809832" lon="1.521969">
        <ele>1830.5</ele>
        <time>2013-04-03T15:40:08Z</time>
      </trkpt>
      <trkpt lat="42.809846" lon="1.522101">
        <ele>1829.1</ele>
        <time>2013-04-03T15:40:16Z</time>
      </trkpt>
      <trkpt lat="42.809863" lon="1.522232">
        <ele>1827.6</ele>
        <time>2013-04-03T15:40:24Z</time>
      </trkpt>
      <trkpt lat="42.809892" lon="1.522353">
        <ele>1826.2</ele>
        <time>2013-04-03T15:40:32Z</time>
      </trkpt>
      <trkpt lat="42.809922" lon="1.522478">
        <ele>1824.2</ele>
        <time>2013-04-03T15:40:41Z</time>
      </trkpt>
      <trkpt lat="42.809958" lon="1.522608">
        <ele>1821.8</ele>
        <time>2013-04-03T15:40:49Z</time>
      </trkpt>
      <trkpt lat="42.809986" lon="1.522739">
        <ele>1819.9</ele>
        <time>2013-04-03T15:40:58Z</time>
      </trkpt>
      <trkpt lat="42.810007" lon="1.522777">
        <ele>1818.5</ele>
        <time>2013-04-03T15:45:31Z</time>
      </trkpt>
      <trkpt lat="42.810041" lon="1.522895">
        <ele>1816.6</ele>
        <time>2013-04-03T15:45:41Z</time>
      </trkpt>
      <trkpt lat="42.810081" lon="1.523016">
        <ele>1815.1</ele>
        <time>2013-04-03T15:45:51Z</time>
      </trkpt>
      <trkpt lat="42.810112" lon="1.523137">
        <ele>1813.2</ele>
        <time>2013-04-03T15:46:00Z</time>
      </trkpt>
      <trkpt lat="42.810148" lon="1.523261">
        <ele>1811.7</ele>
        <time>2013-04-03T15:46:09Z</time>
      </trkpt>
      <trkpt lat="42.810174" lon="1.523393">
        <ele>1810.3</ele>
        <time>2013-04-03T15:46:19Z</time>
      </trkpt>
      <trkpt lat="42.810221" lon="1.523515">
        <ele>1808.4</ele>
        <time>2013-04-03T15:46:29Z</time>
      </trkpt>
      <trkpt lat="42.810247" lon="1.523648">
        <ele>1807.4</ele>
        <time>2013-04-03T15:46:39Z</time>
      </trkpt>
      <trkpt lat="42.810271" lon="1.523784">
        <ele>1806.4</ele>
        <time>2013-04-03T15:46:48Z</time>
      </trkpt>
      <trkpt lat="42.810294" lon="1.523907">
        <ele>1805.5</ele>
        <time>2013-04-03T15:46:57Z</time>
      </trkpt>
      <trkpt lat="42.810329" lon="1.524032">
        <ele>1804.1</ele>
        <time>2013-04-03T15:47:06Z</time>
      </trkpt>
      <trkpt lat="42.810348" lon="1.524157">
        <ele>1803.1</ele>
        <time>2013-04-03T15:47:15Z</time>
      </trkpt>
      <trkpt lat="42.810379" lon="1.524293">
        <ele>1800.7</ele>
        <time>2013-04-03T15:47:24Z</time>
      </trkpt>
      <trkpt lat="42.810415" lon="1.524413">
        <ele>1799.2</ele>
        <time>2013-04-03T15:47:32Z</time>
      </trkpt>
      <trkpt lat="42.810432" lon="1.524539">
        <ele>1798.3</ele>
        <time>2013-04-03T15:47:40Z</time>
      </trkpt>
      <trkpt lat="42.810447" lon="1.524659">
        <ele>1796.8</ele>
        <time>2013-04-03T15:47:48Z</time>
      </trkpt>
      <trkpt lat="42.810478" lon="1.524788">
        <ele>1795.4</ele>
        <time>2013-04-03T15:47:57Z</time>
      </trkpt>
      <trkpt lat="42.810508" lon="1.524910">
        <ele>1793.5</ele>
        <time>2013-04-03T15:48:07Z</time>
      </trkpt>
      <trkpt lat="42.810537" lon="1.525028">
        <ele>1792.5</ele>
        <time>2013-04-03T15:48:16Z</time>
      </trkpt>
      <trkpt lat="42.810577" lon="1.525149">
        <ele>1790.6</ele>
        <time>2013-04-03T15:48:26Z</time>
      </trkpt>
      <trkpt lat="42.810604" lon="1.525275">
        <ele>1788.7</ele>
        <time>2013-04-03T15:48:35Z</time>
      </trkpt>
      <trkpt lat="42.810628" lon="1.525405">
        <ele>1787.7</ele>
        <time>2013-04-03T15:48:43Z</time>
      </trkpt>
      <trkpt lat="42.810659" lon="1.525528">
        <ele>1785.3</ele>
        <time>2013-04-03T15:48:51Z</time>
      </trkpt>
      <trkpt lat="42.810691" lon="1.525648">
        <ele>1783.9</ele>
        <time>2013-04-03T15:48:59Z</time>
      </trkpt>
      <trkpt lat="42.810714" lon="1.525765">
        <ele>1781.9</ele>
        <time>2013-04-03T15:49:06Z</time>
      </trkpt>
      <trkpt lat="42.810742" lon="1.525898">
        <ele>1780.5</ele>
        <time>2013-04-03T15:49:14Z</time>
      </trkpt>
      <trkpt lat="42.810766" lon="1.526022">
        <ele>1778.6</ele>
        <time>2013-04-03T15:49:22Z</time>
      </trkpt>
      <trkpt lat="42.810801" lon="1.526145">
        <ele>1776.2</ele>
        <time>2013-04-03T15:49:30Z</time>
      </trkpt>
      <trkpt lat="42.810834" lon="1.526261">
        <ele>1774.2</ele>
        <time>2013-04-03T15:49:38Z</time>
      </trkpt>
      <trkpt lat="42.810863" lon="1.526374">
        <ele>1772.3</ele>
        <time>2013-04-03T15:49:47Z</time>
      </trkpt>
      <trkpt lat="42.810869" lon="1.526475">
        <ele>1770.9</ele>
        <time>2013-04-03T15:50:01Z</time>
      </trkpt>
      <trkpt lat="42.810896" lon="1.526598">
        <ele>1769.4</ele>
        <time>2013-04-03T15:50:11Z</time>
      </trkpt>
      <trkpt lat="42.810921" lon="1.526721">
        <ele>1769.0</ele>
        <time>2013-04-03T15:50:21Z</time>
      </trkpt>
      <trkpt lat="42.810936" lon="1.526846">
        <ele>1767.0</ele>
        <time>2013-04-03T15:50:30Z</time>
      </trkpt>
      <trkpt lat="42.810950" lon="1.526979">
        <ele>1765.6</ele>
        <time>2013-04-03T15:50:40Z</time>
      </trkpt>
      <trkpt lat="42.810973" lon="1.527102">
        <ele>1764.2</ele>
        <time>2013-04-03T15:50:49Z</time>
      </trkpt>
      <trkpt lat="42.811004" lon="1.527221">
        <ele>1762.7</ele>
        <time>2013-04-03T15:50:58Z</time>
      </trkpt>
      <trkpt lat="42.811022" lon="1.527347">
        <ele>1761.3</ele>
        <time>2013-04-03T15:51:08Z</time>
      </trkpt>
      <trkpt lat="42.811039" lon="1.527472">
        <ele>1759.3</ele>
        <time>2013-04-03T15:51:18Z</time>
      </trkpt>
      <trkpt lat="42.811063" lon="1.527606">
        <ele>1757.4</ele>
        <time>2013-04-03T15:51:28Z</time>
      </trkpt>
      <trkpt lat="42.811094" lon="1.527727">
        <ele>1756.0</ele>
        <time>2013-04-03T15:51:37Z</time>
      </trkpt>
      <trkpt lat="42.811126" lon="1.527846">
        <ele>1754.1</ele>
        <time>2013-04-03T15:51:46Z</time>
      </trkpt>
      <trkpt lat="42.811150" lon="1.527966">
        <ele>1752.1</ele>
        <time>2013-04-03T15:52:07Z</time>
      </trkpt>
      <trkpt lat="42.811180" lon="1.528098">
        <ele>1750.2</ele>
        <time>2013-04-03T15:52:16Z</time>
      </trkpt>
      <trkpt lat="42.811206" lon="1.528209">
        <ele>1748.8</ele>
        <time>2013-04-03T15:52:24Z</time>
      </trkpt>
      <trkpt lat="42.811233" lon="1.528340">
        <ele>1746.4</ele>
        <time>2013-04-03T15:52:33Z</time>
      </trkpt>
      <trkpt lat="42.811261" lon="1.528465">
        <ele>1744.4</ele>
        <time>2013-04-03T15:52:42Z</time>
      </trkpt>
      <trkpt lat="42.811294" lon="1.528570">
        <ele>1742.5</ele>
        <time>2013-04-03T15:52:51Z</time>
      </trkpt>
      <trkpt lat="42.811318" lon="1.528691">
        <ele>1741.6</ele>
        <time>2013-04-03T15:53:01Z</time>
      </trkpt>
      <trkpt lat="42.811335" lon="1.528827">
        <ele>1740.1</ele>
        <time>2013-04-03T15:53:11Z</time>
      </trkpt>
      <trkpt lat="42.811359" lon="1.528942">
        <ele>1738.2</ele>
        <time>2013-04-03T15:53:20Z</time>
      </trkpt>
      <trkpt lat="42.811387" lon="1.529072">
        <ele>1737.2</ele>
        <time>2013-04-03T15:53:30Z</time>
      </trkpt>
      <trkpt lat="42.811417" lon="1.529193">
        <ele>1735.8</ele>
        <time>2013-04-03T15:53:39Z</time>
      </trkpt>
      <trkpt lat="42.811436" lon="1.529323">
        <ele>1734.4</ele>
        <time>2013-04-03T15:53:47Z</time>
      </trkpt>
      <trkpt lat="42.811470" lon="1.529448">
        <ele>1733.4</ele>
        <time>2013-04-03T15:53:56Z</time>
      </trkpt>
      <trkpt lat="42.811496" lon="1.529581">
        <ele>1732.9</ele>
        <time>2013-04-03T15:54:06Z</time>
      </trkpt>
      <trkpt lat="42.811518" lon="1.529706">
        <ele>1731.5</ele>
        <time>2013-04-03T15:54:15Z</time>
      </trkpt>
      <trkpt lat="42.811552" lon="1.529829">
        <ele>1730.5</ele>
        <time>2013-04-03T15:54:26Z</time>
      </trkpt>
      <trkpt lat="42.811585" lon="1.529950">
        <ele>1729.1</ele>
        <time>2013-04-03T15:54:36Z</time>
      </trkpt>
      <trkpt lat="42.811612" lon="1.530056">
        <ele>1728.6</ele>
        <time>2013-04-03T15:54:47Z</time>
      </trkpt>
      <trkpt lat="42.811631" lon="1.530176">
        <ele>1727.6</ele>
        <time>2013-04-03T15:55:01Z</time>
      </trkpt>
      <trkpt lat="42.811650" lon="1.530303">
        <ele>1726.7</ele>
        <time>2013-04-03T15:55:11Z</time>
      </trkpt>
      <trkpt lat="42.811675" lon="1.530438">
        <ele>1725.2</ele>
        <time>2013-04-03T15:55:21Z</time>
      </trkpt>
      <trkpt lat="42.811706" lon="1.530552">
        <ele>1723.8</ele>
        <time>2013-04-03T15:55:31Z</time>
      </trkpt>
      <trkpt lat="42.811730" lon="1.530668">
        <ele>1722.8</ele>
        <time>2013-04-03T15:55:41Z</time>
      </trkpt>
      <trkpt lat="42.811753" lon="1.530775">
        <ele>1720.4</ele>
        <time>2013-04-03T15:56:04Z</time>
      </trkpt>
      <trkpt lat="42.811779" lon="1.530903">
        <ele>1719.9</ele>
        <time>2013-04-03T15:56:13Z</time>
      </trkpt>
      <trkpt lat="42.811797" lon="1.531042">
        <ele>1716.6</ele>
        <time>2013-04-03T15:56:22Z</time>
      </trkpt>
      <trkpt lat="42.811833" lon="1.531162">
        <ele>1715.1</ele>
        <time>2013-04-03T15:56:31Z</time>
      </trkpt>
      <trkpt lat="42.811861" lon="1.531286">
        <ele>1712.7</ele>
        <time>2013-04-03T15:56:40Z</time>
      </trkpt>
      <trkpt lat="42.811891" lon="1.531407">
        <ele>1711.8</ele>
        <time>2013-04-03T15:56:48Z</time>
      </trkpt>
      <trkpt lat="42.811918" lon="1.531536">
        <ele>1709.8</ele>
        <time>2013-04-03T15:56:57Z</time>
      </trkpt>
      <trkpt lat="42.811959" lon="1.531657">
        <ele>1708.4</ele>
        <time>2013-04-03T15:57:06Z</time>
      </trkpt>
      <trkpt lat="42.811998" lon="1.531774">
        <ele>1707.0</ele>
        <time>2013-04-03T15:57:16Z</time>
      </trkpt>
      <trkpt lat="42.812043" lon="1.531894">
        <ele>1706.5</ele>
        <time>2013-04-03T15:57:26Z</time>
      </trkpt>
      <trkpt lat="42.812090" lon="1.532008">
        <ele>1705.5</ele>
        <time>2013-04-03T15:57:34Z</time>
      </trkpt>
      <trkpt lat="42.812137" lon="1.532132">
        <ele>1704.6</ele>
        <time>2013-04-03T15:57:43Z</time>
      </trkpt>
      <trkpt lat="42.812182" lon="1.532236">
        <ele>1703.6</ele>
        <time>2013-04-03T15:57:52Z</time>
      </trkpt>
      <trkpt lat="42.812235" lon="1.532327">
        <ele>1702.2</ele>
        <time>2013-04-03T15:58:06Z</time>
      </trkpt>
      <trkpt lat="42.812305" lon="1.532434">
        <ele>1700.7</ele>
        <time>2013-04-03T15:58:20Z</time>
      </trkpt>
      <trkpt lat="42.812380" lon="1.532529">
        <ele>1699.8</ele>
        <time>2013-04-03T15:58:31Z</time>
      </trkpt>
      <trkpt lat="42.812449" lon="1.532614">
        <ele>1697.8</ele>
        <time>2013-04-03T15:58:40Z</time>
      </trkpt>
      <trkpt lat="42.812492" lon="1.532738">
        <ele>1697.3</ele>
        <time>2013-04-03T15:58:49Z</time>
      </trkpt>
      <trkpt lat="42.812533" lon="1.532865">
        <ele>1696.4</ele>
        <time>2013-04-03T15:59:00Z</time>
      </trkpt>
      <trkpt lat="42.812587" lon="1.532971">
        <ele>1695.9</ele>
        <time>2013-04-03T15:59:10Z</time>
      </trkpt>
      <trkpt lat="42.812642" lon="1.533074">
        <ele>1694.9</ele>
        <time>2013-04-03T15:59:20Z</time>
      </trkpt>
      <trkpt lat="42.812681" lon="1.533193">
        <ele>1694.0</ele>
        <time>2013-04-03T15:59:31Z</time>
      </trkpt>
      <trkpt lat="42.812710" lon="1.533311">
        <ele>1693.0</ele>
        <time>2013-04-03T15:59:40Z</time>
      </trkpt>
      <trkpt lat="42.812723" lon="1.533450">
        <ele>1693.0</ele>
        <time>2013-04-03T15:59:50Z</time>
      </trkpt>
      <trkpt lat="42.812743" lon="1.533572">
        <ele>1692.5</ele>
        <time>2013-04-03T15:59:59Z</time>
      </trkpt>
      <trkpt lat="42.812761" lon="1.533704">
        <ele>1691.6</ele>
        <time>2013-04-03T16:00:08Z</time>
      </trkpt>
      <trkpt lat="42.812782" lon="1.533844">
        <ele>1690.1</ele>
        <time>2013-04-03T16:00:18Z</time>
      </trkpt>
      <trkpt lat="42.812784" lon="1.533960">
        <ele>1690.1</ele>
        <time>2013-04-03T16:01:05Z</time>
      </trkpt>
      <trkpt lat="42.812810" lon="1.534092">
        <ele>1688.7</ele>
        <time>2013-04-03T16:01:15Z</time>
      </trkpt>
      <trkpt lat="42.812835" lon="1.534227">
        <ele>1687.2</ele>
        <time>2013-04-03T16:01:24Z</time>
      </trkpt>
      <trkpt lat="42.812877" lon="1.534357">
        <ele>1686.3</ele>
        <time>2013-04-03T16:01:33Z</time>
      </trkpt>
      <trkpt lat="42.812925" lon="1.534471">
        <ele>1685.8</ele>
        <time>2013-04-03T16:01:42Z</time>
      </trkpt>
      <trkpt lat="42.812975" lon="1.534583">
        <ele>1684.8</ele>
        <time>2013-04-03T16:01:51Z</time>
      </trkpt>
      <trkpt lat="42.813024" lon="1.534702">
        <ele>1684.4</ele>
        <time>2013-04-03T16:02:00Z</time>
      </trkpt>
      <trkpt lat="42.813076" lon="1.534814">
        <ele>1683.9</ele>
        <time>2013-04-03T16:02:09Z</time>
      </trkpt>
      <trkpt lat="42.813149" lon="1.534899">
        <ele>1682.9</ele>
        <time>2013-04-03T16:02:18Z</time>
      </trkpt>
      <trkpt lat="42.813219" lon="1.534976">
        <ele>1681.5</ele>
        <time>2013-04-03T16:02:27Z</time>
      </trkpt>
      <trkpt lat="42.813282" lon="1.535085">
        <ele>1680.5</ele>
        <time>2013-04-03T16:02:36Z</time>
      </trkpt>
      <trkpt lat="42.813369" lon="1.535154">
        <ele>1679.6</ele>
        <time>2013-04-03T16:02:46Z</time>
      </trkpt>
      <trkpt lat="42.813447" lon="1.535235">
        <ele>1678.6</ele>
        <time>2013-04-03T16:02:54Z</time>
      </trkpt>
      <trkpt lat="42.813514" lon="1.535328">
        <ele>1677.2</ele>
        <time>2013-04-03T16:03:05Z</time>
      </trkpt>
      <trkpt lat="42.813567" lon="1.535422">
        <ele>1673.8</ele>
        <time>2013-04-03T16:03:13Z</time>
      </trkpt>
      <trkpt lat="42.813619" lon="1.535531">
        <ele>1671.9</ele>
        <time>2013-04-03T16:03:22Z</time>
      </trkpt>
      <trkpt lat="42.813662" lon="1.535644">
        <ele>1669.9</ele>
        <time>2013-04-03T16:03:31Z</time>
      </trkpt>
      <trkpt lat="42.813720" lon="1.535741">
        <ele>1667.1</ele>
        <time>2013-04-03T16:03:39Z</time>
      </trkpt>
      <trkpt lat="42.813784" lon="1.535832">
        <ele>1663.2</ele>
        <time>2013-04-03T16:03:50Z</time>
      </trkpt>
      <trkpt lat="42.813847" lon="1.535919">
        <ele>1660.3</ele>
        <time>2013-04-03T16:04:00Z</time>
      </trkpt>
      <trkpt lat="42.813913" lon="1.536018">
        <ele>1657.4</ele>
        <time>2013-04-03T16:04:10Z</time>
      </trkpt>
      <trkpt lat="42.813973" lon="1.536102">
        <ele>1655.1</ele>
        <time>2013-04-03T16:04:19Z</time>
      </trkpt>
      <trkpt lat="42.814034" lon="1.536208">
        <ele>1652.2</ele>
        <time>2013-04-03T16:04:27Z</time>
      </trkpt>
      <trkpt lat="42.814104" lon="1.536280">
        <ele>1648.8</ele>
        <time>2013-04-03T16:04:35Z</time>
      </trkpt>
      <trkpt lat="42.814168" lon="1.536377">
        <ele>1646.9</ele>
        <time>2013-04-03T16:04:43Z</time>
      </trkpt>
      <trkpt lat="42.814236" lon="1.536457">
        <ele>1644.0</ele>
        <time>2013-04-03T16:04:52Z</time>
      </trkpt>
      <trkpt lat="42.814322" lon="1.536525">
        <ele>1640.6</ele>
        <time>2013-04-03T16:05:01Z</time>
      </trkpt>
      <trkpt lat="42.814399" lon="1.536612">
        <ele>1637.7</ele>
        <time>2013-04-03T16:05:09Z</time>
      </trkpt>
      <trkpt lat="42.814451" lon="1.536715">
        <ele>1636.3</ele>
        <time>2013-04-03T16:05:17Z</time>
      </trkpt>
      <trkpt lat="42.814535" lon="1.536789">
        <ele>1632.9</ele>
        <time>2013-04-03T16:05:26Z</time>
      </trkpt>
      <trkpt lat="42.814611" lon="1.536862">
        <ele>1630.5</ele>
        <time>2013-04-03T16:05:34Z</time>
      </trkpt>
      <trkpt lat="42.814667" lon="1.536946">
        <ele>1627.7</ele>
        <time>2013-04-03T16:05:45Z</time>
      </trkpt>
      <trkpt lat="42.814719" lon="1.537015">
        <ele>1625.2</ele>
        <time>2013-04-03T16:05:58Z</time>
      </trkpt>
      <trkpt lat="42.814794" lon="1.537088">
        <ele>1620.9</ele>
        <time>2013-04-03T16:06:07Z</time>
      </trkpt>
      <trkpt lat="42.814854" lon="1.537181">
        <ele>1617.6</ele>
        <time>2013-04-03T16:06:16Z</time>
      </trkpt>
      <trkpt lat="42.814921" lon="1.537266">
        <ele>1614.2</ele>
        <time>2013-04-03T16:06:25Z</time>
      </trkpt>
      <trkpt lat="42.814992" lon="1.537353">
        <ele>1611.3</ele>
        <time>2013-04-03T16:06:34Z</time>
      </trkpt>
      <trkpt lat="42.815045" lon="1.537460">
        <ele>1609.4</ele>
        <time>2013-04-03T16:06:43Z</time>
      </trkpt>
      <trkpt lat="42.815115" lon="1.537559">
        <ele>1606.5</ele>
        <time>2013-04-03T16:06:53Z</time>
      </trkpt>
      <trkpt lat="42.815156" lon="1.537680">
        <ele>1604.6</ele>
        <time>2013-04-03T16:07:03Z</time>
      </trkpt>
      <trkpt lat="42.815219" lon="1.537782">
        <ele>1603.1</ele>
        <time>2013-04-03T16:07:12Z</time>
      </trkpt>
      <trkpt lat="42.815299" lon="1.537846">
        <ele>1600.2</ele>
        <time>2013-04-03T16:07:20Z</time>
      </trkpt>
      <trkpt lat="42.815393" lon="1.537882">
        <ele>1597.8</ele>
        <time>2013-04-03T16:07:29Z</time>
      </trkpt>
      <trkpt lat="42.815445" lon="1.537996">
        <ele>1595.0</ele>
        <time>2013-04-03T16:07:36Z</time>
      </trkpt>
      <trkpt lat="42.815525" lon="1.538076">
        <ele>1592.1</ele>
        <time>2013-04-03T16:07:45Z</time>
      </trkpt>
      <trkpt lat="42.815602" lon="1.538161">
        <ele>1589.2</ele>
        <time>2013-04-03T16:07:54Z</time>
      </trkpt>
      <trkpt lat="42.815657" lon="1.538277">
        <ele>1585.8</ele>
        <time>2013-04-03T16:08:03Z</time>
      </trkpt>
      <trkpt lat="42.815705" lon="1.538390">
        <ele>1582.0</ele>
        <time>2013-04-03T16:08:11Z</time>
      </trkpt>
      <trkpt lat="42.815754" lon="1.538500">
        <ele>1577.7</ele>
        <time>2013-04-03T16:08:19Z</time>
      </trkpt>
      <trkpt lat="42.815797" lon="1.538619">
        <ele>1573.8</ele>
        <time>2013-04-03T16:08:28Z</time>
      </trkpt>
      <trkpt lat="42.815847" lon="1.538716">
        <ele>1570.0</ele>
        <time>2013-04-03T16:08:36Z</time>
      </trkpt>
      <trkpt lat="42.815905" lon="1.538805">
        <ele>1566.1</ele>
        <time>2013-04-03T16:08:44Z</time>
      </trkpt>
      <trkpt lat="42.815970" lon="1.538925">
        <ele>1562.3</ele>
        <time>2013-04-03T16:08:52Z</time>
      </trkpt>
      <trkpt lat="42.816026" lon="1.539042">
        <ele>1557.0</ele>
        <time>2013-04-03T16:09:01Z</time>
      </trkpt>
      <trkpt lat="42.816086" lon="1.539145">
        <ele>1553.2</ele>
        <time>2013-04-03T16:09:09Z</time>
      </trkpt>
      <trkpt lat="42.816128" lon="1.539234">
        <ele>1548.8</ele>
        <time>2013-04-03T16:09:17Z</time>
      </trkpt>
      <trkpt lat="42.816186" lon="1.539344">
        <ele>1545.0</ele>
        <time>2013-04-03T16:09:26Z</time>
      </trkpt>
      <trkpt lat="42.816231" lon="1.539435">
        <ele>1540.2</ele>
        <time>2013-04-03T16:10:35Z</time>
      </trkpt>
      <trkpt lat="42.816286" lon="1.539532">
        <ele>1536.8</ele>
        <time>2013-04-03T16:10:45Z</time>
      </trkpt>
      <trkpt lat="42.816355" lon="1.539620">
        <ele>1532.5</ele>
        <time>2013-04-03T16:10:57Z</time>
      </trkpt>
      <trkpt lat="42.816413" lon="1.539713">
        <ele>1528.6</ele>
        <time>2013-04-03T16:11:07Z</time>
      </trkpt>
      <trkpt lat="42.816469" lon="1.539785">
        <ele>1523.8</ele>
        <time>2013-04-03T16:11:18Z</time>
      </trkpt>
      <trkpt lat="42.816548" lon="1.539870">
        <ele>1519.5</ele>
        <time>2013-04-03T16:11:28Z</time>
      </trkpt>
      <trkpt lat="42.816624" lon="1.539967">
        <ele>1515.2</ele>
        <time>2013-04-03T16:11:39Z</time>
      </trkpt>
      <trkpt lat="42.816675" lon="1.540059">
        <ele>1510.8</ele>
        <time>2013-04-03T16:11:47Z</time>
      </trkpt>
      <trkpt lat="42.816724" lon="1.540160">
        <ele>1508.4</ele>
        <time>2013-04-03T16:11:56Z</time>
      </trkpt>
      <trkpt lat="42.816778" lon="1.540283">
        <ele>1504.1</ele>
        <time>2013-04-03T16:12:06Z</time>
      </trkpt>
      <trkpt lat="42.816809" lon="1.540401">
        <ele>1500.8</ele>
        <time>2013-04-03T16:12:15Z</time>
      </trkpt>
      <trkpt lat="42.816849" lon="1.540519">
        <ele>1496.9</ele>
        <time>2013-04-03T16:12:24Z</time>
      </trkpt>
      <trkpt lat="42.816889" lon="1.540632">
        <ele>1494.0</ele>
        <time>2013-04-03T16:12:33Z</time>
      </trkpt>
      <trkpt lat="42.816922" lon="1.540769">
        <ele>1491.1</ele>
        <time>2013-04-03T16:12:43Z</time>
      </trkpt>
      <trkpt lat="42.816961" lon="1.540888">
        <ele>1488.7</ele>
        <time>2013-04-03T16:12:52Z</time>
      </trkpt>
      <trkpt lat="42.816999" lon="1.541015">
        <ele>1485.8</ele>
        <time>2013-04-03T16:13:00Z</time>
      </trkpt>
      <trkpt lat="42.817015" lon="1.541138">
        <ele>1484.4</ele>
        <time>2013-04-03T16:13:09Z</time>
      </trkpt>
      <trkpt lat="42.817040" lon="1.541271">
        <ele>1483.0</ele>
        <time>2013-04-03T16:13:18Z</time>
      </trkpt>
      <trkpt lat="42.817082" lon="1.541391">
        <ele>1480.6</ele>
        <time>2013-04-03T16:13:27Z</time>
      </trkpt>
      <trkpt lat="42.817132" lon="1.541504">
        <ele>1477.2</ele>
        <time>2013-04-03T16:13:37Z</time>
      </trkpt>
      <trkpt lat="42.817196" lon="1.541605">
        <ele>1473.4</ele>
        <time>2013-04-03T16:13:46Z</time>
      </trkpt>
      <trkpt lat="42.817241" lon="1.541729">
        <ele>1470.0</ele>
        <time>2013-04-03T16:13:54Z</time>
      </trkpt>
      <trkpt lat="42.817312" lon="1.541824">
        <ele>1466.6</ele>
        <time>2013-04-03T16:14:02Z</time>
      </trkpt>
      <trkpt lat="42.817395" lon="1.541887">
        <ele>1463.3</ele>
        <time>2013-04-03T16:14:10Z</time>
      </trkpt>
      <trkpt lat="42.817488" lon="1.541942">
        <ele>1460.4</ele>
        <time>2013-04-03T16:14:19Z</time>
      </trkpt>
      <trkpt lat="42.817560" lon="1.541997">
        <ele>1457.0</ele>
        <time>2013-04-03T16:14:28Z</time>
      </trkpt>
      <trkpt lat="42.817634" lon="1.542105">
        <ele>1452.2</ele>
        <time>2013-04-03T16:14:37Z</time>
      </trkpt>
      <trkpt lat="42.817696" lon="1.542196">
        <ele>1449.3</ele>
        <time>2013-04-03T16:14:45Z</time>
      </trkpt>
      <trkpt lat="42.817801" lon="1.542203">
        <ele>1446.4</ele>
        <time>2013-04-03T16:14:54Z</time>
      </trkpt>
      <trkpt lat="42.817888" lon="1.542245">
        <ele>1442.6</ele>
        <time>2013-04-03T16:15:03Z</time>
      </trkpt>
      <trkpt lat="42.817983" lon="1.542284">
        <ele>1439.7</ele>
        <time>2013-04-03T16:15:13Z</time>
      </trkpt>
      <trkpt lat="42.818074" lon="1.542289">
        <ele>1436.8</ele>
        <time>2013-04-03T16:15:23Z</time>
      </trkpt>
      <trkpt lat="42.818174" lon="1.542297">
        <ele>1434.9</ele>
        <time>2013-04-03T16:15:32Z</time>
      </trkpt>
      <trkpt lat="42.818265" lon="1.542347">
        <ele>1432.5</ele>
        <time>2013-04-03T16:15:41Z</time>
      </trkpt>
      <trkpt lat="42.818364" lon="1.542357">
        <ele>1428.7</ele>
        <time>2013-04-03T16:15:52Z</time>
      </trkpt>
      <trkpt lat="42.818459" lon="1.542313">
        <ele>1426.2</ele>
        <time>2013-04-03T16:16:02Z</time>
        <name>Col de Lastris</name>
      </trkpt>
      <trkpt lat="42.818553" lon="1.542337">
        <ele>1424.3</ele>
        <time>2013-04-03T16:16:11Z</time>
      </trkpt>
      <trkpt lat="42.818660" lon="1.542354">
        <ele>1421.9</ele>
        <time>2013-04-03T16:16:22Z</time>
      </trkpt>
      <trkpt lat="42.818754" lon="1.542319">
        <ele>1418.1</ele>
        <time>2013-04-03T16:16:33Z</time>
      </trkpt>
      <trkpt lat="42.818826" lon="1.542215">
        <ele>1413.3</ele>
        <time>2013-04-03T16:16:45Z</time>
      </trkpt>
      <trkpt lat="42.818943" lon="1.542216">
        <ele>1410.4</ele>
        <time>2013-04-03T16:16:56Z</time>
      </trkpt>
      <trkpt lat="42.819073" lon="1.542234">
        <ele>1406.6</ele>
        <time>2013-04-03T16:17:09Z</time>
      </trkpt>
      <trkpt lat="42.819233" lon="1.542283">
        <ele>1401.7</ele>
        <time>2013-04-03T16:17:26Z</time>
      </trkpt>
      <trkpt lat="42.819310" lon="1.542294">
        <ele>1399.8</ele>
        <time>2013-04-03T16:21:24Z</time>
      </trkpt>
      <trkpt lat="42.819406" lon="1.542226">
        <ele>1395.5</ele>
        <time>2013-04-03T16:22:58Z</time>
      </trkpt>
      <trkpt lat="42.819446" lon="1.542089">
        <ele>1391.2</ele>
        <time>2013-04-03T16:23:11Z</time>
      </trkpt>
      <trkpt lat="42.819558" lon="1.541995">
        <ele>1387.3</ele>
        <time>2013-04-03T16:23:26Z</time>
      </trkpt>
      <trkpt lat="42.819723" lon="1.542046">
        <ele>1382.5</ele>
        <time>2013-04-03T16:23:41Z</time>
      </trkpt>
      <trkpt lat="42.819904" lon="1.542046">
        <ele>1378.2</ele>
        <time>2013-04-03T16:23:57Z</time>
      </trkpt>
      <trkpt lat="42.820021" lon="1.542014">
        <ele>1374.3</ele>
        <time>2013-04-03T16:24:10Z</time>
      </trkpt>
      <trkpt lat="42.820185" lon="1.542058">
        <ele>1370.5</ele>
        <time>2013-04-03T16:24:26Z</time>
      </trkpt>
      <trkpt lat="42.820315" lon="1.542075">
        <ele>1367.6</ele>
        <time>2013-04-03T16:24:39Z</time>
      </trkpt>
      <trkpt lat="42.820445" lon="1.542081">
        <ele>1364.2</ele>
        <time>2013-04-03T16:24:52Z</time>
      </trkpt>
      <trkpt lat="42.820559" lon="1.542062">
        <ele>1360.4</ele>
        <time>2013-04-03T16:25:01Z</time>
      </trkpt>
      <trkpt lat="42.820688" lon="1.542095">
        <ele>1357.0</ele>
        <time>2013-04-03T16:25:12Z</time>
      </trkpt>
      <trkpt lat="42.820817" lon="1.542086">
        <ele>1355.1</ele>
        <time>2013-04-03T16:25:21Z</time>
      </trkpt>
      <trkpt lat="42.820949" lon="1.542005">
        <ele>1352.7</ele>
        <time>2013-04-03T16:25:32Z</time>
      </trkpt>
      <trkpt lat="42.821082" lon="1.542003">
        <ele>1350.8</ele>
        <time>2013-04-03T16:25:43Z</time>
      </trkpt>
      <trkpt lat="42.821228" lon="1.542011">
        <ele>1348.9</ele>
        <time>2013-04-03T16:25:53Z</time>
      </trkpt>
      <trkpt lat="42.821390" lon="1.541991">
        <ele>1345.5</ele>
        <time>2013-04-03T16:26:05Z</time>
      </trkpt>
      <trkpt lat="42.821536" lon="1.541970">
        <ele>1344.1</ele>
        <time>2013-04-03T16:26:15Z</time>
      </trkpt>
      <trkpt lat="42.821636" lon="1.541941">
        <ele>1341.7</ele>
        <time>2013-04-03T16:26:25Z</time>
      </trkpt>
      <trkpt lat="42.821742" lon="1.541952">
        <ele>1340.2</ele>
        <time>2013-04-03T16:26:35Z</time>
      </trkpt>
      <trkpt lat="42.821840" lon="1.541919">
        <ele>1337.8</ele>
        <time>2013-04-03T16:26:45Z</time>
      </trkpt>
      <trkpt lat="42.821964" lon="1.541890">
        <ele>1334.9</ele>
        <time>2013-04-03T16:26:55Z</time>
      </trkpt>
      <trkpt lat="42.822081" lon="1.541850">
        <ele>1332.5</ele>
        <time>2013-04-03T16:27:04Z</time>
      </trkpt>
      <trkpt lat="42.822219" lon="1.541878">
        <ele>1328.7</ele>
        <time>2013-04-03T16:27:15Z</time>
      </trkpt>
      <trkpt lat="42.822399" lon="1.541876">
        <ele>1327.2</ele>
        <time>2013-04-03T16:27:30Z</time>
      </trkpt>
      <trkpt lat="42.822510" lon="1.541830">
        <ele>1323.9</ele>
        <time>2013-04-03T16:27:40Z</time>
      </trkpt>
      <trkpt lat="42.822632" lon="1.541797">
        <ele>1321.9</ele>
        <time>2013-04-03T16:27:51Z</time>
      </trkpt>
      <trkpt lat="42.822744" lon="1.541727">
        <ele>1320.5</ele>
        <time>2013-04-03T16:28:02Z</time>
      </trkpt>
      <trkpt lat="42.822811" lon="1.541600">
        <ele>1319.1</ele>
        <time>2013-04-03T16:28:11Z</time>
      </trkpt>
      <trkpt lat="42.822856" lon="1.541464">
        <ele>1316.7</ele>
        <time>2013-04-03T16:28:20Z</time>
      </trkpt>
      <trkpt lat="42.822950" lon="1.541312">
        <ele>1314.7</ele>
        <time>2013-04-03T16:28:30Z</time>
      </trkpt>
      <trkpt lat="42.823037" lon="1.541189">
        <ele>1311.9</ele>
        <time>2013-04-03T16:28:41Z</time>
      </trkpt>
      <trkpt lat="42.823123" lon="1.541049">
        <ele>1307.5</ele>
        <time>2013-04-03T16:29:01Z</time>
      </trkpt>
      <trkpt lat="42.823201" lon="1.540898">
        <ele>1302.2</ele>
        <time>2013-04-03T16:29:14Z</time>
      </trkpt>
      <trkpt lat="42.823278" lon="1.540723">
        <ele>1297.0</ele>
        <time>2013-04-03T16:29:28Z</time>
      </trkpt>
      <trkpt lat="42.823390" lon="1.540541">
        <ele>1291.7</ele>
        <time>2013-04-03T16:29:43Z</time>
      </trkpt>
      <trkpt lat="42.823471" lon="1.540366">
        <ele>1285.9</ele>
        <time>2013-04-03T16:29:58Z</time>
      </trkpt>
      <trkpt lat="42.823601" lon="1.540264">
        <ele>1283.0</ele>
        <time>2013-04-03T16:30:09Z</time>
      </trkpt>
      <trkpt lat="42.823713" lon="1.540092">
        <ele>1278.7</ele>
        <time>2013-04-03T16:30:21Z</time>
      </trkpt>
      <trkpt lat="42.823823" lon="1.539976">
        <ele>1276.3</ele>
        <time>2013-04-03T16:30:32Z</time>
      </trkpt>
      <trkpt lat="42.823918" lon="1.539802">
        <ele>1272.9</ele>
        <time>2013-04-03T16:30:45Z</time>
      </trkpt>
      <trkpt lat="42.824013" lon="1.539646">
        <ele>1268.1</ele>
        <time>2013-04-03T16:30:59Z</time>
      </trkpt>
      <trkpt lat="42.824121" lon="1.539457">
        <ele>1263.8</ele>
        <time>2013-04-03T16:31:15Z</time>
      </trkpt>
      <trkpt lat="42.824196" lon="1.539315">
        <ele>1260.4</ele>
        <time>2013-04-03T16:31:26Z</time>
      </trkpt>
      <trkpt lat="42.824316" lon="1.539117">
        <ele>1256.6</ele>
        <time>2013-04-03T16:31:41Z</time>
      </trkpt>
      <trkpt lat="42.824436" lon="1.538925">
        <ele>1251.3</ele>
        <time>2013-04-03T16:31:54Z</time>
      </trkpt>
      <trkpt lat="42.824495" lon="1.538778">
        <ele>1249.8</ele>
        <time>2013-04-03T16:32:03Z</time>
      </trkpt>
      <trkpt lat="42.824521" lon="1.538633">
        <ele>1248.4</ele>
        <time>2013-04-03T16:32:11Z</time>
      </trkpt>
      <trkpt lat="42.824558" lon="1.538488">
        <ele>1247.4</ele>
        <time>2013-04-03T16:32:20Z</time>
      </trkpt>
      <trkpt lat="42.824616" lon="1.538332">
        <ele>1246.5</ele>
        <time>2013-04-03T16:32:29Z</time>
      </trkpt>
      <trkpt lat="42.824655" lon="1.538196">
        <ele>1247.0</ele>
        <time>2013-04-03T16:32:38Z</time>
      </trkpt>
      <trkpt lat="42.824721" lon="1.538073">
        <ele>1245.5</ele>
        <time>2013-04-03T16:32:49Z</time>
      </trkpt>
      <trkpt lat="42.824807" lon="1.537974">
        <ele>1239.8</ele>
        <time>2013-04-03T16:33:02Z</time>
      </trkpt>
      <trkpt lat="42.824832" lon="1.537797">
        <ele>1242.2</ele>
        <time>2013-04-03T16:33:17Z</time>
      </trkpt>
      <trkpt lat="42.824884" lon="1.537634">
        <ele>1240.7</ele>
        <time>2013-04-03T16:33:26Z</time>
      </trkpt>
      <trkpt lat="42.824913" lon="1.537440">
        <ele>1241.7</ele>
        <time>2013-04-03T16:33:39Z</time>
      </trkpt>
      <trkpt lat="42.824973" lon="1.537264">
        <ele>1241.2</ele>
        <time>2013-04-03T16:33:50Z</time>
      </trkpt>
      <trkpt lat="42.825018" lon="1.537092">
        <ele>1242.6</ele>
        <time>2013-04-03T16:34:00Z</time>
      </trkpt>
      <trkpt lat="42.825152" lon="1.536953">
        <ele>1239.8</ele>
        <time>2013-04-03T16:34:13Z</time>
      </trkpt>
      <trkpt lat="42.825232" lon="1.536780">
        <ele>1237.3</ele>
        <time>2013-04-03T16:34:30Z</time>
      </trkpt>
      <trkpt lat="42.825355" lon="1.536650">
        <ele>1236.9</ele>
        <time>2013-04-03T16:34:40Z</time>
      </trkpt>
      <trkpt lat="42.825451" lon="1.536542">
        <ele>1232.1</ele>
        <time>2013-04-03T16:34:48Z</time>
      </trkpt>
      <trkpt lat="42.825565" lon="1.536418">
        <ele>1231.1</ele>
        <time>2013-04-03T16:35:01Z</time>
      </trkpt>
      <trkpt lat="42.825673" lon="1.536284">
        <ele>1228.2</ele>
        <time>2013-04-03T16:35:12Z</time>
      </trkpt>
      <trkpt lat="42.825809" lon="1.536138">
        <ele>1226.3</ele>
        <time>2013-04-03T16:35:24Z</time>
      </trkpt>
      <trkpt lat="42.825940" lon="1.536005">
        <ele>1224.9</ele>
        <time>2013-04-03T16:35:33Z</time>
      </trkpt>
      <trkpt lat="42.826098" lon="1.535953">
        <ele>1222.9</ele>
        <time>2013-04-03T16:35:48Z</time>
      </trkpt>
      <trkpt lat="42.826225" lon="1.535920">
        <ele>1220.5</ele>
        <time>2013-04-03T16:35:59Z</time>
      </trkpt>
      <trkpt lat="42.826362" lon="1.535870">
        <ele>1218.6</ele>
        <time>2013-04-03T16:36:07Z</time>
      </trkpt>
      <trkpt lat="42.826483" lon="1.535850">
        <ele>1215.7</ele>
        <time>2013-04-03T16:36:16Z</time>
      </trkpt>
      <trkpt lat="42.826615" lon="1.535721">
        <ele>1210.4</ele>
        <time>2013-04-03T16:36:29Z</time>
      </trkpt>
      <trkpt lat="42.826740" lon="1.535635">
        <ele>1206.1</ele>
        <time>2013-04-03T16:36:38Z</time>
      </trkpt>
      <trkpt lat="42.826901" lon="1.535525">
        <ele>1198.9</ele>
        <time>2013-04-03T16:36:52Z</time>
      </trkpt>
      <trkpt lat="42.827036" lon="1.535400">
        <ele>1194.1</ele>
        <time>2013-04-03T16:37:04Z</time>
      </trkpt>
      <trkpt lat="42.827156" lon="1.535275">
        <ele>1191.2</ele>
        <time>2013-04-03T16:37:14Z</time>
      </trkpt>
      <trkpt lat="42.827230" lon="1.535125">
        <ele>1186.9</ele>
        <time>2013-04-03T16:37:24Z</time>
      </trkpt>
      <trkpt lat="42.827280" lon="1.534930">
        <ele>1184.0</ele>
        <time>2013-04-03T16:37:34Z</time>
      </trkpt>
      <trkpt lat="42.827343" lon="1.534719">
        <ele>1178.7</ele>
        <time>2013-04-03T16:37:46Z</time>
      </trkpt>
      <trkpt lat="42.827391" lon="1.534538">
        <ele>1174.4</ele>
        <time>2013-04-03T16:37:58Z</time>
      </trkpt>
      <trkpt lat="42.827508" lon="1.534353">
        <ele>1168.6</ele>
        <time>2013-04-03T16:38:13Z</time>
      </trkpt>
      <trkpt lat="42.827587" lon="1.534185">
        <ele>1164.8</ele>
        <time>2013-04-03T16:38:26Z</time>
      </trkpt>
      <trkpt lat="42.827671" lon="1.533979">
        <ele>1158.5</ele>
        <time>2013-04-03T16:38:40Z</time>
      </trkpt>
      <trkpt lat="42.827774" lon="1.533853">
        <ele>1150.3</ele>
        <time>2013-04-03T16:38:58Z</time>
      </trkpt>
      <trkpt lat="42.827926" lon="1.533741">
        <ele>1142.2</ele>
        <time>2013-04-03T16:39:17Z</time>
      </trkpt>
      <trkpt lat="42.828034" lon="1.533761">
        <ele>1137.9</ele>
        <time>2013-04-03T16:39:25Z</time>
      </trkpt>
      <trkpt lat="42.828134" lon="1.533701">
        <ele>1130.7</ele>
        <time>2013-04-03T16:39:39Z</time>
      </trkpt>
      <trkpt lat="42.828284" lon="1.533755">
        <ele>1128.2</ele>
        <time>2013-04-03T16:39:51Z</time>
      </trkpt>
      <trkpt lat="42.828424" lon="1.533764">
        <ele>1124.4</ele>
        <time>2013-04-03T16:40:01Z</time>
      </trkpt>
      <trkpt lat="42.828522" lon="1.533721">
        <ele>1121.5</ele>
        <time>2013-04-03T16:40:08Z</time>
      </trkpt>
      <trkpt lat="42.828656" lon="1.533681">
        <ele>1117.2</ele>
        <time>2013-04-03T16:40:21Z</time>
      </trkpt>
      <trkpt lat="42.828740" lon="1.533537">
        <ele>1113.3</ele>
        <time>2013-04-03T16:40:32Z</time>
      </trkpt>
      <trkpt lat="42.828822" lon="1.533460">
        <ele>1109.0</ele>
        <time>2013-04-03T16:40:39Z</time>
      </trkpt>
      <trkpt lat="42.828915" lon="1.533311">
        <ele>1107.6</ele>
        <time>2013-04-03T16:40:51Z</time>
      </trkpt>
      <trkpt lat="42.829040" lon="1.533287">
        <ele>1101.8</ele>
        <time>2013-04-03T16:41:03Z</time>
      </trkpt>
      <trkpt lat="42.829125" lon="1.533338">
        <ele>1097.0</ele>
        <time>2013-04-03T16:41:15Z</time>
      </trkpt>
      <trkpt lat="42.829248" lon="1.533436">
        <ele>1090.8</ele>
        <time>2013-04-03T16:41:28Z</time>
      </trkpt>
      <trkpt lat="42.829406" lon="1.533554">
        <ele>1083.1</ele>
        <time>2013-04-03T16:41:45Z</time>
      </trkpt>
      <trkpt lat="42.829504" lon="1.533624">
        <ele>1074.9</ele>
        <time>2013-04-03T16:42:04Z</time>
      </trkpt>
      <trkpt lat="42.829554" lon="1.533832">
        <ele>1067.7</ele>
        <time>2013-04-03T16:42:22Z</time>
      </trkpt>
      <trkpt lat="42.829549" lon="1.533935">
        <ele>1064.8</ele>
        <time>2013-04-03T16:44:13Z</time>
      </trkpt>
      <trkpt lat="42.829597" lon="1.533831">
        <ele>1063.8</ele>
        <time>2013-04-03T16:46:19Z</time>
      </trkpt>
      <trkpt lat="42.829751" lon="1.533608">
        <ele>1061.9</ele>
        <time>2013-04-03T16:46:36Z</time>
      </trkpt>
      <trkpt lat="42.829863" lon="1.533422">
        <ele>1057.1</ele>
        <time>2013-04-03T16:47:00Z</time>
      </trkpt>
      <trkpt lat="42.829866" lon="1.533281">
        <ele>1051.8</ele>
        <time>2013-04-03T16:47:16Z</time>
      </trkpt>
      <trkpt lat="42.829935" lon="1.533145">
        <ele>1047.0</ele>
        <time>2013-04-03T16:47:30Z</time>
      </trkpt>
      <trkpt lat="42.830028" lon="1.532932">
        <ele>1041.7</ele>
        <time>2013-04-03T16:47:42Z</time>
      </trkpt>
      <trkpt lat="42.830111" lon="1.532803">
        <ele>1036.4</ele>
        <time>2013-04-03T16:47:54Z</time>
      </trkpt>
      <trkpt lat="42.830184" lon="1.532597">
        <ele>1031.2</ele>
        <time>2013-04-03T16:48:05Z</time>
      </trkpt>
      <trkpt lat="42.830339" lon="1.532360">
        <ele>1023.5</ele>
        <time>2013-04-03T16:48:31Z</time>
      </trkpt>
      <trkpt lat="42.830422" lon="1.532267">
        <ele>1019.6</ele>
        <time>2013-04-03T16:48:51Z</time>
      </trkpt>
      <trkpt lat="42.830431" lon="1.532094">
        <ele>1015.8</ele>
        <time>2013-04-03T16:49:05Z</time>
      </trkpt>
      <trkpt lat="42.830540" lon="1.532050">
        <ele>1012.4</ele>
        <time>2013-04-03T16:49:25Z</time>
      </trkpt>
      <trkpt lat="42.830713" lon="1.532086">
        <ele>1007.6</ele>
        <time>2013-04-03T16:49:43Z</time>
      </trkpt>
      <trkpt lat="42.830870" lon="1.532132">
        <ele>1002.8</ele>
        <time>2013-04-03T16:49:56Z</time>
      </trkpt>
      <trkpt lat="42.831034" lon="1.532183">
        <ele>998.5</ele>
        <time>2013-04-03T16:50:12Z</time>
      </trkpt>
      <trkpt lat="42.831222" lon="1.532202">
        <ele>993.7</ele>
        <time>2013-04-03T16:50:29Z</time>
      </trkpt>
      <trkpt lat="42.831455" lon="1.532264">
        <ele>989.8</ele>
        <time>2013-04-03T16:51:11Z</time>
      </trkpt>
      <trkpt lat="42.831601" lon="1.532351">
        <ele>986.9</ele>
        <time>2013-04-03T16:51:26Z</time>
      </trkpt>
      <trkpt lat="42.831723" lon="1.532461">
        <ele>982.1</ele>
        <time>2013-04-03T16:51:43Z</time>
      </trkpt>
      <trkpt lat="42.831890" lon="1.532605">
        <ele>976.8</ele>
        <time>2013-04-03T16:52:07Z</time>
      </trkpt>
      <trkpt lat="42.832089" lon="1.532735">
        <ele>971.5</ele>
        <time>2013-04-03T16:52:28Z</time>
      </trkpt>
      <trkpt lat="42.832236" lon="1.532816">
        <ele>967.7</ele>
        <time>2013-04-03T16:52:44Z</time>
      </trkpt>
      <trkpt lat="42.832433" lon="1.532965">
        <ele>962.9</ele>
        <time>2013-04-03T16:53:03Z</time>
      </trkpt>
      <trkpt lat="42.832511" lon="1.533121">
        <ele>958.1</ele>
        <time>2013-04-03T16:53:21Z</time>
      </trkpt>
      <trkpt lat="42.832564" lon="1.533316">
        <ele>953.8</ele>
        <time>2013-04-03T16:53:36Z</time>
      </trkpt>
      <trkpt lat="42.832653" lon="1.533490">
        <ele>949.9</ele>
        <time>2013-04-03T16:53:49Z</time>
      </trkpt>
      <trkpt lat="42.832715" lon="1.533675">
        <ele>945.1</ele>
        <time>2013-04-03T16:54:04Z</time>
      </trkpt>
      <trkpt lat="42.832770" lon="1.533841">
        <ele>940.8</ele>
        <time>2013-04-03T16:54:19Z</time>
      </trkpt>
      <trkpt lat="42.832785" lon="1.534011">
        <ele>936.5</ele>
        <time>2013-04-03T16:54:37Z</time>
      </trkpt>
      <trkpt lat="42.832890" lon="1.534210">
        <ele>931.7</ele>
        <time>2013-04-03T16:54:55Z</time>
      </trkpt>
      <trkpt lat="42.832981" lon="1.534236">
        <ele>928.3</ele>
        <time>2013-04-03T16:55:11Z</time>
      </trkpt>
      <trkpt lat="42.833091" lon="1.534207">
        <ele>925.9</ele>
        <time>2013-04-03T16:55:21Z</time>
      </trkpt>
      <trkpt lat="42.833196" lon="1.534115">
        <ele>923.5</ele>
        <time>2013-04-03T16:55:32Z</time>
      </trkpt>
      <trkpt lat="42.833389" lon="1.533962">
        <ele>922.0</ele>
        <time>2013-04-03T16:55:45Z</time>
      </trkpt>
      <trkpt lat="42.833491" lon="1.533818">
        <ele>921.1</ele>
        <time>2013-04-03T16:56:05Z</time>
      </trkpt>
      <trkpt lat="42.833591" lon="1.533865">
        <ele>920.6</ele>
        <time>2013-04-03T16:58:47Z</time>
      </trkpt>
      <trkpt lat="42.833813" lon="1.533700">
        <ele>919.2</ele>
        <time>2013-04-03T16:59:09Z</time>
      </trkpt>
      <trkpt lat="42.833966" lon="1.533482">
        <ele>918.2</ele>
        <time>2013-04-03T16:59:25Z</time>
      </trkpt>
      <trkpt lat="42.834104" lon="1.533313">
        <ele>918.2</ele>
        <time>2013-04-03T16:59:37Z</time>
      </trkpt>
      <trkpt lat="42.834231" lon="1.533179">
        <ele>916.8</ele>
        <time>2013-04-03T16:59:48Z</time>
      </trkpt>
      <trkpt lat="42.834368" lon="1.532945">
        <ele>916.8</ele>
        <time>2013-04-03T17:00:51Z</time>
        <name>Piste de Gourbit</name>
      </trkpt>
    </trkseg>
  </trk>
</gpx>

